[[{"header":{"parameterUnit":"m.s-1","parameterCategory":1,"la1":30.6,"la2":29.2853,"lo1":-89.7004,"lo2":-87.6739,"dy":0.0162,"dx":0.0183,"nx":112,"ny":82,"refTime":"2023-03-13T00:00:00:Z","depth":0,"parameterNumber":2,"parameterNumberName":"U-component_of_WINDS"},"data":[0.0,0.0,0.0,0.0,0.0,0.0,0.0,0.0,0.0,0.0,0.0,0.0,0.0,0.0,0.0,0.0,0.0,0.0,0.0,0.0,0.0,0.0,0.0,0.0,0.0,0.0,0.0,0.0,0.0,0.0,0.0,0.0,0.0,0.0,0.0,0.0,0.0,0.0,0.0,0.0,0.0,0.0,0.0,0.0,0.0,0.0,0.0,0.0,0.0,0.0,0.0,0.0,0.0,0.0,0.0,0.0,0.0,0.0,0.0,0.0,0.0,0.0,0.0,0.0,0.0,0.0,0.0,0.0,0.0,0.0,0.0,0.0,0.0,0.0,0.0,0.0,0.0,0.0,0.0,0.0,0.0,0.0,0.0,0.0,0.0,0.0,0.0,0.0,0.0,0.0,0.0,4.1081,4.753,5.0964,4.9458,4.7767,4.435,3.8587,0.0,0.0,0.0,0.0,0.0,0.0,0.0,0.0,0.0,0.0,0.0,0.0,0.0,0.0,0.0,0.0,0.0,0.0,0.0,0.0,0.0,0.0,0.0,0.0,0.0,0.0,0.0,0.0,0.0,0.0,0.0,0.0,0.0,0.0,0.0,0.0,0.0,0.0,0.0,0.0,0.0,0.0,0.0,0.0,0.0,0.0,0.0,0.0,0.0,0.0,0.0,0.0,0.0,0.0,0.0,0.0,0.0,0.0,0.0,0.0,0.0,0.0,0.0,0.0,0.0,0.0,0.0,0.0,0.0,0.0,0.0,0.0,0.0,0.0,0.0,0.0,0.0,0.0,0.0,0.0,0.0,0.0,0.0,0.0,0.0,0.0,0.0,0.0,0.0,0.0,0.0,0.0,0.0,0.0,0.0,0.0,0.0,0.0,0.0,0.0,0.0,0.0,0.0,0.0,3.9457,4.6853,5.0947,5.252,5.0998,4.8376,4.479,4.0075,0.0,0.0,0.0,0.0,0.0,0.0,0.0,0.0,0.0,0.0,0.0,0.0,0.0,0.0,0.0,0.0,0.0,0.0,0.0,0.0,0.0,0.0,0.0,0.0,0.0,0.0,0.0,0.0,0.0,0.0,0.0,0.0,0.0,0.0,0.0,0.0,0.0,0.0,0.0,0.0,0.0,0.0,0.0,0.0,0.0,0.0,0.0,0.0,0.0,0.0,0.0,0.0,0.0,0.0,0.0,0.0,0.0,0.0,0.0,0.0,0.0,0.0,0.0,0.0,0.0,0.0,0.0,0.0,0.0,0.0,0.0,0.0,0.0,0.0,0.0,0.0,0.0,0.0,0.0,0.0,0.0,0.0,0.0,0.0,0.0,0.0,0.0,0.0,0.0,0.0,0.0,0.0,0.0,0.0,0.0,0.0,0.0,0.0,0.0,0.0,0.0,0.0,0.0,3.9153,4.2469,4.9442,5.2198,5.2858,5.1336,4.8511,4.506,4.0954,3.7855,0.0,0.0,0.0,0.0,0.0,0.0,0.0,0.0,0.0,0.0,0.0,0.0,0.0,0.0,0.0,0.0,0.0,0.0,0.0,0.0,0.0,0.0,0.0,0.0,0.0,0.0,0.0,0.0,0.0,0.0,0.0,0.0,0.0,0.0,0.0,0.0,0.0,0.0,0.0,0.0,0.0,0.0,0.0,0.0,0.0,0.0,0.0,0.0,0.0,0.0,0.0,0.0,0.0,0.0,0.0,0.0,0.0,0.0,0.0,0.0,0.0,0.0,0.0,0.0,0.0,0.0,0.0,0.0,0.0,0.0,0.0,0.0,0.0,0.0,0.0,0.0,0.0,0.0,0.0,0.0,0.0,0.0,0.0,0.0,0.0,0.0,0.0,0.0,0.0,0.0,0.0,0.0,0.0,0.0,0.0,0.0,0.0,0.0,0.0,0.0,0.0,0.0,4.2807,4.5432,5.0863,5.2689,5.2926,5.1573,4.8443,4.5094,4.1677,3.7775,0.0,0.0,0.0,0.0,0.0,0.0,0.0,0.0,0.0,0.0,0.0,0.0,0.0,0.0,0.0,0.0,0.0,0.0,0.0,0.0,0.0,0.0,0.0,0.0,0.0,0.0,0.0,0.0,0.0,0.0,0.0,0.0,0.0,0.0,0.0,0.0,0.0,0.0,0.0,0.0,0.0,0.0,0.0,0.0,0.0,0.0,0.0,0.0,0.0,0.0,0.0,0.0,0.0,0.0,0.0,0.0,0.0,0.0,0.0,0.0,0.0,0.0,0.0,0.0,0.0,0.0,0.0,0.0,0.0,0.0,0.0,0.0,0.0,0.0,0.0,0.0,0.0,0.0,0.0,0.0,0.0,0.0,0.0,0.0,0.0,0.0,0.0,0.0,0.0,0.0,0.0,0.0,0.0,0.0,0.0,0.0,0.0,0.0,0.0,0.0,0.0,0.0,4.4316,4.797,5.1826,5.2976,5.3145,5.23,4.8274,4.4756,4.2354,3.8046,0.0,0.0,0.0,0.0,0.0,0.0,0.0,0.0,0.0,0.0,0.0,0.0,0.0,0.0,0.0,0.0,0.0,0.0,0.0,0.0,0.0,0.0,0.0,0.0,0.0,0.0,0.0,0.0,0.0,0.0,0.0,0.0,0.0,0.0,0.0,0.0,0.0,0.0,0.0,0.0,0.0,0.0,0.0,0.0,0.0,0.0,0.0,0.0,0.0,0.0,0.0,0.0,0.0,0.0,0.0,0.0,0.0,0.0,0.0,0.0,0.0,0.0,0.0,0.0,0.0,0.0,0.0,0.0,0.0,0.0,0.0,0.0,0.0,0.0,0.0,0.0,0.0,0.0,0.0,0.0,0.0,0.0,0.0,0.0,0.0,0.0,0.0,0.0,0.0,0.0,0.0,0.0,0.0,0.0,0.0,0.0,0.0,0.0,0.0,0.0,0.0,0.0,4.4248,4.7376,0.0,5.3315,5.301,5.1708,4.8409,4.521,4.2469,0.0,0.0,0.0,0.0,0.0,0.0,0.0,0.0,0.0,0.0,0.0,0.0,0.0,0.0,0.0,0.0,0.0,0.0,0.0,0.0,0.0,0.0,0.0,0.0,0.0,0.0,0.0,0.0,0.0,0.0,0.0,0.0,0.0,0.0,0.0,0.0,0.0,0.0,0.0,0.0,0.0,0.0,0.0,0.0,0.0,0.0,0.0,0.0,0.0,0.0,0.0,0.0,0.0,0.0,0.0,0.0,0.0,0.0,0.0,0.0,0.0,0.0,0.0,0.0,0.0,0.0,0.0,0.0,0.0,0.0,0.0,0.0,0.0,0.0,0.0,0.0,0.0,0.0,0.0,0.0,0.0,0.0,0.0,0.0,0.0,0.0,0.0,0.0,0.0,0.0,0.0,0.0,0.0,0.0,0.0,0.0,0.0,0.0,0.0,0.0,0.0,0.0,4.2679,4.4722,4.7665,0.0,5.3518,5.2976,5.1641,4.8409,4.5365,4.2794,0.0,0.0,0.0,0.0,0.0,0.0,0.0,0.0,0.0,0.0,0.0,0.0,0.0,0.0,0.0,0.0,0.0,0.0,0.0,0.0,0.0,0.0,0.0,0.0,0.0,0.0,0.0,0.0,0.0,0.0,0.0,0.0,0.0,0.0,0.0,0.0,0.0,0.0,0.0,0.0,0.0,0.0,0.0,0.0,0.0,0.0,0.0,0.0,0.0,0.0,0.0,0.0,0.0,0.0,0.0,0.0,0.0,0.0,0.0,0.0,0.0,0.0,0.0,0.0,0.0,0.0,0.0,0.0,0.0,0.0,0.0,0.0,0.0,0.0,0.0,0.0,0.0,0.0,0.0,0.0,0.0,0.0,0.0,0.0,0.0,0.0,0.0,0.0,0.0,0.0,0.0,0.0,0.0,0.0,0.0,0.0,0.0,0.0,0.0,0.0,0.0,0.0,4.2949,4.6027,4.9341,5.3112,5.3518,5.3179,5.2351,4.8225,4.5046,0.0,0.0,0.0,0.0,0.0,0.0,0.0,0.0,0.0,0.0,0.0,0.0,0.0,0.0,0.0,0.0,0.0,0.0,0.0,0.0,0.0,0.0,0.0,0.0,0.0,0.0,0.0,0.0,0.0,0.0,0.0,0.0,0.0,0.0,0.0,0.0,0.0,0.0,0.0,0.0,0.0,0.0,0.0,0.0,0.0,0.0,0.0,0.0,0.0,0.0,0.0,0.0,0.0,0.0,0.0,0.0,0.0,0.0,0.0,0.0,0.0,0.0,0.0,0.0,0.0,0.0,0.0,0.0,0.0,0.0,0.0,0.0,0.0,0.0,0.0,0.0,0.0,0.0,0.0,0.0,0.0,0.0,0.0,0.0,0.0,0.0,0.0,0.0,0.0,0.0,0.0,0.0,0.0,0.0,0.0,0.0,0.0,0.0,0.0,0.0,0.0,0.0,0.0,0.0,4.6365,4.9341,5.3112,5.3518,5.2708,5.0725,4.8037,4.5072,4.1853,0.0,0.0,0.0,0.0,0.0,0.0,0.0,0.0,0.0,0.0,0.0,0.0,0.0,0.0,0.0,0.0,0.0,0.0,0.0,0.0,0.0,0.0,0.0,0.0,0.0,0.0,0.0,0.0,0.0,0.0,0.0,0.0,0.0,0.0,0.0,0.0,0.0,0.0,0.0,0.0,0.0,0.0,0.0,0.0,0.0,0.0,0.0,0.0,0.0,0.0,0.0,0.0,0.0,0.0,0.0,0.0,0.0,0.0,0.0,0.0,0.0,0.0,0.0,0.0,0.0,0.0,0.0,0.0,0.0,0.0,0.0,0.0,0.0,0.0,0.0,0.0,0.0,0.0,0.0,0.0,0.0,0.0,0.0,0.0,0.0,0.0,0.0,0.0,0.0,0.0,0.0,0.0,0.0,0.0,0.0,0.0,0.0,0.0,0.0,0.0,0.0,0.0,4.4107,4.6786,4.9645,5.3145,5.3518,5.264,5.0526,4.7867,4.4938,4.1665,0.0,0.0,0.0,0.0,0.0,0.0,0.0,0.0,0.0,0.0,0.0,0.0,0.0,0.0,0.0,0.0,0.0,0.0,0.0,0.0,0.0,0.0,0.0,0.0,0.0,0.0,0.0,0.0,0.0,0.0,0.0,0.0,0.0,0.0,0.0,0.0,0.0,0.0,0.0,0.0,0.0,0.0,0.0,0.0,0.0,0.0,0.0,0.0,0.0,0.0,0.0,0.0,0.0,0.0,0.0,0.0,0.0,0.0,0.0,0.0,0.0,0.0,0.0,0.0,0.0,0.0,0.0,0.0,0.0,0.0,0.0,0.0,0.0,0.0,0.0,0.0,0.0,0.0,0.0,0.0,0.0,0.0,0.0,0.0,0.0,0.0,0.0,0.0,0.0,0.0,0.0,0.0,0.0,0.0,0.0,0.0,0.0,0.0,0.0,0.0,0.0,0.0,4.4184,4.7065,4.9963,5.2893,5.3229,5.2556,5.0959,4.7566,4.4543,4.2201,0.0,0.0,0.0,0.0,0.0,0.0,0.0,0.0,0.0,0.0,0.0,0.0,0.0,0.0,0.0,0.0,0.0,0.0,0.0,0.0,0.0,0.0,0.0,0.0,0.0,0.0,0.0,0.0,0.0,0.0,0.0,0.0,0.0,0.0,0.0,0.0,0.0,0.0,0.0,0.0,0.0,0.0,0.0,0.0,0.0,0.0,0.0,0.0,0.0,0.0,0.0,0.0,0.0,0.0,0.0,0.0,0.0,0.0,0.0,0.0,3.2615,0.0,0.0,0.0,0.0,0.0,0.0,0.0,0.0,0.0,0.0,0.0,0.0,0.0,0.0,0.0,0.0,0.0,0.0,0.0,0.0,0.0,0.0,0.0,0.0,0.0,0.0,0.0,0.0,0.0,0.0,0.0,0.0,0.0,0.0,0.0,0.0,0.0,0.0,0.0,0.0,0.0,4.3827,4.6191,4.8461,5.0816,5.1075,5.0161,4.8003,4.6188,4.3755,4.0316,0.0,0.0,0.0,0.0,0.0,0.0,0.0,0.0,0.0,0.0,0.0,0.0,0.0,0.0,0.0,0.0,0.0,0.0,0.0,0.0,0.0,0.0,0.0,0.0,0.0,0.0,0.0,0.0,0.0,0.0,0.0,0.0,0.0,0.0,0.0,0.0,0.0,0.0,0.0,0.0,0.0,0.0,0.0,0.0,0.0,0.0,0.0,0.0,0.0,0.0,0.0,0.0,0.0,0.0,0.0,0.0,0.0,0.0,0.0,0.0,0.0,3.4359,0.0,0.0,0.0,0.0,0.0,0.0,0.0,0.0,0.0,0.0,0.0,0.0,0.0,0.0,0.0,0.0,0.0,0.0,0.0,0.0,0.0,0.0,0.0,0.0,0.0,0.0,0.0,0.0,0.0,0.0,0.0,0.0,0.0,0.0,0.0,0.0,0.0,0.0,0.0,0.0,4.4244,4.6652,4.8813,5.0678,5.0889,5.0101,4.8205,4.6187,4.3737,4.0794,3.8411,0.0,0.0,0.0,0.0,0.0,0.0,0.0,0.0,0.0,0.0,0.0,0.0,0.0,0.0,0.0,0.0,0.0,0.0,0.0,0.0,0.0,0.0,0.0,0.0,0.0,0.0,0.0,0.0,0.0,0.0,0.0,0.0,0.0,0.0,0.0,0.0,0.0,0.0,0.0,0.0,0.0,0.0,0.0,0.0,0.0,0.0,0.0,0.0,0.0,0.0,0.0,0.0,0.0,0.0,0.0,4.1624,4.2182,4.272,4.3068,3.9787,3.7686,3.6508,0.0,0.0,0.0,0.0,0.0,0.0,0.0,0.0,0.0,0.0,0.0,0.0,0.0,0.0,0.0,0.0,0.0,0.0,0.0,0.0,0.0,0.0,0.0,0.0,0.0,4.3958,4.3916,0.0,0.0,0.0,0.0,0.0,0.0,0.0,0.0,0.0,0.0,0.0,0.0,4.4545,4.7144,4.9335,5.071,5.0857,5.0287,4.8896,4.6339,4.3933,4.1877,3.8637,3.6224,0.0,0.0,0.0,0.0,0.0,0.0,0.0,0.0,0.0,0.0,0.0,0.0,0.0,0.0,0.0,0.0,0.0,0.0,0.0,0.0,0.0,0.0,0.0,0.0,0.0,0.0,0.0,0.0,0.0,0.0,0.0,0.0,3.2751,3.3425,0.0,0.0,0.0,0.0,0.0,0.0,0.0,0.0,0.0,0.0,0.0,0.0,0.0,0.0,4.1482,4.3169,4.4077,4.4257,4.5633,4.6322,4.6411,4.6471,4.6561,4.6642,4.6112,0.0,4.0426,3.8095,0.0,0.0,0.0,0.0,0.0,0.0,0.0,0.0,0.0,0.0,0.0,0.0,0.0,0.0,0.0,0.0,0.0,0.0,0.0,0.0,0.0,0.0,4.3457,4.4925,4.5906,4.6106,0.0,4.3046,4.1586,4.0112,0.0,0.0,0.0,0.0,0.0,0.0,0.0,0.0,4.3433,4.5949,4.786,4.8607,4.8697,4.8153,4.6803,4.5262,4.3547,4.1581,3.9379,3.7571,3.6284,3.5122,0.0,0.0,0.0,0.0,0.0,0.0,0.0,0.0,0.0,0.0,0.0,0.0,0.0,0.0,0.0,0.0,0.0,0.0,0.0,0.0,0.0,0.0,0.0,0.0,0.0,0.0,0.0,0.0,0.0,3.4382,3.5084,3.4681,3.5579,3.5818,0.0,0.0,0.0,0.0,0.0,0.0,0.0,0.0,0.0,4.2222,4.321,4.4526,4.6274,4.7459,4.8626,4.9756,5.072,5.1588,5.23,5.23,5.23,5.23,5.1887,5.0328,4.7682,4.3138,4.0269,3.8624,0.0,0.0,0.0,0.0,0.0,0.0,4.0361,0.0,0.0,0.0,0.0,0.0,0.0,0.0,0.0,0.0,0.0,0.0,0.0,0.0,0.0,4.6931,4.8034,4.8713,4.7607,4.6087,4.4235,0.0,4.1784,4.1446,3.9697,0.0,0.0,0.0,0.0,0.0,4.488,4.708,4.8528,4.8828,4.8858,4.8319,4.698,4.5633,4.4197,4.2581,4.0606,3.8931,3.7614,3.6314,3.5741,0.0,0.0,0.0,0.0,0.0,0.0,0.0,0.0,0.0,0.0,0.0,0.0,0.0,0.0,0.0,0.0,0.0,0.0,0.0,0.0,0.0,0.0,0.0,0.0,0.0,0.0,0.0,0.0,3.6297,3.7135,3.5669,3.7674,3.8332,0.0,0.0,0.0,0.0,0.0,0.0,4.2073,4.3439,4.5056,4.701,4.7856,4.9194,5.1043,5.1834,5.306,5.4725,5.5388,5.6316,5.745,5.745,5.736,5.718,5.6671,5.5534,5.3528,4.7908,4.4227,4.2102,4.1594,4.0995,0.0,4.1675,4.2283,4.2708,4.359,4.3797,4.3593,4.2805,0.0,4.1454,4.044,0.0,0.0,0.0,0.0,4.3758,4.3982,0.0,4.896,4.8844,5.0005,5.0821,4.9762,4.8733,4.7011,0.0,4.3471,4.3138,4.069,0.0,0.0,0.0,0.0,4.4052,4.6396,4.8382,4.9546,4.9546,4.9396,4.8828,4.7668,4.6172,4.4796,4.3638,4.1594,3.9888,3.8691,3.7272,3.6493,0.0,0.0,0.0,0.0,0.0,0.0,0.0,0.0,0.0,0.0,0.0,0.0,0.0,0.0,0.0,0.0,0.0,0.0,0.0,0.0,0.0,0.0,0.0,0.0,0.0,0.0,0.0,0.0,0.0,0.0,3.5729,3.8901,0.0,0.0,0.0,0.0,4.1991,4.324,4.4835,4.686,4.8229,4.9845,5.1798,5.3114,5.4461,5.5833,5.7094,5.8055,5.883,5.9488,6.0176,6.0837,6.0837,6.0505,5.9904,5.9847,5.8408,5.5683,5.0983,4.8229,4.677,4.4835,4.3748,4.3229,4.3269,4.4161,4.5226,4.4648,4.531,4.6537,4.736,4.7184,4.6233,4.4108,4.3504,0.0,0.0,4.4582,4.5109,4.7133,4.8325,4.933,5.0694,5.1634,5.1943,5.0923,5.0857,4.9519,0.0,4.3084,4.2337,4.1643,0.0,0.0,4.2232,4.3968,4.5666,4.7074,4.8955,5.0159,5.0159,4.9643,4.9007,4.8319,4.6441,4.5005,4.4296,4.1833,4.0079,3.9391,3.7524,3.6493,3.6493,3.6565,0.0,0.0,0.0,0.0,0.0,0.0,0.0,0.0,0.0,0.0,0.0,0.0,0.0,0.0,0.0,0.0,0.0,0.0,0.0,0.0,0.0,0.0,0.0,0.0,0.0,0.0,0.0,0.0,4.1833,4.4915,0.0,0.0,4.5065,4.5864,4.6762,4.8027,4.962,5.1648,5.3019,5.4635,5.6585,5.7513,5.862,5.9967,6.0446,6.1014,6.1672,6.194,6.2361,6.2959,6.257,6.2269,6.203,6.1553,6.0595,5.9189,5.712,5.3977,5.0391,4.9673,4.8745,4.7826,4.8245,4.8443,4.8555,4.8736,4.8841,4.8673,4.7354,4.6198,4.5248,4.4444,4.4602,4.5187,4.6214,4.7289,4.8306,4.9166,5.0913,5.2322,5.192,5.2564,5.2993,5.1934,5.1766,5.1047,4.8403,4.6793,4.5456,4.4191,4.3577,4.3488,4.4206,4.525,4.6591,4.8349,4.9531,5.0196,5.0196,4.9643,4.9037,4.8379,4.6463,4.5005,4.4326,4.1863,4.0098,3.9421,3.7524,3.6493,3.6493,3.6565,3.6854,0.0,0.0,0.0,0.0,0.0,0.0,0.0,0.0,0.0,0.0,0.0,0.0,0.0,0.0,0.0,0.0,0.0,0.0,0.0,0.0,0.0,0.0,0.0,0.0,0.0,0.0,4.6052,4.6313,4.9613,5.1176,4.9434,5.0092,5.0983,5.1881,5.3114,5.485,5.7094,5.7812,5.9069,6.1044,6.1283,6.1822,6.272,6.275,6.2959,6.3378,6.3197,6.3528,6.4306,6.3468,6.3227,6.3377,6.272,6.2061,6.1403,6.0954,5.856,5.5149,5.4461,5.3414,5.2282,5.2725,5.2606,5.2252,5.2486,5.1953,5.0877,4.8933,4.7606,4.6752,4.6752,4.7138,4.7811,4.9075,5.0051,5.0872,5.1405,5.2711,5.3706,5.2754,5.3082,5.3404,5.2684,5.2546,5.2217,5.1086,4.9632,4.8061,4.6569,4.6112,4.6142,4.6582,4.7399,4.8424,4.9763,5.0511,5.0787,5.0578,4.9793,4.9127,4.8678,4.6612,4.4915,4.4027,4.1713,4.0008,3.9092,3.7404,3.6493,3.6493,3.6565,3.6994,3.7807,0.0,0.0,0.0,0.0,0.0,0.0,0.0,0.0,0.0,0.0,0.0,0.0,0.0,0.0,0.0,0.0,0.0,0.0,0.0,0.0,0.0,0.0,0.0,4.1613,4.6163,4.9277,4.8738,5.2665,5.4431,5.1864,5.3952,5.5987,5.7244,5.856,6.0416,6.3018,6.254,6.3079,6.4934,6.4395,6.4066,6.4036,6.4036,6.4036,6.4006,6.3467,6.3827,6.4994,6.3707,6.3468,6.4006,6.3407,6.2748,6.2121,6.2121,6.1762,6.0956,5.8952,5.7423,5.6282,5.6282,5.6252,5.6132,5.5478,5.4426,5.3198,5.2546,5.1887,5.1325,5.1325,5.1325,5.1618,5.2929,5.2839,5.2636,5.3922,5.3773,5.3288,5.3288,5.3258,5.3258,5.3258,5.3258,5.3079,5.2396,5.1206,4.992,4.8626,4.8977,4.9396,4.9396,5.0451,0.0,5.1236,5.1798,5.1917,5.1265,5.0062,4.9307,4.9277,4.6852,4.4736,4.3369,4.1444,3.9738,3.8409,3.7152,3.6464,3.6464,3.6565,3.6964,3.7735,0.0,0.0,0.0,0.0,0.0,0.0,0.0,0.0,0.0,0.0,0.0,0.0,0.0,0.0,0.0,0.0,0.0,0.0,0.0,0.0,0.0,0.0,4.6403,4.6403,5.0564,5.4396,5.6585,5.9276,6.0984,6.1196,6.1433,6.1942,6.2751,6.317,6.3678,6.4455,6.4784,6.4934,6.4994,6.5263,6.5233,6.4725,6.4725,6.4725,6.4725,6.4575,6.4934,6.5682,6.4874,6.4575,6.4665,6.4036,6.3378,6.2838,6.2838,6.2718,6.2391,6.0894,5.9488,5.8291,5.8291,5.7693,5.6825,5.6645,5.6072,5.5354,5.5174,5.4665,5.4102,5.4102,5.4102,5.4281,5.5144,5.5234,5.5204,5.5564,5.5504,5.5264,5.4785,5.4665,5.4665,5.4665,5.4665,5.4431,5.3773,5.3354,5.2671,5.1349,5.1702,5.2121,5.2121,0.0,0.0,5.1947,5.1678,5.1385,5.1206,5.0458,4.9793,4.9337,4.6852,4.4526,0.0,4.0325,3.8362,3.7092,3.6207,3.5759,3.5759,3.632,3.6446,0.0,0.0,0.0,0.0,0.0,0.0,0.0,0.0,0.0,0.0,0.0,0.0,0.0,0.0,0.0,0.0,0.0,0.0,0.0,0.0,0.0,0.0,4.8618,5.1858,5.3803,5.6137,5.88,6.1792,6.3677,6.5024,6.5772,6.5742,6.5832,6.6221,6.6251,6.64,6.6639,6.652,6.649,6.6669,6.6789,6.664,6.6251,6.5981,6.5862,6.5832,6.5263,6.5503,6.64,6.5413,6.5144,0.0,6.4425,6.3797,6.3438,6.3197,6.3108,0.0,0.0,0.0,0.0,0.0,5.883,5.7902,5.7633,5.7304,5.6944,5.6671,5.6312,5.5987,5.5987,5.5833,5.5833,5.6735,5.6611,5.6312,5.6855,5.6611,5.6162,5.6017,5.5777,5.5713,5.5927,5.5803,5.5418,5.476,0.0,0.0,5.3234,5.3114,5.3198,5.3198,5.3114,5.2845,0.0,5.2097,5.1828,5.1265,5.0368,4.9673,4.9307,4.6852,0.0,0.0,0.0,3.8512,3.6926,0.0,0.0,0.0,0.0,3.6908,0.0,0.0,0.0,0.0,4.0028,3.9876,0.0,0.0,0.0,0.0,0.0,0.0,0.0,0.0,0.0,0.0,0.0,0.0,0.0,0.0,0.0,0.0,5.3378,5.7483,6.2121,6.2331,6.2811,6.5054,6.646,6.7238,6.7328,6.7808,6.8137,6.8227,6.8167,6.8345,6.8974,0.0,0.0,0.0,0.0,6.8197,6.8107,6.7508,6.7178,6.7089,6.5981,6.6011,6.6939,6.5862,6.5532,6.5832,6.4635,6.4036,6.3857,6.3347,6.3108,6.3108,6.3018,6.26,6.1942,6.0565,5.9727,0.0,0.0,0.0,0.0,5.7513,5.7334,5.7334,5.7334,5.6971,5.6761,5.7876,5.7393,5.6791,5.7842,5.7274,5.6521,5.6974,5.6701,5.6462,5.6974,5.6701,5.6132,5.5508,5.5388,5.5209,5.464,5.3892,5.3438,5.3438,5.3862,0.0,5.2576,5.2785,5.2636,5.1415,0.0,0.0,4.9307,4.6972,4.4676,4.274,4.1224,3.9559,3.7686,3.7537,3.7554,3.7627,3.7477,3.7839,3.8695,3.8639,3.9455,4.1092,4.0495,4.0294,0.0,0.0,0.0,0.0,0.0,0.0,0.0,0.0,0.0,0.0,0.0,0.0,0.0,0.0,0.0,5.4665,5.8052,6.1583,6.6221,6.7208,6.7448,6.7449,6.8136,6.8824,6.9395,6.9034,6.9034,6.9574,6.9093,6.8854,6.9004,6.9243,0.0,6.9004,6.9393,6.9333,6.8794,6.8675,6.8345,6.7808,0.0,0.0,6.6999,6.7299,6.661,6.5174,6.4904,6.4216,6.3287,6.3168,6.3108,6.3048,6.248,6.2211,6.1942,6.0565,6.0024,5.9787,5.9129,5.8919,5.889,5.877,5.871,5.871,5.871,5.862,0.0,5.883,5.874,5.8471,5.8175,5.7905,5.7633,5.7184,5.7004,5.6944,5.7064,5.7004,5.6885,5.6765,5.6735,5.6675,5.6555,5.5568,5.479,5.479,5.4461,5.4132,5.3862,5.2995,5.2306,5.2037,5.1319,5.0421,4.9366,4.784,4.6052,4.4077,4.1713,3.9978,3.9062,3.8482,3.8452,3.9002,3.7956,3.8012,3.9251,3.8803,3.9721,4.1802,4.1144,4.1522,0.0,0.0,0.0,0.0,0.0,0.0,0.0,0.0,0.0,0.0,0.0,4.3569,0.0,0.0,5.3887,5.88,6.1822,6.4934,6.8884,6.9482,6.9363,6.9065,6.9542,7.0081,7.041,7.0141,7.0081,7.041,7.0141,6.9961,6.9961,7.026,7.029,6.9961,7.026,7.029,6.9961,6.9632,6.9303,6.9005,6.8676,6.8167,6.7508,6.7148,6.646,6.5443,6.4785,6.4156,6.3528,6.3227,6.3108,6.3078,6.2748,6.2391,6.2002,6.1343,6.0655,6.0054,5.9697,5.9368,5.9099,5.9099,5.9099,5.9099,5.9099,5.889,5.8653,5.9009,5.886,5.8593,5.8593,5.8354,5.8085,5.8112,5.7842,5.7693,5.8022,5.7842,5.7603,5.7603,5.7334,5.7094,5.7094,5.6555,5.6047,5.5743,5.5119,5.4581,5.4251,5.3623,5.2935,5.2276,5.1618,5.0787,4.9823,4.7938,4.6232,4.4885,4.297,4.1743,4.1365,4.1036,4.0876,4.0894,4.0236,4.0086,4.0397,4.0141,4.0816,4.2336,4.2494,4.3059,0.0,0.0,0.0,0.0,0.0,0.0,0.0,0.0,4.0846,4.3379,4.5684,4.8147,5.1176,5.482,5.8677,6.278,6.5323,6.7837,7.0859,7.0739,7.0382,7.0382,7.0679,7.0889,7.0889,7.0889,7.0889,7.0889,7.0889,7.0889,7.0889,7.0889,7.0889,7.0889,7.0889,7.0889,7.0889,7.041,7.0143,6.9993,6.8916,6.8257,6.7958,6.6759,6.6071,6.5742,6.4395,6.3827,6.3767,6.3317,6.3108,6.3108,6.3108,6.2778,6.2271,6.2151,6.1403,6.0446,6.0326,5.9847,5.9308,5.9308,5.9219,5.9099,5.9099,5.8713,5.8414,5.8949,5.871,5.8444,5.9129,5.88,5.8444,5.9129,5.889,5.8593,5.9009,5.88,5.8444,5.8324,5.7872,5.7483,5.7483,5.7363,5.7094,5.6462,5.5833,5.5179,5.467,5.4371,5.3803,5.2695,5.2007,5.1265,5.0458,4.8245,4.6561,4.5723,4.4736,4.4018,4.3698,4.3579,4.3309,4.298,4.269,4.2421,4.2152,4.1762,4.2337,4.3813,4.4294,4.4674,3.3024,3.3187,3.452,3.7784,3.8062,3.9093,0.0,0.0,4.689,4.8903,5.1887,5.473,5.6829,5.9548,6.2929,6.7478,6.8974,7.026,7.2385,7.2116,7.17,7.17,7.1218,7.0889,7.0889,7.0889,7.0889,7.0889,7.0889,7.0889,7.0889,7.0889,7.0889,7.0889,7.0889,7.0889,7.0889,7.0829,7.053,7.0023,6.9873,6.9155,6.7987,6.7239,6.6251,6.5024,6.3737,6.3197,6.3197,6.3138,6.3108,6.3108,6.3108,6.3048,6.2928,6.2301,6.2002,6.1792,6.1194,6.0565,5.9967,5.9967,5.9578,5.9099,5.9099,5.9069,5.9009,5.9069,5.9069,5.9129,5.9787,5.9488,5.9159,5.9817,5.9907,5.9727,5.9219,5.9518,5.9697,5.9099,5.8949,5.889,5.889,5.8381,5.7756,5.7094,5.6492,5.6072,5.5983,5.494,5.4162,5.4012,5.3384,5.2456,5.1206,4.9763,4.8438,4.716,4.695,4.6322,4.5125,4.4496,4.4436,4.4966,4.3808,4.3758,4.4855,4.314,4.4124,4.7659,4.6575,4.6149,3.4407,3.3968,3.4565,0.0,4.0139,4.2373,4.705,4.9474,5.1498,5.4227,5.7154,5.9817,6.1764,6.4006,6.6431,0.0,7.0111,7.1068,7.2684,7.1996,7.1188,7.0829,7.0201,7.0081,7.0829,7.0889,7.0889,7.0889,7.0889,7.0889,7.0889,7.0889,7.0889,7.0889,7.1278,7.1487,7.1487,7.1876,7.1727,7.1098,7.0709,6.9842,6.8525,6.7089,6.5503,6.3857,6.3347,6.3108,6.3108,6.3108,6.3108,6.3108,6.3108,6.3108,6.3078,6.2808,6.2421,6.2002,6.1343,6.0655,6.0054,5.9638,5.9338,5.9099,5.9099,5.9099,5.9099,5.9099,5.9099,5.9159,5.9458,5.9308,5.9189,5.9458,5.9518,5.9428,5.9159,5.9308,5.9428,5.9159,5.9099,5.9099,5.9099,5.889,5.859,5.8321,5.709,5.6192,5.6192,5.5359,5.464,5.4251,5.3593,5.2839,5.1858,5.093,5.0002,4.9052,4.8297,4.7608,4.7091,4.6411,4.5992,4.5882,4.5343,4.5134,4.5304,4.4487,4.4951,4.6579,4.718,4.7495,3.5289,0.0,0.0,3.9588,4.2608,4.5784,5.0166,5.3105,5.5919,5.9528,6.1972,6.3947,6.5533,6.7178,6.8736,7.0021,7.0919,7.1787,7.2774,7.1757,7.062,6.9812,6.8794,6.8525,6.9453,7.0231,7.0709,7.0889,7.0889,7.0889,7.0889,7.1068,7.1188,7.1188,7.1816,7.2176,7.2176,7.2475,7.2385,7.1876,7.0859,6.9901,6.8944,6.6729,6.4874,6.3347,6.3168,6.3108,6.3108,6.3108,6.3108,6.3108,6.3108,6.3108,6.3108,6.3108,6.2689,6.2032,6.1553,6.0805,5.9997,5.9518,5.9249,5.9099,5.9099,5.9099,5.9099,5.9099,5.9099,5.9129,5.9338,5.9249,5.9189,5.9578,5.9518,5.9368,5.9368,5.9368,5.9308,5.9129,5.9099,5.9099,5.9099,5.9099,5.9099,5.9099,5.7723,5.6705,5.6705,5.5987,5.5209,5.4551,5.3862,5.3264,5.2785,5.1977,5.1176,5.0518,4.9441,4.8656,4.8319,4.7818,4.7279,4.66,4.657,4.633,4.5843,4.5663,4.5966,4.6722,4.801,4.9001,0.0,0.0,3.8182,4.2787,4.5624,4.906,5.5793,5.8318,6.0465,6.4874,6.634,6.7059,6.7778,6.8495,6.9393,7.0679,7.1996,7.2864,7.286,7.1757,7.044,6.9183,6.7298,6.6131,0.0,6.8495,7.026,7.0859,7.0889,7.0889,7.0889,7.1517,7.1846,7.1846,7.2535,7.2894,7.2894,7.2235,7.1906,7.1909,6.9961,6.9034,6.8914,6.622,6.4635,6.3947,6.3348,6.3108,6.3108,6.3108,6.3108,6.3108,6.3108,6.3108,6.3108,6.3108,6.2689,6.2091,6.2061,6.1194,6.0114,6.0084,5.9608,5.9099,5.9099,5.9099,5.9099,5.9099,5.9099,5.9249,5.9877,5.9578,5.9428,6.0717,6.0535,6.0057,6.0057,6.0057,5.9877,5.9219,5.9099,5.9099,5.9099,5.9099,5.9099,5.9099,5.8501,5.8025,5.8025,5.6944,5.5923,5.5239,5.4581,5.4162,5.4162,5.2935,5.1887,5.1206,5.0518,4.9591,4.8327,4.8289,4.7938,4.7279,4.7279,4.7279,4.7249,4.66,4.764,5.0237,4.9635,5.0805,0.0,0.0,4.2569,4.6722,4.997,5.361,5.9038,6.1781,6.3854,6.6184,6.6131,6.5742,6.5981,6.5832,6.64,6.8646,7.044,7.1727,7.2176,7.1846,7.044,6.7388,6.6789,0.0,0.0,0.0,0.0,6.9512,7.0051,7.0649,7.1517,7.2206,7.2565,7.2565,7.3223,7.3552,7.3552,7.3762,7.3432,7.2535,7.0141,6.8315,6.6969,6.5592,6.4425,6.3407,6.3197,6.3108,6.3108,6.3108,6.3108,6.3108,6.3108,6.3108,6.3108,6.3108,6.2689,6.2091,6.2091,6.1523,6.0685,6.0236,5.9638,5.9099,5.9099,5.9099,5.9099,5.9099,5.9099,5.9159,5.9368,5.9608,5.9877,6.0326,6.0266,6.0114,6.0114,6.0114,6.0027,5.9787,5.9757,5.9757,5.9757,5.9398,5.9099,5.9099,5.8504,5.7935,5.7483,5.6705,5.6102,5.5893,5.5239,5.467,5.4251,5.3384,5.2576,5.1917,5.0817,4.983,4.9007,4.8528,4.7967,4.7309,4.7309,4.7309,4.7309,4.7048,4.7775,4.9356,4.9833,5.0909,0.0,4.3664,4.7305,5.0795,5.3895,5.7007,6.0743,6.2598,6.4002,6.5626,6.4053,6.2526,6.3115,6.2136,6.217,6.5054,6.7178,6.8914,7.0323,7.0081,6.8854,6.6311,6.5772,0.0,0.0,0.0,0.0,6.8435,6.9482,7.0472,7.1487,7.2624,7.3283,7.3283,7.3911,7.424,7.424,7.421,7.3283,7.1487,6.9812,6.7956,6.5981,6.5293,6.4425,6.3408,6.3197,6.3108,6.3108,6.3108,6.3108,6.3108,6.3108,6.3108,6.3108,6.3108,6.2838,6.2421,6.2181,6.1493,6.0685,6.0236,5.9638,5.9099,5.9099,5.9279,5.9458,5.9458,5.9638,5.9817,5.9817,6.0146,6.0446,6.0446,6.0266,6.0174,6.0416,6.0266,6.0174,6.0416,6.0446,6.0446,6.0446,5.9907,5.9368,5.9129,5.8713,5.8205,5.7543,5.6885,5.6432,5.6222,5.5623,5.5029,5.461,5.3713,5.3019,5.2576,5.1295,5.0159,4.9307,4.8887,4.8229,4.7309,4.7309,4.7309,4.7309,4.7309,4.8009,4.9396,5.0087,5.1136,4.5522,4.9038,5.2285,5.4938,5.7223,5.9288,6.1101,6.105,6.1236,6.328,6.0285,5.7772,0.0,0.0,5.7113,6.049,6.2839,6.5114,6.7778,6.7119,6.6311,0.0,0.0,0.0,0.0,0.0,0.0,6.7868,0.0,7.026,7.1009,7.2894,7.3941,7.3941,7.4574,7.4903,7.4903,7.3582,7.1607,6.9064,6.9004,6.7956,6.5981,6.5293,6.4605,6.3977,6.3377,6.3108,6.3108,6.3108,6.3108,6.3108,6.3108,6.3108,6.3108,6.3108,6.3108,6.3018,6.2331,6.1224,6.0146,6.0146,5.9668,5.9099,5.9099,5.9548,6.0084,6.0114,6.0565,6.1074,6.1076,6.1134,6.1136,6.1136,6.0625,6.0326,6.1014,6.0625,6.0326,6.1014,6.1136,6.1134,6.1044,6.0505,5.9847,5.9189,5.9099,5.889,5.8234,5.7543,5.6885,5.6312,5.5623,5.5179,5.5179,5.3977,5.3228,5.3258,5.1977,5.0661,4.9426,4.9307,4.8678,4.7369,4.7309,4.7309,4.7309,4.7309,4.8345,5.032,5.0358,5.1484,4.9188,5.3055,5.657,5.8077,5.9182,6.0161,6.1258,6.077,5.9777,5.8728,5.5485,5.2825,0.0,0.0,0.0,5.9593,6.4066,0.0,6.9842,7.0739,0.0,6.7808,0.0,6.7029,6.5862,6.5892,0.0,0.0,6.9333,7.038,7.2984,7.4091,7.4663,7.4663,7.4813,7.4903,7.4903,7.3582,7.1846,6.9722,6.9243,6.7956,6.5981,6.5293,6.4605,6.3977,6.3377,6.3108,6.3108,6.3108,6.3108,6.3108,6.3108,6.3108,6.3108,6.3108,6.3108,6.3018,6.2331,6.1553,6.0864,6.0864,6.0057,5.9099,5.9099,5.9219,5.9458,5.9937,6.0206,6.0475,6.0984,6.1493,6.1852,6.1852,6.1343,6.1044,6.1702,6.1313,6.1044,6.1702,6.1852,6.1373,5.9877,5.9877,5.9847,5.9189,5.9099,5.9039,5.889,5.7812,5.7034,5.6885,5.5867,5.5179,5.5179,5.3977,5.3408,5.3922,5.2217,5.1056,5.075,4.9816,4.8887,4.8057,4.7549,4.7309,4.7309,4.7309,4.7946,4.9215,5.0029,5.108,5.3356,5.6696,5.9533,6.0387,6.0462,6.0081,5.9344,5.8198,5.6378,5.3022,5.0491,0.0,0.0,0.0,0.0,0.0,0.0,0.0,6.8734,7.0081,7.026,0.0,6.9215,0.0,6.7986,6.8136,6.9004,0.0,7.0201,7.0889,7.3343,7.436,7.4903,7.4903,7.4634,7.4151,7.3616,7.2834,7.1637,6.9993,6.9303,6.8106,6.64,6.5443,6.4605,6.3977,0.0,6.3108,6.3108,6.3108,6.3108,6.3108,6.3108,6.3108,6.3108,6.3108,6.3108,6.3018,6.2331,6.1672,6.1046,6.0775,5.9967,5.9099,5.9099,5.9518,6.0057,6.0446,6.0954,6.1493,6.1882,6.2241,6.245,6.2181,6.1822,6.1642,6.2032,6.1792,6.1732,6.2391,6.254,6.2091,6.0655,6.0475,6.0296,5.9638,5.9279,5.9099,5.9099,5.8201,5.7423,5.7124,5.6196,5.5534,5.5209,5.4221,5.3803,5.4192,5.2606,5.1505,5.1206,4.9995,4.8977,4.8319,4.7638,4.7309,4.7309,4.7309,4.7828,4.8841,4.9891,5.093,5.7474,5.9834,6.1492,6.1893,6.109,5.9433,5.6445,5.4543,5.2009,4.7128,0.0,4.4761,4.3616,4.5438,4.8557,5.2884,0.0,6.1972,6.661,6.7987,6.8945,7.0113,7.0352,7.0171,6.9692,7.0081,7.0919,7.2176,7.1667,7.1846,7.3103,7.424,7.4873,7.4783,7.4121,7.3163,7.1906,7.1876,7.1281,6.9993,6.9303,6.8345,6.7089,6.5742,6.4844,6.4216,0.0,0.0,6.3227,6.3138,6.3108,6.3108,6.3108,6.3108,6.3108,6.3108,6.3108,6.2988,6.2211,6.1583,6.1014,6.0326,5.9638,5.9099,5.9099,5.9967,6.1014,6.1046,6.2002,6.2988,6.3078,6.3108,6.2958,6.2361,6.2151,6.2121,6.2211,6.2241,6.2361,6.2868,6.3048,6.2868,6.2091,6.1553,6.0984,6.0206,5.9608,5.9189,5.9129,5.8504,5.7846,5.7154,5.6551,5.5923,5.5239,5.4581,5.4251,5.4341,5.2995,5.1977,5.1475,5.0152,4.9097,4.8468,4.7758,4.7399,4.7309,4.7309,4.7743,4.8615,4.9694,5.0665,5.996,6.1567,6.2446,6.2094,6.0814,5.8554,5.4401,5.1834,0.0,0.0,4.17,4.1427,4.1746,4.3999,4.7992,5.4609,0.0,0.0,0.0,0.0,7.131,0.0,0.0,0.0,0.0,0.0,0.0,0.0,0.0,0.0,7.448,7.4783,7.4663,7.4091,7.3432,7.2684,7.1906,7.1876,7.1281,6.9993,6.9303,6.8585,6.7778,6.643,6.5772,6.5592,0.0,0.0,6.3797,6.3317,6.3108,6.3108,6.3108,6.3108,6.3108,6.3108,6.3108,6.2928,6.1702,6.1224,6.1014,6.0326,5.9638,5.9099,5.9099,5.9638,6.0386,6.0954,6.1672,6.2391,6.2958,6.3108,6.3078,6.2958,6.248,6.2241,6.2808,6.2928,6.2808,6.2361,6.272,6.2718,6.1493,6.1642,6.1523,6.0266,5.9997,5.9727,5.9189,5.8504,5.7846,5.7154,5.6551,5.5923,5.5239,5.4581,5.4431,5.497,5.3234,5.2396,5.2815,5.1026,4.974,4.9127,4.8468,4.7848,4.7309,4.7309,4.7366,4.7572,4.8594,4.9175,6.1441,6.2421,6.2656,6.2144,5.9659,5.6452,5.2884,0.0,0.0,0.0,4.0473,4.0752,4.0153,4.3539,0.0,5.1959,0.0,0.0,0.0,0.0,0.0,0.0,0.0,0.0,0.0,0.0,0.0,0.0,0.0,0.0,7.4903,7.454,7.4061,7.3402,7.2744,7.2056,7.1398,7.1368,7.1068,7.044,6.9482,6.8824,6.8435,6.6759,6.5832,6.5413,0.0,0.0,6.3527,6.3227,6.3108,6.3108,6.3108,6.3108,6.3108,6.3108,6.3108,6.2958,6.1972,6.1403,6.1014,6.0326,5.9638,5.9099,5.9099,5.9548,6.0174,6.0475,6.1313,6.2181,6.248,6.2838,6.3108,6.3108,6.2868,6.2718,6.3048,6.3108,6.3018,6.266,6.2898,6.2898,6.2241,6.2121,6.1762,6.0775,6.0326,5.9847,5.9189,5.883,5.8354,5.7693,5.7034,5.6432,5.5773,5.5089,5.485,5.5179,5.3623,5.2869,5.3198,5.1265,5.0069,4.9763,4.8805,4.8139,4.7818,4.7489,4.7309,4.7331,4.8335,4.9094,6.3075,6.3346,6.2825,6.2845,5.8995,5.4515,5.1779,4.7481,0.0,0.0,3.9759,4.0412,3.9323,0.0,4.692,0.0,5.227,5.6615,0.0,0.0,0.0,0.0,0.0,0.0,0.0,0.0,0.0,0.0,0.0,0.0,0.0,7.4031,7.3373,7.2714,7.2026,7.1427,7.0919,7.0889,7.0829,7.0679,6.9542,6.8914,6.8704,6.6849,6.5682,6.5174,0.0,0.0,0.0,6.3168,6.3108,6.3108,6.3108,6.3108,6.3108,6.3108,6.3108,6.2988,6.2151,6.1553,6.0984,6.0146,5.9518,5.9099,5.9099,5.9548,6.0114,6.0114,6.0954,6.1912,6.2061,6.248,6.2928,6.3078,6.3108,6.3108,6.3108,6.3108,6.3108,6.3108,6.3108,6.3108,6.3108,6.266,6.2091,6.1433,6.0745,6.0057,5.9398,5.9189,5.8919,5.8354,5.7603,5.6881,5.6252,5.5593,5.5179,5.5179,5.4097,5.3348,5.3228,5.1535,5.0488,5.0219,4.9075,4.8438,4.8319,4.7638,4.7309,4.7331,4.8115,4.9065,6.5969,6.5135,6.3283,6.5251,6.0148,5.3971,5.1296,0.0,0.0,3.8425,3.8282,3.9002,4.0077,4.1675,0.0,0.0,5.1103,5.4551,6.0535,0.0,0.0,0.0,0.0,0.0,0.0,0.0,0.0,0.0,0.0,0.0,0.0,7.3373,7.2684,7.1996,7.1338,7.0949,7.0889,7.0889,7.062,7.0051,6.9333,6.8675,6.8047,6.664,6.5981,6.5862,0.0,0.0,0.0,6.3347,6.3108,6.3108,6.3108,6.3108,6.3108,6.3108,6.3108,6.2928,6.1642,6.1136,6.0894,5.9608,5.9159,5.9099,5.9099,5.9548,6.0114,6.0114,6.0625,6.1343,6.1942,6.2151,6.2331,6.2958,6.3108,6.3108,6.3108,6.3108,6.3108,6.3108,6.3108,6.3108,6.3108,6.3048,6.2778,6.2121,6.1433,6.0775,6.0086,5.9488,5.9069,5.9009,5.7872,5.6881,5.6252,5.5593,5.5179,5.5179,5.4521,5.3832,5.3228,5.2426,5.1415,5.0226,4.9553,4.8917,4.8319,4.7638,4.7309,4.7309,4.7387,4.7967,6.5345,6.6595,6.6427,6.6158,6.1054,5.5263,5.2295,0.0,4.0619,3.9564,3.8525,3.8452,4.0625,4.1782,4.3399,4.6403,4.7519,4.9972,5.5568,5.8381,0.0,0.0,0.0,0.0,0.0,0.0,0.0,0.0,0.0,0.0,0.0,0.0,7.2176,7.1906,7.1248,7.0889,7.0889,7.0889,7.0769,7.053,6.9482,6.8645,6.7958,6.661,6.5562,0.0,0.0,0.0,0.0,6.3197,6.3108,6.3108,6.3108,6.3108,6.3108,6.3108,6.3108,6.3018,6.248,6.2032,6.1553,6.0625,6.0027,5.9608,5.9219,5.9279,5.9488,5.9488,6.0266,6.1136,6.1433,6.2091,6.2778,6.3048,6.3108,6.3108,6.3108,6.3108,6.3108,6.3108,6.3108,6.3108,6.3108,6.3108,6.2748,6.1672,6.1283,6.0687,5.9638,5.9279,5.9099,5.9099,5.8261,5.7453,5.6821,5.6162,5.5623,5.5209,5.4581,5.4072,5.3803,5.2785,5.1947,5.1415,5.0391,4.9523,4.8887,4.8229,4.7698,4.7309,4.7309,4.8198,6.456,6.6975,6.7829,6.7136,6.1771,5.5932,0.0,0.0,4.0253,4.0137,3.8644,3.8093,4.0397,4.1523,4.2661,4.4436,4.5214,4.7369,5.248,5.4546,5.7902,0.0,0.0,0.0,0.0,0.0,0.0,0.0,0.0,0.0,0.0,0.0,7.1577,7.1577,7.1158,7.0889,7.0889,7.0709,7.053,7.032,6.9213,6.8256,6.7358,6.6221,6.5084,0.0,0.0,0.0,0.0,6.3108,6.3108,6.3108,6.3108,6.3108,6.3108,6.3108,6.3108,6.3078,6.2868,6.2361,6.1702,6.1014,6.0356,5.9697,5.9249,5.9099,5.9099,5.9099,6.0086,6.1136,6.1315,6.2241,6.3108,6.3108,6.3108,6.3108,6.3108,6.3108,6.3108,6.3108,6.3108,6.3108,6.3108,6.3108,6.2778,6.1822,6.1373,6.0775,5.9817,5.9368,5.9099,5.9099,5.868,5.8115,5.7453,5.6671,5.6013,5.5534,5.485,5.4431,5.4221,5.3294,5.2606,5.2217,5.1086,5.0189,4.9576,4.8686,4.8057,4.7578,4.7399,4.8397,6.4267,6.5983,6.6416,6.846,6.244,5.5339,0.0,0.0,4.0138,3.9524,3.8344,3.7806,3.9182,4.0516,4.1852,4.318,4.5014,4.7916,5.257,5.4935,0.0,0.0,0.0,0.0,0.0,0.0,0.0,0.0,0.0,0.0,0.0,0.0,7.0919,7.0919,7.0889,7.0889,7.0889,7.029,6.9662,6.9004,6.8347,6.7298,6.6011,6.5323,0.0,0.0,0.0,0.0,0.0,6.3108,6.3108,6.3108,6.3108,6.3108,6.3108,6.3108,6.3108,6.3018,6.2331,6.1672,6.1014,6.0326,5.9668,5.9129,5.9099,5.9099,5.9099,5.9099,6.0086,6.1253,6.1912,6.2599,6.3108,6.3108,6.3108,6.3108,6.3108,6.3108,6.3108,6.3108,6.3108,6.3108,6.3108,6.3108,6.3108,6.3078,6.1942,6.1076,6.1104,5.9937,5.9099,5.9099,5.9099,5.883,5.8145,5.6915,5.6192,5.6192,5.5564,5.488,5.4251,5.4192,5.3563,5.2217,5.1535,5.0877,5.0196,4.8925,4.8319,4.8289,4.7608,4.8397,5.8143,6.0581,6.1758,6.1062,5.7094,5.2577,4.9534,0.0,4.0178,3.9528,3.8315,3.7943,3.9768,4.0427,4.1743,4.4865,4.5882,4.7437,0.0,0.0,0.0,0.0,0.0,0.0,0.0,0.0,0.0,0.0,0.0,0.0,0.0,0.0,0.0,7.0889,7.05,7.026,7.026,6.9632,6.9213,6.9004,6.7837,6.6849,6.5981,0.0,0.0,0.0,0.0,0.0,0.0,6.3108,6.3108,6.3108,6.3108,6.3108,6.3108,6.3108,6.3108,6.3018,6.2331,6.1972,6.1613,6.0446,5.9937,5.9697,5.9249,5.9099,5.9308,6.0206,6.1104,6.1942,6.26,6.2958,6.3108,6.3108,6.3108,6.3108,6.3108,6.3108,6.3108,6.3108,6.3108,6.3108,6.3108,6.3108,6.2958,6.248,6.1672,6.0954,6.0475,5.9638,5.9099,5.9099,5.9099,5.883,5.8145,5.7304,5.6641,5.6222,5.5593,5.5089,5.488,5.4431,5.3773,5.2899,5.2217,5.1325,5.0196,4.98,4.9164,4.8311,4.8314,4.8677,0.0,5.6226,5.8288,5.6765,5.3892,0.0,0.0,4.318,3.981,3.9152,3.8153,3.7943,3.9709,4.0217,4.1384,4.4347,4.5224,0.0,0.0,0.0,0.0,0.0,0.0,0.0,0.0,0.0,0.0,0.0,0.0,0.0,0.0,0.0,0.0,7.056,7.0203,6.9784,6.9245,6.8585,6.8106,6.7867,6.6759,6.5892,6.5233,0.0,0.0,0.0,0.0,0.0,0.0,6.3108,6.3108,6.3108,6.3108,6.3108,6.3078,6.2838,6.2898,6.2988,6.2032,6.1732,6.1553,6.0446,5.9907,5.9638,5.9219,5.9099,5.9398,6.0717,6.1403,6.1942,6.2868,6.3108,6.3108,6.3108,6.3108,6.3108,6.3108,6.3108,6.3108,6.3108,6.3108,6.3108,6.3108,6.3108,6.2958,6.254,6.1912,6.1343,6.0894,6.0266,5.9847,5.9847,5.9638,5.9308,5.889,5.7782,5.6944,5.6551,5.5713,5.5179,5.5179,5.479,5.4132,5.3228,5.2809,5.1917,5.0578,5.0099,4.9314,4.8311,4.8229,4.846,0.0,5.2157,0.0,0.0,0.0,0.0,0.0,4.1953,0.0,3.8452,3.7823,3.7806,3.9212,3.9948,4.0846,0.0,0.0,0.0,0.0,0.0,0.0,0.0,0.0,0.0,0.0,0.0,0.0,0.0,0.0,0.0,0.0,0.0,0.0,0.0,6.9844,6.9185,6.7928,6.7239,6.655,6.5922,6.5233,6.4575,6.4006,0.0,0.0,0.0,0.0,0.0,0.0,6.3108,6.3108,6.3108,6.3108,6.3078,6.2958,6.2331,6.248,6.2838,6.1493,6.1074,6.0984,6.0266,5.9608,5.9099,5.9099,5.9189,5.9518,6.0775,6.1194,6.1523,6.2778,6.3108,6.3108,6.3108,6.3108,6.3108,6.3108,6.3108,6.3108,6.3108,6.3108,6.3108,6.3108,6.3108,6.3108,6.3108,6.251,6.2091,6.2091,6.1523,6.1104,6.1016,6.0475,6.0084,6.0027,5.8231,5.7094,5.7094,5.5897,5.5179,5.5179,5.5149,5.4546,5.3228,5.3109,5.2426,5.1206,4.9942,4.9037,4.8416,4.7758,4.7928,4.0576,0.0,4.3958,4.328,4.2532,4.1605,0.0,3.8901,3.7823,3.7674,0.0,3.7973,3.9828,3.987,4.0887,0.0,0.0,0.0,0.0,0.0,0.0,0.0,0.0,0.0,0.0,0.0,0.0,0.0,0.0,0.0,0.0,0.0,0.0,0.0,6.8226,6.7537,6.7238,6.6071,6.5383,6.5233,6.4575,6.4156,0.0,0.0,0.0,0.0,0.0,0.0,0.0,6.3108,6.3108,6.3108,6.3108,6.2808,6.2301,6.2151,6.2181,6.2121,6.0805,6.0685,6.0896,5.9727,5.9219,5.9099,5.9099,5.9817,6.0715,6.1014,6.1852,6.2718,6.3018,6.3108,6.3108,6.3108,6.3108,6.3108,6.3108,6.3108,6.3108,6.3108,6.3108,6.3108,6.3108,6.3108,6.3108,6.3108,6.251,6.2091,6.2091,6.1523,6.0894,6.0386,6.0176,5.9877,5.9368,5.7962,5.7094,5.7094,5.5897,5.5179,5.5179,5.47,5.4042,5.3228,5.2187,5.1505,5.1206,5.0368,4.992,4.974,4.9105,4.8661,3.6956,3.8931,4.0756,4.0397,4.0098,3.966,3.902,3.7883,3.6985,3.6985,0.0,3.7926,3.9649,3.99,0.0,0.0,0.0,0.0,0.0,0.0,0.0,0.0,0.0,0.0,0.0,0.0,0.0,0.0,0.0,0.0,0.0,0.0,0.0,0.0,0.0,6.6101,6.6101,6.5084,6.4425,6.4126,6.3767,6.3588,0.0,0.0,0.0,0.0,0.0,0.0,6.3078,6.2778,6.2838,6.3048,6.2421,6.2151,6.2032,6.1403,6.1373,6.1463,6.0116,5.9877,6.0086,5.9338,5.9099,5.9159,5.9458,6.0296,6.1076,6.1076,6.1852,6.2718,6.3018,6.3108,6.3108,6.3108,6.3108,6.3108,6.3108,6.3108,6.3108,6.3108,6.3108,6.3108,6.3108,6.3108,6.3108,6.3108,6.2808,6.254,6.254,6.2241,6.1762,6.1074,6.0745,6.0296,5.9608,5.8321,5.7423,5.7124,5.6192,5.5534,5.5209,5.485,5.4192,5.3228,5.1887,5.1206,5.1206,5.0548,5.0196,5.0196,4.9583,4.9097,3.5759,3.8452,4.1134,4.0625,4.0146,3.9619,3.8943,3.7524,3.6344,3.6344,0.0,3.7836,3.9302,4.0187,0.0,0.0,0.0,0.0,0.0,0.0,0.0,0.0,0.0,0.0,0.0,0.0,0.0,0.0,0.0,0.0,0.0,0.0,0.0,0.0,6.5622,0.0,6.4845,6.4186,6.3588,6.3108,6.3108,6.3108,6.3108,0.0,0.0,0.0,0.0,0.0,6.3048,6.2361,6.2421,6.2838,6.1583,6.1373,6.1642,6.0505,6.0446,6.0775,5.9668,5.9189,5.9129,5.9219,5.9189,5.9249,6.0027,6.0655,6.1106,6.1196,6.1732,6.2361,6.2958,6.3108,6.3108,6.3108,6.3108,6.3108,6.3108,6.3108,6.3108,6.3108,6.3108,6.3108,6.3108,6.3108,6.3108,6.3108,6.3108,6.3108,6.3108,6.3108,6.2808,6.2032,6.1433,6.0805,5.9997,5.8919,5.7905,5.7154,5.6551,5.5863,5.5059,5.494,5.4311,5.3079,5.1828,5.1206,5.1206,5.0637,5.0345,5.0338,4.9823,4.9546,3.6836,3.8781,3.9888,3.7105,3.6746,3.6926,3.6267,3.5878,3.5639,3.5639,0.0,0.0,0.0,4.1254,0.0,0.0,0.0,0.0,0.0,0.0,0.0,0.0,0.0,0.0,0.0,0.0,0.0,0.0,0.0,0.0,0.0,0.0,0.0,0.0,0.0,6.4156,6.4156,6.3528,6.3197,6.3108,6.3108,6.3108,6.3108,6.3108,0.0,0.0,0.0,0.0,6.3048,6.2361,6.2151,6.2181,6.1403,6.0835,6.0356,6.0204,6.0174,6.0206,5.9997,5.9578,5.9189,5.9757,5.9548,5.9338,6.0565,6.1044,6.1224,6.1792,6.2421,6.2988,6.3078,6.3108,6.3108,6.3108,6.3108,6.3108,6.3108,6.3108,6.3108,6.3108,6.3108,6.3108,6.3108,6.3108,6.3108,6.3108,6.3108,6.3108,6.3108,6.3108,6.2629,6.1403,6.1136,6.0595,5.9368,5.9069,5.8411,5.7184,5.6551,5.5653,5.4401,5.3803,5.3144,5.2366,5.1594,5.1206,5.1206,5.1086,5.1056,5.1026,5.0936,5.0607,3.6207,3.7315,3.811,3.7255,3.838,3.9427,3.8392,3.7883,3.7597,3.7597,0.0,0.0,0.0,0.0,0.0,0.0,0.0,0.0,0.0,0.0,0.0,0.0,0.0,0.0,0.0,0.0,0.0,0.0,0.0,0.0,0.0,0.0,0.0,0.0,0.0,0.0,6.3527,6.3257,6.3108,6.3108,6.3108,6.3108,6.3108,6.3108,6.3108,0.0,0.0,6.3108,6.3048,6.2361,6.2091,6.2002,6.0954,6.0356,6.0084,5.9668,5.9548,5.9548,5.9548,5.9368,5.9159,5.9458,5.9608,5.9817,6.0805,6.1373,6.1792,6.245,6.2868,6.3108,6.3108,6.3108,6.3108,6.3108,6.3108,6.3108,6.3108,6.3108,6.3108,6.3108,6.3108,6.3108,6.3108,6.3108,6.3108,6.3108,6.3108,6.3108,6.3108,6.3108,6.2599,6.1253,6.1076,6.0565,5.9219,5.9099,5.853,5.7184,5.6192,5.5359,5.476,5.4102,5.3593,5.3294,5.2276,5.1738,5.1738,5.1355,5.1206,5.1206,5.1206,5.1026,3.5862,3.6417,3.7182,3.817,3.9817,4.1194,4.1115,4.0576,4.0247,0.0,0.0,0.0,0.0,0.0,0.0,0.0,0.0,0.0,0.0,0.0,0.0,0.0,0.0,0.0,0.0,0.0,0.0,0.0,0.0,0.0,0.0,0.0,0.0,0.0,0.0,0.0,6.3108,6.3108,6.3108,6.3108,6.3108,6.3108,6.3108,6.3108,6.3108,6.3108,6.3108,6.3108,6.3048,6.2361,6.2002,6.1762,6.0565,5.9997,5.9787,5.9279,5.9099,5.9099,5.9099,5.9099,5.9159,5.9488,5.9817,6.0236,6.1074,6.1702,6.2211,6.272,6.2988,6.3108,6.3108,6.3108,6.3108,6.3108,6.3108,6.3108,6.3108,6.3108,6.3108,6.3108,6.3108,6.3108,6.3108,6.3108,6.3108,6.3108,6.3108,6.3108,6.3108,6.3108,6.2599,6.1253,6.1076,6.0565,5.9219,5.8949,5.8441,5.7393,5.6137,5.5418,5.5418,5.464,5.4221,5.4221,5.3025,5.2366,5.2187,5.1858,5.1588,5.1415,5.1415,5.1415,3.6956,3.7764,3.829,3.838,3.8093,3.8721,4.2293,4.2611,0.0,4.4496,0.0,0.0,0.0,0.0,0.0,0.0,0.0,0.0,0.0,0.0,0.0,0.0,0.0,0.0,0.0,0.0,0.0,0.0,0.0,0.0,0.0,0.0,0.0,0.0,0.0,0.0,6.3108,6.3108,6.3108,6.3108,6.3108,6.3108,6.3108,6.3108,6.3108,6.3108,6.3108,6.3108,6.3048,6.2361,6.1732,6.1104,6.0386,5.9727,5.9159,5.9129,5.9099,5.9099,5.9099,5.9099,5.9308,6.0565,6.0565,6.0326,6.1642,6.2061,6.2121,6.2151,6.26,6.3108,6.3108,6.3108,6.3108,6.3108,6.3108,6.3108,6.3108,6.3108,6.3108,6.3108,6.3108,6.3108,6.3108,6.3108,6.3108,6.3108,6.3108,6.3108,6.3108,6.3108,6.2599,6.1253,6.1076,6.0565,5.9219,5.8504,5.8115,5.8025,5.6825,5.6132,5.6132,5.488,5.4221,5.4221,5.3473,5.2815,5.2187,5.2779,5.2725,5.2127,5.2127,5.2127,3.6088,3.7285,3.8619,3.9439,4.0086,4.1224,4.3928,4.5334,4.6612,4.8566,5.0182,0.0,0.0,0.0,0.0,0.0,0.0,0.0,0.0,0.0,0.0,0.0,0.0,0.0,0.0,0.0,0.0,0.0,0.0,0.0,0.0,0.0,0.0,0.0,0.0,0.0,0.0,6.3108,6.2898,6.248,6.2898,6.3108,6.3108,6.3108,6.3108,6.3108,6.3108,6.2868,6.248,6.2659,6.185,6.0416,5.9727,5.9308,5.9099,5.9099,5.9099,5.9159,5.9578,5.9458,5.9338,6.0657,6.0954,6.0835,6.1313,6.2061,6.263,6.2211,6.257,6.3108,6.3108,6.3108,6.3108,6.3108,6.3108,6.3108,6.3108,6.3108,6.3108,6.3108,6.3108,6.3108,6.3108,6.3108,6.3108,6.3108,6.3108,6.3108,6.3108,6.3108,6.2748,6.1822,6.0984,6.0086,5.9189,5.889,5.8713,5.8713,5.715,5.6192,5.6192,5.5299,5.482,5.482,5.4162,5.3713,5.3443,5.3288,5.3079,5.2785,5.2396,5.2426,3.5519,3.6626,3.811,3.9439,4.1104,4.3309,4.6681,4.8536,5.0331,5.3114,5.4132,0.0,0.0,0.0,0.0,0.0,0.0,0.0,0.0,0.0,0.0,0.0,0.0,0.0,0.0,0.0,0.0,0.0,0.0,0.0,0.0,0.0,0.0,0.0,0.0,0.0,0.0,6.2898,6.254,6.2091,6.2331,6.2599,6.2808,6.3018,6.3108,6.3108,6.2898,6.251,6.2121,6.2361,6.1523,6.0027,5.9368,5.9099,5.9099,5.9099,5.9099,5.9159,5.9608,5.9488,5.9308,6.0416,6.0775,6.0775,6.0775,6.1583,6.2361,6.1912,6.2271,6.2838,6.3048,6.3108,6.3108,6.3108,6.3108,6.3108,6.3108,6.3108,6.3108,6.3108,6.3108,6.3108,6.3108,6.3108,6.3108,6.3108,6.3108,6.3108,6.3108,6.3108,6.2838,6.2181,6.0894,5.9907,5.9458,5.9219,5.9099,5.9099,5.7453,5.6492,5.6492,5.5683,5.5179,5.5179,5.476,5.4431,5.4221,5.3952,5.3737,5.3503,5.3054,5.2965,3.5519,3.5998,3.6823,3.811,0.0,0.0,5.072,5.2217,5.3533,5.8171,5.7064,5.5837,0.0,0.0,0.0,0.0,0.0,0.0,0.0,0.0,0.0,0.0,0.0,0.0,0.0,0.0,0.0,0.0,0.0,0.0,0.0,0.0,0.0,0.0,0.0,0.0,0.0,6.2421,6.2091,6.2061,6.1433,6.1463,6.2121,6.2778,6.3078,6.3048,6.2361,6.2091,6.2032,6.1373,6.0685,6.0027,5.9368,5.9099,5.9099,5.9099,5.9099,5.9099,5.9129,5.9099,5.9219,5.9877,6.0114,6.0114,6.0114,6.0565,6.1076,6.1076,6.1583,6.2241,6.2928,6.3108,6.3108,6.3108,6.3108,6.3108,6.3108,6.3108,6.3108,6.3108,6.3108,6.3108,6.3108,6.3108,6.3108,6.3108,6.3108,6.3108,6.3108,6.3108,6.2838,6.2181,6.0894,6.0114,6.0114,5.9488,5.9099,5.9099,5.7842,5.7094,5.7094,5.5867,5.5179,5.5179,5.5179,5.488,5.4221,5.488,5.485,5.4221,5.4221,5.3832,3.5519,3.6626,0.0,4.0056,0.0,0.0,0.0,5.3234,0.0,0.0,5.9847,5.8949,0.0,0.0,0.0,0.0,0.0,0.0,0.0,0.0,0.0,0.0,0.0,0.0,0.0,0.0,0.0,0.0,0.0,0.0,0.0,0.0,0.0,0.0,0.0,0.0,0.0,0.0,6.1164,6.0685,6.0984,6.1224,6.1403,6.1613,6.1702,6.1672,6.1493,6.1134,6.0625,5.9967,5.9847,6.0027,5.9368,5.9099,5.9099,5.9099,5.9099,5.9159,5.9638,5.9488,5.9308,6.0446,6.0475,6.0114,6.0114,6.0565,6.1076,6.1076,6.1583,6.2241,6.2928,6.3108,6.3108,6.3108,6.3108,6.3108,6.3108,6.3108,6.3108,6.3108,6.3108,6.3108,6.3108,6.3108,6.3108,6.3108,6.3108,6.3108,6.3108,6.3108,6.2838,6.2181,6.1313,6.0625,6.0116,5.9488,5.9099,5.9099,5.8264,5.7603,5.7124,5.5867,5.5179,5.5179,5.5179,5.5089,5.491,5.5089,5.5089,5.488,5.4431,5.4102,3.5818,3.7315,0.0,4.2271,4.6022,5.0242,5.4705,0.0,0.0,0.0,0.0,0.0,0.0,0.0,0.0,0.0,0.0,0.0,0.0,0.0,0.0,0.0,0.0,0.0,0.0,0.0,0.0,0.0,0.0,0.0,0.0,0.0,0.0,0.0,0.0,0.0,0.0,0.0,0.0,5.9697,6.0116,6.0326,6.0326,6.0864,6.1076,6.1076,6.0835,6.0326,5.9668,5.9279,5.9338,5.9668,5.9249,5.9099,5.9099,5.9099,5.9099,5.9159,5.9548,5.9428,5.9249,6.0057,6.0027,5.9697,5.9697,5.9997,6.0416,6.0954,6.1403,6.1912,6.2868,6.3108,6.3108,6.3108,6.3108,6.3108,6.3108,6.3108,6.3108,6.3108,6.3108,6.3108,6.3108,6.3108,6.3108,6.3108,6.3108,6.3108,6.3108,6.3108,6.2958,6.254,6.1912,6.1343,6.0924,6.0027,5.9488,5.9488,5.862,5.7905,5.7513,5.6256,5.5448,5.5234,5.5179,5.5179,5.5179,5.5179,5.5179,5.5179,5.479,5.4311,3.6464,3.8003,4.0378,4.4526,4.8304,0.0,5.7397,0.0,0.0,0.0,0.0,0.0,0.0,0.0,0.0,0.0,0.0,0.0,0.0,0.0,0.0,0.0,0.0,0.0,0.0,0.0,0.0,0.0,0.0,0.0,0.0,0.0,0.0,0.0,0.0,0.0,0.0,0.0,0.0,0.0,5.8919,5.8919,5.8949,6.0326,6.0896,6.0894,6.0206,5.9578,5.9009,5.9009,5.9009,5.9009,5.9069,5.9099,5.9099,5.9099,5.9099,5.9099,5.9099,5.9099,5.9099,5.9099,5.9099,5.9099,5.9099,5.9099,5.9398,6.0717,6.1076,6.1433,6.2748,6.3108,6.3108,6.3108,6.3108,6.3108,6.3108,6.3108,6.3108,6.3108,6.3108,6.3108,6.3108,6.3108,6.3108,6.3108,6.3108,6.3108,6.3108,6.3108,6.3108,6.3108,6.248,6.2091,6.2091,6.0864,6.0114,6.0114,5.8919,5.8145,5.8085,5.6885,5.5923,5.5299,5.5209,5.5179,5.5179,5.5179,5.5179,5.5179,5.5179,5.4491,3.7541,3.8691,0.0,4.6262,5.2456,5.8052,6.1283,6.2599,0.0,0.0,0.0,0.0,0.0,0.0,0.0,0.0,0.0,0.0,0.0,0.0,0.0,0.0,0.0,0.0,0.0,0.0,0.0,0.0,0.0,0.0,0.0,0.0,0.0,0.0,0.0,0.0,5.7752,5.7752,5.7663,0.0,5.7543,5.7543,5.7573,5.8919,5.9548,5.9488,5.883,5.8444,5.8324,5.8324,5.8324,5.8354,5.889,5.9099,5.9099,5.9099,5.9099,5.9099,5.9099,5.9099,5.9099,5.9099,5.9099,5.9099,5.9099,5.9099,5.9398,6.0717,6.1076,6.1433,6.2748,6.3108,6.3108,6.3108,6.3108,6.3108,6.3108,6.3108,6.3108,6.3108,6.3108,6.3108,6.3108,6.3108,6.3108,6.3108,6.3108,6.3108,6.3108,6.3108,6.3108,6.3108,6.248,6.2091,6.2091,6.0864,6.0114,6.0114,5.9338,5.865,5.8115,5.6885,5.6132,5.5983,5.5474,5.5179,5.5179,5.5179,5.5179,5.5179,5.5179,5.476,3.796,0.0,0.0,5.0354,0.0,6.0116,6.2151,6.2868,0.0,0.0,0.0,0.0,0.0,0.0,0.0,0.0,0.0,0.0,0.0,0.0,0.0,0.0,0.0,0.0,0.0,0.0,0.0,0.0,0.0,0.0,0.0,0.0,0.0,0.0,0.0,0.0,5.6701,5.6944,5.6944,5.6671,5.6944,5.7094,5.7124,5.7812,5.8141,5.8112,5.7782,5.7633,5.7633,5.7633,5.7633,5.7693,5.8381,5.8623,5.8653,5.8979,5.9099,5.9099,5.9099,5.9099,5.9099,5.9099,5.9099,5.9099,5.9099,5.9308,5.9787,6.0835,6.1343,6.1822,6.2838,6.3108,6.3108,6.3108,6.3108,6.3108,6.3108,6.3108,6.3108,6.3108,6.3108,6.3108,6.3108,6.3108,6.3108,6.3108,6.3108,6.3108,6.3108,6.3108,6.3108,6.3108,6.2808,6.2599,6.2599,6.1343,6.0565,6.0565,5.9668,5.8949,5.859,5.7633,5.6825,5.6222,5.5863,5.5534,5.5179,5.5179,5.5179,5.5179,5.5179,5.485,3.802,4.1713,4.692,5.4216,5.7988,0.0,6.1613,6.245,0.0,0.0,0.0,0.0,0.0,0.0,0.0,0.0,0.0,0.0,0.0,0.0,0.0,0.0,0.0,0.0,0.0,0.0,0.0,0.0,0.0,0.0,0.0,0.0,0.0,0.0,0.0,5.6406,5.5683,5.6286,5.6286,5.5683,5.6192,5.6406,5.6406,5.6555,5.6765,5.7094,5.6974,5.6944,5.6944,5.6944,5.6944,5.7004,5.7693,5.7905,5.7995,5.868,5.8949,5.8949,5.9069,5.9099,5.9099,5.9099,5.9099,5.9099,5.9099,5.9488,6.0086,6.0894,6.1493,6.2121,6.2898,6.3108,6.3108,6.3108,6.3108,6.3108,6.3108,6.3108,6.3108,6.3108,6.3108,6.3108,6.3108,6.3108,6.3108,6.3108,6.3108,6.3108,6.3108,6.3108,6.3108,6.3108,6.3108,6.3108,6.3108,6.1882,6.1076,6.1076,5.9847,5.9099,5.9099,5.859,5.7723,5.6551,5.6312,5.5983,5.5508,5.5299,5.5239,5.5359,5.5239,5.491,3.7901,4.3409,4.9696,0.0,5.7304,5.9578,0.0,0.0,0.0,0.0,0.0,0.0,0.0,0.0,0.0,0.0,0.0,0.0,0.0,0.0,0.0,0.0,0.0,0.0,0.0,0.0,0.0,0.0,0.0,0.0,0.0,0.0,5.6042,5.5448,5.5448,0.0,5.3618,5.4251,5.4251,5.3588,5.3677,5.3737,5.3737,5.4311,5.5508,5.7064,5.6551,5.6312,5.6312,5.6312,5.6312,5.6372,5.6974,5.7244,5.7304,5.7965,5.8234,5.8324,5.8919,5.9099,5.9099,5.9099,5.9099,5.9099,5.9099,5.9159,5.9488,6.0775,6.1136,6.1523,6.2778,6.3108,6.3108,6.3108,6.3108,6.3108,6.3108,6.3108,6.3108,6.3108,6.3108,6.3108,6.3108,6.3108,6.3108,6.3108,6.3108,6.3108,6.3108,6.3108,6.3108,6.3108,6.3108,6.3108,6.3108,6.1882,6.1076,6.1076,5.9847,5.9099,5.9099,5.9009,5.862,5.7846,5.6761,5.6402,5.6825,5.5718,5.5504,5.6042,5.5448,5.5149,4.0696,4.4317,4.8289,5.3354,5.5777,5.7453,5.9518,0.0,0.0,0.0,0.0,0.0,0.0,0.0,0.0,0.0,0.0,0.0,0.0,0.0,0.0,0.0,0.0,0.0,0.0,0.0,0.0,0.0,0.0,0.0,0.0,5.5628,5.494,5.464,5.4306,0.0,5.3198,5.3473,5.3473,5.3198,5.3198,5.3198,5.3228,5.3528,5.4102,5.4965,5.5444,5.5444,5.5089,5.5478,5.5653,5.5713,5.6342,5.6611,5.6671,5.7304,5.7543,5.7573,5.7872,5.8231,5.8534,5.8534,5.8773,5.9099,5.9099,5.9638,6.0328,6.0926,6.1642,6.2361,6.2958,6.3108,6.3108,6.3108,6.3108,6.3108,6.3108,6.3108,6.3108,6.3108,6.3108,6.3108,6.3108,6.3108,6.3108,6.3108,6.3108,6.3108,6.3108,6.3108,6.3108,6.3108,6.3108,6.3108,6.3108,6.1882,6.1076,6.1076,5.9847,5.9099,5.9099,5.9099,5.8979,5.868,5.7752,5.7214,5.7094,5.6526,5.6406,5.6701,5.6072,5.5773,4.1624,4.3658,4.5813,5.1139,5.3443,5.5089,0.0,0.0,0.0,0.0,0.0,0.0,0.0,0.0,0.0,0.0,0.0,0.0,0.0,0.0,0.0,0.0,0.0,0.0,0.0,0.0,0.0,0.0,0.0,0.0,5.5683,5.4431,5.3713,5.3713,5.3204,5.2785,5.2426,5.2426,5.2516,5.2665,5.2665,5.2665,5.2695,5.2869,5.2869,5.2755,5.4102,5.4491,5.4251,5.473,5.5029,5.5239,5.5743,5.5953,5.6013,5.6641,5.6855,5.6915,5.7244,5.7693,5.8115,5.8294,5.871,5.9099,5.9099,5.9937,6.0894,6.1046,6.1942,6.2898,6.3048,6.3108,6.3108,6.3108,6.3108,6.3108,6.3108,6.3108,6.3108,6.3108,6.3108,6.3108,6.3108,6.3108,6.3108,6.3108,6.3108,6.3108,6.3108,6.3108,6.3108,6.3108,6.3108,6.3108,6.3108,6.2032,6.1373,6.1373,6.0266,5.9608,5.9608,5.9608,5.9548,5.9368,5.886,5.8291,5.7603,5.7274,5.7184,5.7334,5.6731,5.6342,3.8123,4.0595,4.3369,4.68,5.0032,5.2905,0.0,0.0,0.0,0.0,0.0,0.0,0.0,0.0,0.0,0.0,0.0,0.0,0.0,0.0,0.0,0.0,0.0,0.0,0.0,0.0,0.0,0.0,0.0,0.0,5.4311,5.3025,5.2306,5.2306,5.2276,5.1648,5.0368,5.0368,5.0697,5.1295,5.1295,5.1295,5.1325,5.1977,5.1917,5.1355,5.2725,5.3623,5.4221,5.4251,5.464,5.5179,5.5239,5.5239,5.5329,5.6013,5.6252,5.6432,5.7633,5.8055,5.8205,5.886,5.9069,5.9099,5.9099,5.9578,6.0266,6.0924,6.1613,6.2301,6.2928,6.3108,6.3108,6.3108,6.3108,6.3108,6.3108,6.3108,6.3108,6.3108,6.3108,6.3108,6.3108,6.3108,6.3108,6.3108,6.3108,6.3108,6.3108,6.3108,6.3108,6.3108,6.3108,6.3108,6.3108,6.245,6.2061,6.2061,6.1403,6.1014,6.1014,6.1014,6.0715,6.0057,5.9997,5.9668,5.9009,5.7723,5.7423,5.8025,5.7363,5.6761,0.0,3.9098,4.0636,4.4061,4.6063,4.7748,4.986,0.0,0.0,0.0,0.0,0.0,0.0,0.0,0.0,0.0,0.0,0.0,0.0,0.0,0.0,0.0,0.0,0.0,0.0,0.0,0.0,0.0,0.0,0.0,5.3563,5.2306,5.1535,5.1535,5.075,5.0115,4.9613,4.9613,4.9733,4.9995,5.0368,5.0578,5.0578,5.1236,5.1415,5.1236,5.1708,5.2306,5.2965,5.3384,5.3952,5.4551,5.4551,5.482,5.5209,5.5448,5.5564,5.5683,5.6555,5.7124,5.7573,5.8234,5.877,5.9099,5.9099,5.9877,6.0805,6.1016,6.1882,6.2808,6.3048,6.3108,6.3108,6.3108,6.3108,6.3108,6.3108,6.3108,6.3108,6.3108,6.3108,6.3108,6.3108,6.3108,6.3108,6.3108,6.3108,6.3108,6.3108,6.3108,6.3108,6.3108,6.3108,6.3108,6.3108,6.248,6.2091,6.2091,6.1493,6.1076,6.1076,6.1076,6.1014,6.0745,6.0326,5.9757,5.9099,5.862,5.8501,5.874,5.8025,5.7633,3.7075,0.0,0.0,0.0,4.271,4.3799,4.608,0.0,0.0,0.0,0.0,0.0,0.0,0.0,0.0,0.0,0.0,0.0,0.0,0.0,0.0,0.0,0.0,0.0,0.0,0.0,0.0,0.0,0.0,0.0,5.2546,5.1475,5.0757,5.0571,4.9516,4.9067,4.9277,4.9067,4.9187,4.9613,5.0009,5.0338,5.0548,5.0996,5.1206,5.1206,5.1206,5.1588,5.2247,5.2665,5.3384,5.4221,5.4221,5.461,5.5179,5.5179,5.5179,5.5299,5.5983,5.6611,5.7214,5.7876,5.8534,5.9129,5.9368,6.0206,6.1136,6.1373,6.2241,6.3108,6.3108,6.3108,6.3108,6.3108,6.3108,6.3108,6.3108,6.3108,6.3108,6.3108,6.3108,6.3108,6.3108,6.3108,6.3108,6.3108,6.3108,6.3108,6.3108,6.3108,6.3108,6.3108,6.3108,6.3108,6.3108,6.2689,6.2421,6.2421,6.2002,6.1762,6.1762,6.1762,6.1672,6.1433,6.0984,6.0326,5.9428,5.9219,5.9099,5.9099,5.865,5.8324,0.0,0.0,0.0,0.0,0.0,0.0,0.0,0.0,0.0,0.0,0.0,0.0,0.0,0.0,0.0,0.0,0.0,0.0,0.0,0.0,0.0,0.0,0.0,0.0,0.0,0.0,0.0,0.0,0.0,5.1828,5.1176,5.0518,4.986,4.9247,4.8618,4.8588,4.9217,4.8588,4.8895,5.0106,5.0136,5.0518,5.1146,5.1176,5.1206,5.1206,5.1206,5.1565,5.2187,5.2187,5.2965,5.4192,5.4192,5.4581,5.5179,5.5179,5.5179,5.5299,5.5983,5.6611,5.7214,5.7905,5.8563,5.9219,5.9877,6.0565,6.1253,6.1912,6.257,6.3108,6.3108,6.3108,6.3108,6.3108,6.3108,6.3108,6.3108,6.3108,6.3108,6.3108,6.3108,6.3108,6.3108,6.3108,6.3108,6.3108,6.3108,6.3108,6.3108,6.3108,6.3108,6.3108,6.3108,6.3108,6.3108,6.3108,6.3108,6.3108,6.3108,6.3108,6.3108,6.3108,6.278,6.2121,6.2061,6.1403,6.0114,5.9458,5.9129,5.9099,5.9099,5.877,3.5519,0.0,0.0,0.0,0.0,0.0,0.0,0.0,0.0,0.0,0.0,0.0,0.0,0.0,0.0,0.0,0.0,0.0,0.0,0.0,0.0,0.0,0.0,0.0,0.0,0.0,0.0,0.0,0.0,5.0025,4.9845,4.9194,4.8536,4.7878,4.7668,4.7668,4.7848,4.7668,4.7758,4.8095,4.9075,4.9666,4.9875,5.078,5.1206,5.1206,5.1206,5.1295,5.1498,5.1498,5.2276,5.3498,5.3498,5.4162,5.5179,5.5179,5.5179,5.5359,5.6466,5.6944,5.7274,5.8471,5.8949,5.9219,5.9877,6.0565,6.1253,6.1912,6.257,6.3108,6.3108,6.3108,6.3108,6.3108,6.3108,6.3108,6.3108,6.3108,6.3108,6.3108,6.3108,6.3108,6.3108,6.3108,6.3108,6.3108,6.3108,6.3108,6.3108,6.3108,6.3108,6.3108,6.3108,6.3108,6.3108,6.3108,6.3108,6.3108,6.3108,6.3108,6.3108,6.3108,6.278,6.2121,6.1613,6.0954,6.0114,5.9907,5.9578,5.9099,5.9099,5.9009,0.0,0.0,0.0,0.0,0.0,0.0,0.0,3.4653,0.0,0.0,0.0,0.0,0.0,0.0,0.0,0.0,0.0,0.0,0.0,0.0,0.0,0.0,0.0,0.0,0.0,0.0,0.0,0.0,4.9516,4.9157,4.8887,4.8259,4.7698,4.7309,4.7309,4.7309,4.7309,4.7309,4.7429,4.7728,4.8528,4.9157,4.9673,5.0182,5.0541,5.0787,5.0787,5.0787,5.0817,5.1086,5.2007,5.3198,5.3198,5.4037,5.5179,5.5179,5.5179,5.5329,5.6372,5.6885,5.7274,5.8351,5.889,5.9279,6.0236,6.0805,6.1313,6.2241,6.2808,6.3108,6.3108,6.3108,6.3108,6.3108,6.3108,6.3108,6.3108,6.3108,6.3108,6.3108,6.3108,6.3108,6.3108,6.3108,6.3108,6.3108,6.3108,6.3108,6.3108,6.3108,6.3108,6.3108,6.3108,6.3108,6.3108,6.3108,6.3108,6.3108,6.3108,6.3108,6.3108,6.3108,6.2928,6.251,6.1852,6.1044,6.0114,5.9817,5.9488,5.9099,5.9099,5.9099,0.0,0.0,0.0,0.0,0.0,0.0,3.3844,3.3391,3.352,0.0,0.0,0.0,0.0,0.0,0.0,0.0,0.0,0.0,0.0,0.0,0.0,0.0,0.0,0.0,0.0,0.0,0.0,4.9067,4.9127,4.8828,4.8207,4.7608,4.7309,4.7309,4.7309,4.7309,4.7309,4.7309,4.7608,4.8199,4.8259,4.8895,4.9956,4.9516,4.9583,5.0099,5.0166,5.0196,5.0255,5.0936,5.1947,5.3109,5.3169,5.3977,5.5089,5.5149,5.5179,5.5299,5.6042,5.6671,5.7214,5.7965,5.8593,5.9338,6.0595,6.1016,6.1373,6.272,6.3108,6.3108,6.3108,6.3108,6.3108,6.3108,6.3108,6.3108,6.3108,6.3108,6.3108,6.3108,6.3108,6.3108,6.3108,6.3108,6.3108,6.3108,6.3108,6.3108,6.3108,6.3108,6.3108,6.3108,6.3108,6.3108,6.3108,6.3108,6.3108,6.3108,6.3108,6.3108,6.3108,6.3108,6.3078,6.2988,6.2331,6.1373,6.0114,5.9428,5.9099,5.9099,5.9099,5.9099,0.0,0.0,0.0,0.0,0.0,0.0,3.2942,3.2817,3.342,0.0,0.0,0.0,0.0,0.0,0.0,0.0,0.0,0.0,0.0,0.0,0.0,0.0,0.0,0.0,0.0,0.0,4.7118,4.841,4.7997,4.7638,4.7489,4.7369,4.7309,4.7309,4.7309,4.7309,4.7309,4.7309,4.7369,4.7489,4.8027,4.8416,4.8686,4.9097,4.9366,4.9516,4.9979,5.0196,5.0255,5.0936,5.1678,5.2456,5.2989,5.3683,5.4461,5.4999,5.5179,5.5359,5.6526,5.7004,5.7304,5.853,5.9009,5.9249,6.0057,6.0685,6.1373,6.272,6.3108,6.3108,6.3108,6.3108,6.3108,6.3108,6.3108,6.3108,6.3108,6.3108,6.3108,6.3108,6.3108,6.3108,6.3108,6.3108,6.3108,6.3108,6.3108,6.3108,6.3108,6.3108,6.3108,6.3108,6.3108,6.3108,6.3108,6.3108,6.3108,6.3108,6.3108,6.3108,6.3108,6.3108,6.2868,6.2301,6.1642,6.0894,6.0114,5.9428,5.9099,5.9099,5.9099,5.9099,0.0,0.0,0.0,3.4819,0.0,0.0,0.0,3.1838,3.2164,0.0,0.0,0.0,0.0,0.0,0.0,0.0,0.0,0.0,0.0,0.0,0.0,0.0,0.0,0.0,0.0,0.0,4.6081,4.767,4.7489,4.7309,4.7309,4.7309,4.7309,4.7309,4.7309,4.7309,4.7309,4.7309,4.7309,4.7309,4.7638,4.7967,4.8319,4.8319,4.8498,4.8828,4.9464,4.9763,4.9823,5.0787,5.1385,5.1798,5.2785,5.3593,5.4281,5.494,5.5179,5.5253,5.5417,5.571,5.6124,5.7177,5.7678,5.8033,5.8707,5.9588,6.079,6.2578,6.3108,6.3108,6.3108,6.3108,6.3108,6.3108,6.3108,6.3108,6.3108,6.3108,6.3108,6.3108,6.3108,6.3108,6.3108,6.3108,6.3108,6.3108,6.3108,6.3108,6.3108,6.3108,6.3108,6.3108,6.3108,6.3108,6.3108,6.3108,6.3108,6.3108,6.3108,6.3108,6.3108,6.3108,6.278,6.2121,6.1762,6.1104,6.0114,5.9757,5.9428,5.9099,5.9099,5.9099,0.0,0.0,0.0,0.0,0.0,3.3825,0.0,0.0,0.0,3.1964,0.0,0.0,0.0,0.0,0.0,0.0,0.0,0.0,0.0,0.0,0.0,0.0,0.0,0.0,0.0,0.0,4.4865,4.6774,4.6599,4.6637,4.7078,4.713,4.7189,4.7309,4.7309,4.7309,4.7309,4.7309,4.7309,4.7309,4.7309,4.7578,4.8087,4.7549,4.7608,4.8169,4.8947,4.9141,4.9004,5.0258,5.0793,5.0965,5.2154,5.3015,5.3649,5.4044,5.4446,5.4649,5.3761,5.407,5.4868,5.5276,5.5991,5.6936,5.803,5.89,5.9972,6.2405,6.2846,6.2672,6.2991,6.3108,6.3108,6.3108,6.3108,6.3108,6.3108,6.3108,6.3108,6.3108,6.3108,6.3108,6.3108,6.3108,6.3108,6.3108,6.3108,6.3108,6.3108,6.3108,6.3108,6.3108,6.3108,6.3108,6.3108,6.3108,6.3108,6.3108,6.3108,6.3108,6.3108,6.3108,6.2868,6.2301,6.2271,6.1613,6.0266,6.0266,5.9877,5.9099,5.9099,5.9099,0.0,0.0,0.0,0.0,3.5399,0.0,0.0,0.0,3.3699,3.1863,0.0,0.0,0.0,0.0,0.0,0.0,0.0,0.0,0.0,0.0,0.0,0.0,0.0,0.0,0.0,0.0,0.0,4.5371,4.4103,4.4153,4.6318,4.642,4.6689,4.7279,4.7309,4.7309,4.7309,4.7309,4.7309,4.7309,4.7309,4.7339,4.7429,4.7339,4.7339,4.7489,4.8738,4.8581,4.7541,4.8861,4.9431,4.9493,5.0242,5.0886,5.1289,5.0711,5.1649,5.3129,5.2238,5.3217,5.4702,5.4004,5.5081,5.7193,5.9923,5.9739,5.9247,6.2257,6.1998,6.1169,6.2701,6.3108,6.3108,6.3108,6.3108,6.3108,6.3108,6.3108,6.3108,6.3108,6.3108,6.3108,6.3108,6.3108,6.3108,6.3108,6.3108,6.3108,6.3108,6.3108,6.3108,6.3108,6.3108,6.3108,6.3108,6.3108,6.3108,6.3108,6.3108,6.3108,6.3108,6.3108,6.3078,6.2988,6.2988,6.2331,6.1014,6.1014,6.0356,5.9099,5.9099,5.9099,0.0,0.0,0.0,0.0,0.0,0.0,0.0,0.0,3.3093,0.0,0.0,0.0,0.0,0.0,0.0,0.0,0.0,0.0,0.0,0.0,0.0,0.0,0.0,0.0,0.0,0.0,0.0,0.0,0.0,4.3237,4.3734,4.4626,4.5613,4.6689,4.6719,4.6899,4.7309,4.6572,4.6572,4.7287,4.655,4.6211,4.6211,4.6975,4.6909,4.6247,4.7535,4.7736,4.7233,4.778,4.7959,4.7968,4.7786,4.905,5.0946,5.0537,5.0903,5.1539,5.0612,5.1122,5.2182,5.2515,5.3459,5.4901,5.7496,5.7316,5.6783,5.9401,6.0327,6.0661,6.1407,6.2321,6.3108,6.3108,6.3108,6.3108,6.3108,6.3108,6.3108,6.3108,6.3108,6.3108,6.3108,6.3108,6.3108,6.3108,6.3108,6.3108,6.3108,6.3108,6.3108,6.3108,6.3108,6.3108,6.3108,6.3108,6.3108,6.3108,6.3108,6.3108,6.3108,6.3108,6.3108,6.3108,6.3108,6.263,6.1672,6.1672,6.1194,6.0236,5.9458,5.9099,3.5346,0.0,0.0,0.0,0.0,0.0,0.0,0.0,0.0,0.0,0.0,0.0,0.0,0.0,0.0,0.0,0.0,0.0,0.0,0.0,0.0,0.0,0.0,0.0,0.0,0.0,0.0,0.0,4.1067,0.0,4.1768,4.305,4.4407,4.5702,4.6121,4.654,4.7018,4.6278,4.6366,4.7287,4.6003,4.5389,4.5411,4.6344,4.6277,4.5475,4.6695,4.6976,4.6607,4.6546,4.65,4.6451,4.5811,4.7298,4.9772,4.9417,4.9628,4.9958,4.9018,4.9191,5.0059,5.1523,5.2358,5.3222,5.5525,5.5438,5.5037,5.7336,5.8884,5.9933,6.0389,6.1762,6.3108,6.3108,6.3108,6.3108,6.3108,6.3108,6.3108,6.3108,6.3108,6.3108,6.3108,6.3108,6.3108,6.3108,6.3108,6.3108,6.3108,6.3108,6.3108,6.3108,6.3108,6.3108,6.3108,6.3108,6.3108,6.3108,6.3108,6.3108,6.3108,6.3108,6.3108,6.3108,6.3108,6.2778,6.2091,6.2091,6.1762,6.1104,6.0116,5.9548,0.0,0.0,0.0,0.0,0.0,0.0,0.0,0.0,3.4327,0.0,0.0,0.0,0.0,0.0,0.0,0.0,0.0,0.0,0.0,0.0,0.0,0.0,0.0,0.0,0.0,0.0,0.0,0.0,3.8676,0.0,4.1249,4.2092,4.305,4.4326,4.5613,4.63,4.633,4.6937,4.7266,4.7287,4.6003,4.5389,4.5389,4.5434,4.5434,4.5475,4.6695,4.6449,4.5158,4.5101,4.5075,4.5019,4.4744,4.5548,4.6731,4.5948,4.6894,4.8437,4.751,4.7894,4.9191,5.1309,5.2358,5.3222,5.5525,5.5434,5.4967,5.7332,5.8036,5.8477,6.0085,6.1762,6.3108,6.3108,6.3108,6.3108,6.3108,6.3108,6.3108,6.3108,6.3108,6.3108,6.3108,6.3108,6.3108,6.3108,6.3108,6.3108,6.3108,6.3108,6.3108,6.3108,6.3108,6.3108,6.3108,6.3108,6.3108,6.3108,6.3108,6.3108,6.3108,6.3108,6.3108,6.3108,6.3108,6.2778,6.2091,6.2091,6.1762,6.1076,6.1074,6.0685,0.0,0.0,3.6508,3.4828,0.0,0.0,0.0,0.0,0.0,0.0,0.0,0.0,0.0,0.0,0.0,0.0,0.0,0.0,0.0,0.0,0.0,0.0,0.0,0.0,0.0,0.0,0.0,3.6582,3.694,3.7376,0.0,3.9892,4.1673,4.299,4.4736,4.5852,4.63,4.5303,4.5207,4.6032,4.3905,4.2882,4.2906,4.3764,4.3891,4.346,4.4226,4.4518,4.4408,4.3871,4.3889,4.4214,4.449,4.5135,4.5923,4.6002,4.6681,4.7626,4.8069,4.8711,4.9485,5.0594,5.1349,5.2009,5.3139,5.3469,5.3614,5.4407,5.5413,5.6666,5.8387,6.0085,6.1674,6.2846,6.3108,6.3108,6.3108,6.3108,6.3108,6.3108,6.3108,6.3108,6.3108,6.3108,6.3108,6.3108,6.3108,6.3108,6.3108,6.3108,6.3108,6.3108,6.3108,6.3108,6.3108,6.3108,6.3108,6.3108,6.3108,6.3108,6.3108,6.3108,6.3108,6.3108,6.3108,6.2988,6.2778,6.2778,6.2659,6.2421,6.2421,6.1822,3.4754,3.5757,0.0,0.0,3.5554,0.0,0.0,0.0,0.0,0.0,0.0,0.0,0.0,0.0,0.0,0.0,0.0,0.0,0.0,0.0,0.0,0.0,0.0,0.0,0.0,0.0,3.645,3.5307,3.5822,3.6197,0.0,0.0,4.0546,4.1643,4.3828,4.5037,4.5266,4.4299,4.4101,4.4697,4.2593,4.1591,4.1616,4.2447,4.2648,4.2412,4.2966,4.3545,4.4045,4.329,4.3313,4.3865,4.4389,4.497,4.5573,4.6326,4.7048,4.7807,4.8567,4.917,4.969,5.0243,5.082,5.1398,5.195,5.2443,5.2895,5.2895,5.4122,5.5814,5.756,5.9228,6.093,6.2701,6.3108,6.3108,6.3108,6.3108,6.3108,6.3108,6.3108,6.3108,6.3108,6.3108,6.3108,6.3108,6.3108,6.3108,6.3108,6.3108,6.3108,6.3108,6.3108,6.3108,6.3108,6.3108,6.3108,6.3108,6.3108,6.3108,6.3108,6.3108,6.3437,6.4096,6.3467,6.3437,6.4126,6.3437,6.3108,6.3108,6.3108,6.2659]},{"header":{"parameterUnit":"m.s-1","parameterCategory":1,"la1":30.6,"la2":29.2853,"lo1":-89.7004,"lo2":-87.6739,"dy":0.0162,"dx":0.0183,"nx":112,"ny":82,"refTime":"2023-03-13T00:00:00:Z","depth":0,"parameterNumber":3,"parameterNumberName":"V-component_of_WINDS"},"data":[0.0,0.0,0.0,0.0,0.0,0.0,0.0,0.0,0.0,0.0,0.0,0.0,0.0,0.0,0.0,0.0,0.0,0.0,0.0,0.0,0.0,0.0,0.0,0.0,0.0,0.0,0.0,0.0,0.0,0.0,0.0,0.0,0.0,0.0,0.0,0.0,0.0,0.0,0.0,0.0,0.0,0.0,0.0,0.0,0.0,0.0,0.0,0.0,0.0,0.0,0.0,0.0,0.0,0.0,0.0,0.0,0.0,0.0,0.0,0.0,0.0,0.0,0.0,0.0,0.0,0.0,0.0,0.0,0.0,0.0,0.0,0.0,0.0,0.0,0.0,0.0,0.0,0.0,0.0,0.0,0.0,0.0,0.0,0.0,0.0,0.0,0.0,0.0,0.0,0.0,0.0,2.3688,2.7441,2.9461,2.8555,2.7578,2.5605,2.2306,0.0,0.0,0.0,0.0,0.0,0.0,0.0,0.0,0.0,0.0,0.0,0.0,0.0,0.0,0.0,0.0,0.0,0.0,0.0,0.0,0.0,0.0,0.0,0.0,0.0,0.0,0.0,0.0,0.0,0.0,0.0,0.0,0.0,0.0,0.0,0.0,0.0,0.0,0.0,0.0,0.0,0.0,0.0,0.0,0.0,0.0,0.0,0.0,0.0,0.0,0.0,0.0,0.0,0.0,0.0,0.0,0.0,0.0,0.0,0.0,0.0,0.0,0.0,0.0,0.0,0.0,0.0,0.0,0.0,0.0,0.0,0.0,0.0,0.0,0.0,0.0,0.0,0.0,0.0,0.0,0.0,0.0,0.0,0.0,0.0,0.0,0.0,0.0,0.0,0.0,0.0,0.0,0.0,0.0,0.0,0.0,0.0,0.0,0.0,0.0,0.0,0.0,0.0,0.0,2.2752,2.7051,2.9414,3.0361,2.9481,2.793,2.5859,2.3166,0.0,0.0,0.0,0.0,0.0,0.0,0.0,0.0,0.0,0.0,0.0,0.0,0.0,0.0,0.0,0.0,0.0,0.0,0.0,0.0,0.0,0.0,0.0,0.0,0.0,0.0,0.0,0.0,0.0,0.0,0.0,0.0,0.0,0.0,0.0,0.0,0.0,0.0,0.0,0.0,0.0,0.0,0.0,0.0,0.0,0.0,0.0,0.0,0.0,0.0,0.0,0.0,0.0,0.0,0.0,0.0,0.0,0.0,0.0,0.0,0.0,0.0,0.0,0.0,0.0,0.0,0.0,0.0,0.0,0.0,0.0,0.0,0.0,0.0,0.0,0.0,0.0,0.0,0.0,0.0,0.0,0.0,0.0,0.0,0.0,0.0,0.0,0.0,0.0,0.0,0.0,0.0,0.0,0.0,0.0,0.0,0.0,0.0,0.0,0.0,0.0,0.0,0.0,2.2576,2.4489,2.8582,3.0137,3.0556,2.9676,2.8008,2.6016,2.3675,2.1855,0.0,0.0,0.0,0.0,0.0,0.0,0.0,0.0,0.0,0.0,0.0,0.0,0.0,0.0,0.0,0.0,0.0,0.0,0.0,0.0,0.0,0.0,0.0,0.0,0.0,0.0,0.0,0.0,0.0,0.0,0.0,0.0,0.0,0.0,0.0,0.0,0.0,0.0,0.0,0.0,0.0,0.0,0.0,0.0,0.0,0.0,0.0,0.0,0.0,0.0,0.0,0.0,0.0,0.0,0.0,0.0,0.0,0.0,0.0,0.0,0.0,0.0,0.0,0.0,0.0,0.0,0.0,0.0,0.0,0.0,0.0,0.0,0.0,0.0,0.0,0.0,0.0,0.0,0.0,0.0,0.0,0.0,0.0,0.0,0.0,0.0,0.0,0.0,0.0,0.0,0.0,0.0,0.0,0.0,0.0,0.0,0.0,0.0,0.0,0.0,0.0,0.0,2.4684,2.623,2.9403,3.0458,3.0595,2.9813,2.7969,2.6035,2.4062,2.1837,0.0,0.0,0.0,0.0,0.0,0.0,0.0,0.0,0.0,0.0,0.0,0.0,0.0,0.0,0.0,0.0,0.0,0.0,0.0,0.0,0.0,0.0,0.0,0.0,0.0,0.0,0.0,0.0,0.0,0.0,0.0,0.0,0.0,0.0,0.0,0.0,0.0,0.0,0.0,0.0,0.0,0.0,0.0,0.0,0.0,0.0,0.0,0.0,0.0,0.0,0.0,0.0,0.0,0.0,0.0,0.0,0.0,0.0,0.0,0.0,0.0,0.0,0.0,0.0,0.0,0.0,0.0,0.0,0.0,0.0,0.0,0.0,0.0,0.0,0.0,0.0,0.0,0.0,0.0,0.0,0.0,0.0,0.0,0.0,0.0,0.0,0.0,0.0,0.0,0.0,0.0,0.0,0.0,0.0,0.0,0.0,0.0,0.0,0.0,0.0,0.0,0.0,2.5586,2.7695,2.9922,3.0586,3.0684,3.0195,2.7871,2.584,2.4453,2.1993,0.0,0.0,0.0,0.0,0.0,0.0,0.0,0.0,0.0,0.0,0.0,0.0,0.0,0.0,0.0,0.0,0.0,0.0,0.0,0.0,0.0,0.0,0.0,0.0,0.0,0.0,0.0,0.0,0.0,0.0,0.0,0.0,0.0,0.0,0.0,0.0,0.0,0.0,0.0,0.0,0.0,0.0,0.0,0.0,0.0,0.0,0.0,0.0,0.0,0.0,0.0,0.0,0.0,0.0,0.0,0.0,0.0,0.0,0.0,0.0,0.0,0.0,0.0,0.0,0.0,0.0,0.0,0.0,0.0,0.0,0.0,0.0,0.0,0.0,0.0,0.0,0.0,0.0,0.0,0.0,0.0,0.0,0.0,0.0,0.0,0.0,0.0,0.0,0.0,0.0,0.0,0.0,0.0,0.0,0.0,0.0,0.0,0.0,0.0,0.0,0.0,0.0,2.5547,2.7318,0.0,3.0781,3.0605,2.9891,2.7949,2.6069,2.4489,0.0,0.0,0.0,0.0,0.0,0.0,0.0,0.0,0.0,0.0,0.0,0.0,0.0,0.0,0.0,0.0,0.0,0.0,0.0,0.0,0.0,0.0,0.0,0.0,0.0,0.0,0.0,0.0,0.0,0.0,0.0,0.0,0.0,0.0,0.0,0.0,0.0,0.0,0.0,0.0,0.0,0.0,0.0,0.0,0.0,0.0,0.0,0.0,0.0,0.0,0.0,0.0,0.0,0.0,0.0,0.0,0.0,0.0,0.0,0.0,0.0,0.0,0.0,0.0,0.0,0.0,0.0,0.0,0.0,0.0,0.0,0.0,0.0,0.0,0.0,0.0,0.0,0.0,0.0,0.0,0.0,0.0,0.0,0.0,0.0,0.0,0.0,0.0,0.0,0.0,0.0,0.0,0.0,0.0,0.0,0.0,0.0,0.0,0.0,0.0,0.0,0.0,2.4672,2.582,2.7519,0.0,3.0898,3.0586,2.9852,2.7949,2.6191,2.4707,0.0,0.0,0.0,0.0,0.0,0.0,0.0,0.0,0.0,0.0,0.0,0.0,0.0,0.0,0.0,0.0,0.0,0.0,0.0,0.0,0.0,0.0,0.0,0.0,0.0,0.0,0.0,0.0,0.0,0.0,0.0,0.0,0.0,0.0,0.0,0.0,0.0,0.0,0.0,0.0,0.0,0.0,0.0,0.0,0.0,0.0,0.0,0.0,0.0,0.0,0.0,0.0,0.0,0.0,0.0,0.0,0.0,0.0,0.0,0.0,0.0,0.0,0.0,0.0,0.0,0.0,0.0,0.0,0.0,0.0,0.0,0.0,0.0,0.0,0.0,0.0,0.0,0.0,0.0,0.0,0.0,0.0,0.0,0.0,0.0,0.0,0.0,0.0,0.0,0.0,0.0,0.0,0.0,0.0,0.0,0.0,0.0,0.0,0.0,0.0,0.0,0.0,2.4828,2.6607,2.8523,3.0664,3.0898,3.0703,3.0263,2.7878,2.604,0.0,0.0,0.0,0.0,0.0,0.0,0.0,0.0,0.0,0.0,0.0,0.0,0.0,0.0,0.0,0.0,0.0,0.0,0.0,0.0,0.0,0.0,0.0,0.0,0.0,0.0,0.0,0.0,0.0,0.0,0.0,0.0,0.0,0.0,0.0,0.0,0.0,0.0,0.0,0.0,0.0,0.0,0.0,0.0,0.0,0.0,0.0,0.0,0.0,0.0,0.0,0.0,0.0,0.0,0.0,0.0,0.0,0.0,0.0,0.0,0.0,0.0,0.0,0.0,0.0,0.0,0.0,0.0,0.0,0.0,0.0,0.0,0.0,0.0,0.0,0.0,0.0,0.0,0.0,0.0,0.0,0.0,0.0,0.0,0.0,0.0,0.0,0.0,0.0,0.0,0.0,0.0,0.0,0.0,0.0,0.0,0.0,0.0,0.0,0.0,0.0,0.0,0.0,0.0,2.6803,2.8523,3.0664,3.0898,3.097,3.116,2.8508,2.6616,2.6121,0.0,0.0,0.0,0.0,0.0,0.0,0.0,0.0,0.0,0.0,0.0,0.0,0.0,0.0,0.0,0.0,0.0,0.0,0.0,0.0,0.0,0.0,0.0,0.0,0.0,0.0,0.0,0.0,0.0,0.0,0.0,0.0,0.0,0.0,0.0,0.0,0.0,0.0,0.0,0.0,0.0,0.0,0.0,0.0,0.0,0.0,0.0,0.0,0.0,0.0,0.0,0.0,0.0,0.0,0.0,0.0,0.0,0.0,0.0,0.0,0.0,0.0,0.0,0.0,0.0,0.0,0.0,0.0,0.0,0.0,0.0,0.0,0.0,0.0,0.0,0.0,0.0,0.0,0.0,0.0,0.0,0.0,0.0,0.0,0.0,0.0,0.0,0.0,0.0,0.0,0.0,0.0,0.0,0.0,0.0,0.0,0.0,0.0,0.0,0.0,0.0,0.0,2.5401,2.7012,2.8699,3.0684,3.0898,3.0853,3.0811,2.8868,2.737,2.6639,0.0,0.0,0.0,0.0,0.0,0.0,0.0,0.0,0.0,0.0,0.0,0.0,0.0,0.0,0.0,0.0,0.0,0.0,0.0,0.0,0.0,0.0,0.0,0.0,0.0,0.0,0.0,0.0,0.0,0.0,0.0,0.0,0.0,0.0,0.0,0.0,0.0,0.0,0.0,0.0,0.0,0.0,0.0,0.0,0.0,0.0,0.0,0.0,0.0,0.0,0.0,0.0,0.0,0.0,0.0,0.0,0.0,0.0,0.0,0.0,0.0,0.0,0.0,0.0,0.0,0.0,0.0,0.0,0.0,0.0,0.0,0.0,0.0,0.0,0.0,0.0,0.0,0.0,0.0,0.0,0.0,0.0,0.0,0.0,0.0,0.0,0.0,0.0,0.0,0.0,0.0,0.0,0.0,0.0,0.0,0.0,0.0,0.0,0.0,0.0,0.0,0.0,2.5735,2.7619,2.9394,3.1117,3.1315,3.0996,3.0242,2.9435,2.8446,2.7177,0.0,0.0,0.0,0.0,0.0,0.0,0.0,0.0,0.0,0.0,0.0,0.0,0.0,0.0,0.0,0.0,0.0,0.0,0.0,0.0,0.0,0.0,0.0,0.0,0.0,0.0,0.0,0.0,0.0,0.0,0.0,0.0,0.0,0.0,0.0,0.0,0.0,0.0,0.0,0.0,0.0,0.0,0.0,0.0,0.0,0.0,0.0,0.0,0.0,0.0,0.0,0.0,0.0,0.0,0.0,0.0,0.0,0.0,0.0,0.0,2.356,0.0,0.0,0.0,0.0,0.0,0.0,0.0,0.0,0.0,0.0,0.0,0.0,0.0,0.0,0.0,0.0,0.0,0.0,0.0,0.0,0.0,0.0,0.0,0.0,0.0,0.0,0.0,0.0,0.0,0.0,0.0,0.0,0.0,0.0,0.0,0.0,0.0,0.0,0.0,0.0,0.0,2.7753,3.0428,3.2726,3.4195,3.437,3.4394,3.4478,3.2378,3.0744,2.9969,0.0,0.0,0.0,0.0,0.0,0.0,0.0,0.0,0.0,0.0,0.0,0.0,0.0,0.0,0.0,0.0,0.0,0.0,0.0,0.0,0.0,0.0,0.0,0.0,0.0,0.0,0.0,0.0,0.0,0.0,0.0,0.0,0.0,0.0,0.0,0.0,0.0,0.0,0.0,0.0,0.0,0.0,0.0,0.0,0.0,0.0,0.0,0.0,0.0,0.0,0.0,0.0,0.0,0.0,0.0,0.0,0.0,0.0,0.0,0.0,0.0,2.448,0.0,0.0,0.0,0.0,0.0,0.0,0.0,0.0,0.0,0.0,0.0,0.0,0.0,0.0,0.0,0.0,0.0,0.0,0.0,0.0,0.0,0.0,0.0,0.0,0.0,0.0,0.0,0.0,0.0,0.0,0.0,0.0,0.0,0.0,0.0,0.0,0.0,0.0,0.0,0.0,2.8767,3.1913,3.4418,3.5568,3.5675,3.5572,3.5264,3.3788,3.2438,3.1408,2.9573,0.0,0.0,0.0,0.0,0.0,0.0,0.0,0.0,0.0,0.0,0.0,0.0,0.0,0.0,0.0,0.0,0.0,0.0,0.0,0.0,0.0,0.0,0.0,0.0,0.0,0.0,0.0,0.0,0.0,0.0,0.0,0.0,0.0,0.0,0.0,0.0,0.0,0.0,0.0,0.0,0.0,0.0,0.0,0.0,0.0,0.0,0.0,0.0,0.0,0.0,0.0,0.0,0.0,0.0,0.0,3.4926,3.5355,3.5807,3.5939,3.0668,2.8398,2.8267,0.0,0.0,0.0,0.0,0.0,0.0,0.0,0.0,0.0,0.0,0.0,0.0,0.0,0.0,0.0,0.0,0.0,0.0,0.0,0.0,0.0,0.0,0.0,0.0,0.0,2.5347,2.5419,0.0,0.0,0.0,0.0,0.0,0.0,0.0,0.0,0.0,0.0,0.0,0.0,3.001,3.3395,3.5968,3.6801,3.6865,3.6452,3.5443,3.4959,3.4055,3.2498,3.1427,3.0362,0.0,0.0,0.0,0.0,0.0,0.0,0.0,0.0,0.0,0.0,0.0,0.0,0.0,0.0,0.0,0.0,0.0,0.0,0.0,0.0,0.0,0.0,0.0,0.0,0.0,0.0,0.0,0.0,0.0,0.0,0.0,0.0,2.7512,2.8047,0.0,0.0,0.0,0.0,0.0,0.0,0.0,0.0,0.0,0.0,0.0,0.0,0.0,0.0,3.4731,3.6183,3.6985,3.7136,3.8291,3.8868,3.8944,3.8994,3.9069,3.9094,3.8266,0.0,3.1691,3.0918,0.0,0.0,0.0,0.0,0.0,0.0,0.0,0.0,0.0,0.0,0.0,0.0,0.0,0.0,0.0,0.0,0.0,0.0,0.0,0.0,0.0,0.0,2.5121,2.5937,2.6504,2.7091,0.0,2.6121,2.4374,2.4853,0.0,0.0,0.0,0.0,0.0,0.0,0.0,0.0,3.3102,3.6672,3.9278,3.9846,3.992,3.9475,3.841,3.7394,3.6097,3.4429,3.2861,3.1491,3.0412,2.9243,0.0,0.0,0.0,0.0,0.0,0.0,0.0,0.0,0.0,0.0,0.0,0.0,0.0,0.0,0.0,0.0,0.0,0.0,0.0,0.0,0.0,0.0,0.0,0.0,0.0,0.0,0.0,0.0,0.0,2.885,2.9472,2.9101,2.9854,3.0055,0.0,0.0,0.0,0.0,0.0,0.0,0.0,0.0,0.0,3.5429,3.6257,3.7362,3.8743,3.9823,4.0802,4.1704,4.2559,4.3288,4.3837,4.3837,4.3837,4.3837,4.3539,4.1811,3.9002,3.5917,3.338,3.1382,0.0,0.0,0.0,0.0,0.0,0.0,2.8032,0.0,0.0,0.0,0.0,0.0,0.0,0.0,0.0,0.0,0.0,0.0,0.0,0.0,0.0,3.0151,3.0454,3.055,3.2036,3.0867,2.9278,0.0,2.746,2.6691,2.665,0.0,0.0,0.0,0.0,0.0,3.5064,3.838,4.0675,4.0926,4.0951,4.0499,3.9421,3.8291,3.7086,3.573,3.4073,3.2667,3.1562,3.0437,2.966,0.0,0.0,0.0,0.0,0.0,0.0,0.0,0.0,0.0,0.0,0.0,0.0,0.0,0.0,0.0,0.0,0.0,0.0,0.0,0.0,0.0,0.0,0.0,0.0,0.0,0.0,0.0,0.0,3.0457,3.116,2.993,3.1612,3.2164,0.0,0.0,0.0,0.0,0.0,0.0,3.5303,3.6409,3.7764,3.9446,4.02,4.1279,4.2783,4.3542,4.4572,4.5869,4.6476,4.7255,4.8153,4.8153,4.8077,4.7927,4.75,4.6547,4.4865,4.0199,3.7111,3.5328,3.4901,3.4399,0.0,3.3448,3.3184,3.2956,3.2439,3.1894,3.131,3.0532,0.0,2.906,2.7085,0.0,0.0,0.0,0.0,2.7643,3.0761,0.0,3.0817,3.3964,3.4207,3.4118,3.5577,3.5002,3.3649,0.0,3.0333,2.9371,2.9192,0.0,0.0,0.0,0.0,3.5041,3.6988,3.975,4.1528,4.1528,4.1403,4.0926,3.9998,3.8743,3.7588,3.6658,3.4901,3.347,3.2466,3.124,3.0588,0.0,0.0,0.0,0.0,0.0,0.0,0.0,0.0,0.0,0.0,0.0,0.0,0.0,0.0,0.0,0.0,0.0,0.0,0.0,0.0,0.0,0.0,0.0,0.0,0.0,0.0,0.0,0.0,0.0,0.0,2.998,3.2641,0.0,0.0,0.0,0.0,3.5157,3.6282,3.7663,3.932,4.0424,4.1779,4.3463,4.4568,4.5698,4.6798,4.7908,4.8768,4.9364,4.9916,5.0494,5.1105,5.1105,5.077,5.021,5.0218,4.8955,4.6672,4.2733,4.0424,3.9245,3.7663,3.6709,3.6234,3.6186,3.5841,3.5255,3.4726,3.4182,3.3772,3.3899,3.354,3.2788,3.1462,3.1031,0.0,0.0,3.1874,3.2213,3.3814,3.443,3.4904,3.5952,3.6449,3.7093,3.8547,3.746,3.5648,0.0,3.3172,3.267,3.2098,0.0,0.0,3.2996,3.5644,3.8191,3.9369,4.1078,4.2135,4.2135,4.1656,4.1076,4.0499,3.8969,3.7764,3.721,3.5102,3.3668,3.309,3.1486,3.0588,3.0588,2.8891,0.0,0.0,0.0,0.0,0.0,0.0,0.0,0.0,0.0,0.0,0.0,0.0,0.0,0.0,0.0,0.0,0.0,0.0,0.0,0.0,0.0,0.0,0.0,0.0,0.0,0.0,0.0,0.0,3.5102,3.7688,0.0,0.0,3.7814,3.8442,3.9194,4.03,4.1683,4.3338,4.4439,4.5794,4.7481,4.8259,4.9188,5.0318,5.072,5.1197,5.1749,5.1916,5.2327,5.2829,5.2503,5.2192,5.1992,5.1649,5.0845,4.9665,4.7877,4.5242,4.2283,4.1681,4.0902,4.0175,4.0527,4.029,3.9848,3.9996,3.9683,3.902,3.7667,3.5851,3.4135,3.3643,3.3042,3.2906,3.4865,3.4992,3.5258,3.8586,3.8366,3.7971,4.0519,4.0516,4.0342,4.1821,4.1593,4.0741,3.9415,3.7179,3.5594,3.5865,3.6122,3.6289,3.6279,3.7592,3.9094,4.0524,4.1607,4.2213,4.2213,4.1656,4.1102,4.0549,3.8944,3.7764,3.7235,3.5127,3.3646,3.3115,3.1486,3.0588,3.0588,2.8955,2.7489,0.0,0.0,0.0,0.0,0.0,0.0,0.0,0.0,0.0,0.0,0.0,0.0,0.0,0.0,0.0,0.0,0.0,0.0,0.0,0.0,0.0,0.0,0.0,0.0,0.0,0.0,3.8642,3.8818,4.163,4.2989,4.148,4.2032,4.2733,4.3485,4.4568,4.6024,4.7908,4.851,4.9565,5.1222,5.1423,5.1875,5.2628,5.2653,5.2829,5.3181,5.297,5.3306,5.3959,5.3256,5.2995,5.3121,5.2628,5.2076,5.1523,5.1147,4.9138,4.6276,4.5698,4.4819,4.3919,4.4242,4.4141,4.3894,4.4041,4.3642,4.2738,4.1105,3.9156,3.7481,3.7481,3.6994,3.6894,3.908,3.9104,3.9256,4.2469,4.1975,4.121,4.3535,4.3321,4.2861,4.3865,4.4091,4.3815,4.2914,4.0506,3.8659,3.8817,3.8693,3.8718,3.9044,3.9772,4.0678,4.1756,4.2384,4.2663,4.2487,4.1781,4.1177,4.08,3.9069,3.7688,3.6984,3.5002,3.3571,3.2839,3.1386,3.0588,3.0588,2.8955,2.7562,2.6504,0.0,0.0,0.0,0.0,0.0,0.0,0.0,0.0,0.0,0.0,0.0,0.0,0.0,0.0,0.0,0.0,0.0,0.0,0.0,0.0,0.0,0.0,0.0,3.4879,3.8693,4.1302,4.0851,4.4192,4.5673,4.3567,4.5271,4.6979,4.8033,4.9138,5.0695,5.282,5.2477,5.2929,5.4547,5.4034,5.3758,5.3733,5.3733,5.3733,5.3708,5.3196,5.3557,5.4597,5.3457,5.3256,5.3708,5.3146,5.2594,5.2126,5.2126,5.1825,5.1205,4.9522,4.8184,4.7174,4.7174,4.7149,4.7048,4.6552,4.5618,4.4589,4.4091,4.3539,4.3115,4.3115,4.3115,4.3313,4.4364,4.4288,4.4166,4.5246,4.5121,4.4665,4.4665,4.464,4.464,4.464,4.464,4.4489,4.3966,4.3014,4.1934,4.0802,4.1051,4.1403,4.1403,4.2333,0.0,4.3039,4.3463,4.3564,4.3065,4.2007,4.1327,4.1302,3.927,3.7538,3.6431,3.4776,3.3345,3.2194,3.114,3.0563,3.0563,2.8955,2.7602,2.6607,0.0,0.0,0.0,0.0,0.0,0.0,0.0,0.0,0.0,0.0,0.0,0.0,0.0,0.0,0.0,0.0,0.0,0.0,0.0,0.0,0.0,0.0,3.8893,3.8893,4.2381,4.5593,4.7481,4.9683,5.1172,5.1406,5.1548,5.1975,5.2713,5.3064,5.3491,5.4084,5.4361,5.4547,5.4597,5.4823,5.4737,5.4371,5.4371,5.4371,5.4371,5.4185,5.4486,5.5175,5.4436,5.4185,5.4321,5.3733,5.3181,5.2669,5.2669,5.2569,5.2352,5.1096,4.9916,4.8912,4.8912,4.841,4.7682,4.7531,4.6998,4.6396,4.6245,4.5819,4.5397,4.5397,4.5397,4.5547,4.622,4.6296,4.6271,4.6572,4.6522,4.6321,4.5919,4.5819,4.5819,4.5819,4.5819,4.5673,4.5121,4.4769,4.4245,4.3087,4.3335,4.3686,4.3686,0.0,0.0,4.3589,4.3363,4.3165,4.3014,4.2386,4.1781,4.1352,3.927,3.7362,0.0,3.38,3.219,3.109,3.0382,3.0005,3.0005,2.8761,2.8347,0.0,0.0,0.0,0.0,0.0,0.0,0.0,0.0,0.0,0.0,0.0,0.0,0.0,0.0,0.0,0.0,0.0,0.0,0.0,0.0,0.0,0.0,4.075,4.3514,4.5146,4.7104,4.9339,5.185,5.3432,5.4561,5.5189,5.5164,5.5239,5.5566,5.5591,5.5717,5.5979,5.5817,5.5792,5.6004,5.6043,5.5917,5.5591,5.5365,5.5265,5.5239,5.4823,5.5024,5.5717,5.4949,5.4723,0.0,5.4059,5.3532,5.3231,5.297,5.2895,0.0,0.0,0.0,0.0,0.0,4.9364,4.8586,4.836,4.8083,4.7782,4.75,4.7199,4.6979,4.6979,4.6798,4.6798,4.7606,4.745,4.7199,4.7707,4.745,4.7074,4.7004,4.6803,4.6697,4.6928,4.6772,4.6502,4.5949,0.0,0.0,4.4669,4.4568,4.4589,4.4589,4.4568,4.4342,0.0,4.3714,4.3489,4.3065,4.2311,4.1681,4.1327,3.927,0.0,0.0,0.0,3.2315,3.0984,0.0,0.0,0.0,0.0,2.9589,0.0,0.0,0.0,0.0,2.3402,2.2964,0.0,0.0,0.0,0.0,0.0,0.0,0.0,0.0,0.0,0.0,0.0,0.0,0.0,0.0,0.0,0.0,4.474,4.8234,5.2126,5.2302,5.2763,5.4647,5.5767,5.642,5.6495,5.6835,5.7111,5.7186,5.7136,5.7349,5.7876,0.0,0.0,0.0,0.0,5.7161,5.7085,5.6646,5.6369,5.6294,5.5365,5.539,5.6168,5.5265,5.5049,5.5239,5.4235,5.3733,5.3582,5.3096,5.2895,5.2895,5.282,5.2528,5.1975,5.082,5.0117,0.0,0.0,0.0,0.0,4.8259,4.8109,4.8109,4.8109,4.7751,4.7575,4.8617,4.8159,4.76,4.8535,4.8058,4.7375,4.7807,4.7525,4.7324,4.7807,4.7525,4.7048,4.6577,4.6476,4.6326,4.5849,4.5221,4.479,4.479,4.5196,0.0,4.4116,4.4292,4.4166,4.319,0.0,0.0,4.1327,3.937,3.7487,3.5784,3.4552,3.3194,3.1658,3.1532,3.1512,3.1607,3.1482,3.0984,3.0164,2.9917,2.8699,2.659,2.4452,2.3411,0.0,0.0,0.0,0.0,0.0,0.0,0.0,0.0,0.0,0.0,0.0,0.0,0.0,0.0,0.0,4.5819,4.8711,5.1674,5.5505,5.6394,5.6595,5.6533,5.7173,5.775,5.8164,5.7926,5.7926,5.8315,5.7976,5.7775,5.7901,5.8102,0.0,5.7901,5.8227,5.8177,5.7725,5.7625,5.7349,5.6835,0.0,0.0,5.6219,5.6408,5.5892,5.4748,5.4522,5.3884,5.3046,5.2945,5.2895,5.2845,5.2427,5.2201,5.1975,5.082,5.031,5.0167,4.9615,4.9439,4.9414,4.9314,4.9264,4.9264,4.9264,4.9188,0.0,4.9364,4.9289,4.9063,4.8868,4.8642,4.836,4.7983,4.7832,4.7782,4.7883,4.7832,4.7732,4.7631,4.7606,4.7556,4.7456,4.6627,4.5974,4.5974,4.5698,4.5422,4.5196,4.4468,4.389,4.3664,4.3062,4.2308,4.1378,4.0098,3.8642,3.6985,3.5002,3.3545,3.2813,3.229,3.2265,3.2763,3.1884,3.1755,3.2464,3.0658,2.9459,2.8763,2.6655,2.532,0.0,0.0,0.0,0.0,0.0,0.0,0.0,0.0,0.0,0.0,0.0,3.6558,0.0,0.0,4.5167,4.9339,5.1875,5.4486,5.7801,5.8303,5.8202,5.7888,5.8353,5.8805,5.9081,5.8855,5.8805,5.9081,5.8855,5.8704,5.8704,5.8956,5.8981,5.8704,5.8956,5.8981,5.8704,5.8428,5.8152,5.7838,5.7562,5.7136,5.6584,5.6344,5.5767,5.4974,5.4421,5.3833,5.3306,5.2995,5.2895,5.287,5.2594,5.2352,5.2026,5.1473,5.0896,5.0336,5.0092,4.9816,4.959,4.959,4.959,4.959,4.959,4.9414,4.927,4.9515,4.9389,4.922,4.922,4.9019,4.8793,4.8761,4.8535,4.841,4.8686,4.8535,4.8335,4.8335,4.8109,4.7908,4.7908,4.7456,4.7029,4.6722,4.625,4.5799,4.5522,4.4995,4.4418,4.3865,4.3313,4.2663,4.1806,4.0224,3.8793,3.7663,3.6056,3.5027,3.4748,3.4472,3.4299,3.4276,3.3724,3.3599,3.3897,3.2797,3.1889,3.1113,2.9411,2.7432,0.0,0.0,0.0,0.0,0.0,0.0,0.0,0.0,3.4274,3.6359,3.8291,4.04,4.2989,4.5999,4.9181,5.2678,5.4813,5.6922,5.9458,5.9357,5.8992,5.8992,5.9307,5.9483,5.9483,5.9483,5.9483,5.9483,5.9483,5.9483,5.9483,5.9483,5.9483,5.9483,5.9483,5.9483,5.9483,5.9081,5.8792,5.8666,5.7763,5.7211,5.696,5.6018,5.544,5.5164,5.4034,5.3557,5.3507,5.3071,5.2895,5.2895,5.2895,5.2619,5.2251,5.2151,5.1523,5.072,5.0619,5.0218,4.9766,4.9766,4.969,4.959,4.959,4.9321,4.9069,4.9464,4.9264,4.9095,4.9615,4.9339,4.9095,4.9615,4.9414,4.922,4.9515,4.9339,4.9095,4.8994,4.856,4.8234,4.8234,4.8134,4.7908,4.7324,4.6798,4.6301,4.5874,4.5623,4.5146,4.4217,4.3639,4.3065,4.2386,4.0527,3.9069,3.8366,3.7538,3.6935,3.6708,3.6607,3.6381,3.5984,3.5782,3.5556,3.533,3.5004,3.4245,3.3053,3.174,2.9464,3.6758,3.4743,3.3812,3.4509,3.4611,3.5276,0.0,0.0,3.9346,4.108,4.3539,4.5924,4.7738,4.9967,5.2804,5.662,5.7876,5.8956,6.0738,6.0512,6.0097,6.0097,5.9759,5.9483,5.9483,5.9483,5.9483,5.9483,5.9483,5.9483,5.9483,5.9483,5.9483,5.9483,5.9483,5.9483,5.9483,5.9433,5.9182,5.8691,5.8566,5.7964,5.6985,5.6358,5.5591,5.4622,5.3482,5.297,5.297,5.292,5.2895,5.2895,5.2895,5.2845,5.2744,5.2277,5.2026,5.185,5.1348,5.082,5.0318,5.0318,4.9992,4.959,4.959,4.9565,4.9515,4.9565,4.9565,4.9615,5.0167,4.9916,4.964,5.0193,5.0268,5.0117,4.969,4.9941,5.0092,4.959,4.9464,4.9414,4.9414,4.8987,4.8517,4.7908,4.735,4.6998,4.6923,4.61,4.5447,4.5321,4.4794,4.4016,4.3014,4.1756,4.06,3.9572,3.9396,3.8868,3.7864,3.7337,3.7287,3.7689,3.6759,3.6758,3.7638,3.6158,3.4824,3.3682,3.2574,3.1055,3.8508,3.7643,3.768,0.0,3.9016,4.0299,4.2551,4.2818,4.3212,4.5552,4.7958,5.0193,5.1883,5.3708,5.568,0.0,5.883,5.9633,6.0989,6.0412,5.9734,5.9433,5.8905,5.8805,5.9433,5.9483,5.9483,5.9483,5.9483,5.9483,5.9483,5.9483,5.9483,5.9483,5.9809,5.9985,5.9985,6.0311,6.0186,5.9659,5.9332,5.8604,5.7499,5.6294,5.4963,5.3582,5.3096,5.2895,5.2895,5.2895,5.2895,5.2895,5.2895,5.2895,5.287,5.2644,5.2377,5.2026,5.1473,5.0896,5.0336,5.0042,4.9791,4.959,4.959,4.959,4.959,4.959,4.959,4.964,4.9891,4.9766,4.9665,4.9891,4.9941,4.9866,4.964,4.9766,4.9866,4.964,4.959,4.959,4.959,4.9414,4.9163,4.8937,4.7851,4.7099,4.7099,4.6451,4.5849,4.5522,4.497,4.4288,4.3514,4.2735,4.1957,4.1205,4.0526,3.9948,3.9471,3.8944,3.8592,3.8542,3.809,3.7914,3.8015,3.7287,3.6726,3.6187,3.4082,3.2757,4.0284,0.0,0.0,4.2453,4.4218,4.6084,4.7295,4.7502,4.8024,5.0172,5.2,5.3658,5.4988,5.6369,5.7612,5.8755,5.9508,6.0236,6.1065,6.0211,5.9257,5.8579,5.7725,5.7499,5.8278,5.893,5.9332,5.9483,5.9483,5.9483,5.9483,5.9633,5.9734,5.9734,6.0261,6.0563,6.0563,6.0814,6.0738,6.0311,5.9458,5.8654,5.7851,5.5993,5.4436,5.3096,5.2945,5.2895,5.2895,5.2895,5.2895,5.2895,5.2895,5.2895,5.2895,5.2895,5.2544,5.2051,5.1649,5.1021,5.0343,4.9941,4.9715,4.959,4.959,4.959,4.959,4.959,4.959,4.9615,4.9791,4.9715,4.9665,4.9992,4.9941,4.9816,4.9816,4.9816,4.9766,4.9615,4.959,4.959,4.959,4.959,4.959,4.959,4.8435,4.7581,4.7581,4.6979,4.6326,4.5773,4.5196,4.4694,4.4292,4.3614,4.2989,4.2436,4.1532,4.0827,4.0499,4.0124,3.9672,3.9145,3.912,3.8919,3.8467,3.8316,3.7891,3.7206,3.5001,3.3599,0.0,0.0,4.4805,4.7416,5.0064,5.2152,5.2658,5.3673,5.4623,5.5102,5.5666,5.6269,5.6809,5.7474,5.8227,5.9307,6.0412,6.114,6.1205,6.0211,5.9106,5.8052,5.647,5.5491,0.0,5.7474,5.8956,5.9458,5.9483,5.9483,5.9483,6.001,6.0286,6.0286,6.0864,6.1165,6.1165,6.0613,6.0337,6.0272,5.8704,5.7926,5.7826,5.5627,5.4295,5.3658,5.3155,5.2895,5.2895,5.2895,5.2895,5.2895,5.2895,5.2895,5.2895,5.2895,5.2544,5.2101,5.2076,5.1348,5.0386,5.0361,5.0017,4.959,4.959,4.959,4.959,4.959,4.959,4.9715,5.0243,4.9992,4.9866,5.1004,5.0795,5.0393,5.0393,5.0393,5.0243,4.969,4.959,4.959,4.959,4.959,4.959,4.959,4.9088,4.8743,4.8743,4.7782,4.6873,4.6351,4.5799,4.5447,4.5447,4.4418,4.3539,4.3014,4.2436,4.1658,4.0551,4.0474,4.0224,3.9672,3.9672,3.9672,3.9647,3.9145,3.7683,3.5381,3.4674,3.3151,0.0,0.0,5.0508,5.4463,5.6295,5.7364,5.8461,5.8436,5.7747,5.6215,5.5491,5.5164,5.5365,5.5239,5.5717,5.7537,5.9106,6.0186,6.0563,6.0286,5.9106,5.6545,5.6043,0.0,0.0,0.0,0.0,5.8328,5.878,5.9282,6.001,6.0588,6.0889,6.0889,6.1441,6.1718,6.1718,6.1893,6.1617,6.0864,5.8855,5.7323,5.6194,5.5099,5.4059,5.3146,5.297,5.2895,5.2895,5.2895,5.2895,5.2895,5.2895,5.2895,5.2895,5.2895,5.2544,5.2101,5.2101,5.1624,5.0921,5.0544,5.0042,4.959,4.959,4.959,4.959,4.959,4.959,4.964,4.9816,5.0017,5.0243,5.0619,5.0569,5.0386,5.0386,5.0386,5.0368,5.0167,5.0142,5.0142,5.0142,4.9841,4.959,4.959,4.9145,4.8667,4.8234,4.7581,4.7023,4.6848,4.6351,4.5874,4.5522,4.4794,4.4116,4.3564,4.2688,4.1858,4.1076,4.0675,4.0249,3.9697,3.9697,3.9697,3.9697,3.9522,3.8515,3.673,3.5545,3.4056,0.0,5.2037,5.6376,6.0535,6.2411,6.3312,6.3522,6.2803,6.1202,5.7933,5.6173,5.4834,5.3372,5.2835,5.3157,5.4708,5.6369,5.7826,5.8942,5.8805,5.7775,5.5641,5.5189,0.0,0.0,0.0,0.0,5.7424,5.8303,5.9068,5.9985,6.0939,6.1492,6.1492,6.2019,6.2295,6.2295,6.227,6.1492,5.9985,5.8579,5.7022,5.5365,5.4848,5.4059,5.3206,5.297,5.2895,5.2895,5.2895,5.2895,5.2895,5.2895,5.2895,5.2895,5.2895,5.2669,5.2377,5.2176,5.1599,5.0921,5.0544,5.0042,4.959,4.959,4.9741,4.9891,4.9891,5.0042,5.0193,5.0193,5.0469,5.072,5.072,5.0569,5.0436,5.0695,5.0569,5.0436,5.0695,5.072,5.072,5.072,5.0268,4.9816,4.9615,4.9321,4.8894,4.8284,4.7732,4.7299,4.7124,4.6622,4.6175,4.5824,4.507,4.4439,4.4116,4.309,4.2135,4.1327,4.0976,4.0424,3.9697,3.9697,3.9697,3.9697,3.9697,3.8661,3.6676,3.5727,3.4208,5.4251,5.8441,6.2242,6.5473,6.8196,6.957,6.7563,6.6552,6.467,5.992,5.7459,5.4943,0.0,0.0,5.0696,5.1152,5.2729,5.4637,5.6809,5.6319,5.5641,0.0,0.0,0.0,0.0,0.0,0.0,5.6885,0.0,5.8956,5.9583,6.1165,6.2044,6.2044,6.2505,6.2781,6.2781,6.1743,6.0085,5.7951,5.7901,5.7022,5.5365,5.4848,5.427,5.3683,5.3121,5.2895,5.2895,5.2895,5.2895,5.2895,5.2895,5.2895,5.2895,5.2895,5.2895,5.282,5.2302,5.1373,5.0469,5.0469,5.0067,4.959,4.959,4.9967,5.0361,5.0386,5.082,5.1247,5.1306,5.1297,5.1356,5.1356,5.087,5.0619,5.1197,5.087,5.0619,5.1197,5.1356,5.1297,5.1222,5.077,5.0218,4.9665,4.959,4.9414,4.8919,4.8284,4.7732,4.7199,4.6622,4.6301,4.6301,4.5242,4.4614,4.464,4.3614,4.2509,4.1428,4.1327,4.08,3.9747,3.9697,3.9697,3.9697,3.9697,3.824,3.5398,3.5343,3.3754,5.862,6.3228,6.7418,6.9213,7.053,7.0674,6.7736,6.6173,6.3684,5.7775,5.4051,5.0846,0.0,0.0,0.0,5.0338,5.3758,0.0,5.8604,5.9357,0.0,5.6835,0.0,5.6244,5.5265,5.529,0.0,0.0,5.8177,5.9056,6.124,6.2169,6.2581,6.2581,6.2706,6.2781,6.2781,6.1743,6.0286,5.8504,5.8102,5.7022,5.5365,5.4848,5.427,5.3683,5.3121,5.2895,5.2895,5.2895,5.2895,5.2895,5.2895,5.2895,5.2895,5.2895,5.2895,5.282,5.2302,5.1649,5.1071,5.1071,5.0393,4.959,4.959,4.969,4.9891,5.0293,5.0519,5.0745,5.1172,5.1599,5.19,5.19,5.1473,5.1222,5.1774,5.1448,5.1222,5.1774,5.19,5.1498,5.0243,5.0243,5.0218,4.9665,4.959,4.954,4.9414,4.851,4.7857,4.7732,4.6878,4.6301,4.6301,4.5242,4.4765,4.5246,4.3815,4.2889,4.2585,4.1754,4.0976,4.0325,3.9898,3.9697,3.9697,3.9697,3.8739,3.6918,3.5809,3.4292,6.3588,6.7567,7.0949,7.1966,7.2056,7.1049,6.7818,6.492,6.119,5.4906,5.0989,0.0,0.0,0.0,0.0,0.0,0.0,0.0,5.7675,5.8805,5.8956,0.0,5.8014,0.0,5.7047,5.7173,5.7901,0.0,5.8905,5.9483,6.1542,6.2395,6.2781,6.2781,6.2556,6.222,6.1702,6.1115,6.0111,5.8666,5.8152,5.7148,5.5717,5.4974,5.427,5.3683,0.0,5.2895,5.2895,5.2895,5.2895,5.2895,5.2895,5.2895,5.2895,5.2895,5.2895,5.282,5.2302,5.1749,5.128,5.0996,5.0318,4.959,4.959,4.9941,5.0393,5.072,5.1147,5.1599,5.1925,5.2226,5.2402,5.2176,5.1875,5.1724,5.2051,5.185,5.18,5.2352,5.2477,5.2101,5.0896,5.0745,5.0594,5.0042,4.9741,4.959,4.959,4.8837,4.8184,4.7933,4.7154,4.6547,4.6326,4.5497,4.5146,4.5472,4.4141,4.3266,4.3014,4.1904,4.1051,4.0499,3.9973,3.9697,3.9697,3.9697,3.8947,3.7477,3.5999,3.4515,6.8495,7.1308,7.3283,7.3762,7.2804,7.0829,6.7268,6.2883,5.7825,5.16,0.0,4.4566,4.023,4.1363,4.3387,4.472,0.0,5.2,5.5892,5.6985,5.7788,5.8767,5.8967,5.888,5.8478,5.8805,5.9508,6.0563,6.0136,6.0286,6.1341,6.2295,6.2756,6.2681,6.2195,6.1391,6.0337,6.0311,5.9745,5.8666,5.8152,5.7349,5.6294,5.5225,5.4411,5.3884,0.0,0.0,5.2995,5.292,5.2895,5.2895,5.2895,5.2895,5.2895,5.2895,5.2895,5.2795,5.2201,5.1674,5.1197,5.0619,5.0042,4.959,4.959,5.0318,5.1197,5.128,5.2026,5.2795,5.287,5.2895,5.277,5.2327,5.2151,5.2126,5.2201,5.2226,5.2327,5.2694,5.2845,5.2694,5.2101,5.1649,5.1172,5.0519,5.0017,4.9665,4.9615,4.9145,4.8592,4.7958,4.74,4.6873,4.6351,4.5799,4.5522,4.5598,4.4468,4.3614,4.324,4.2082,4.1152,4.0625,4.0074,3.9772,3.9697,3.9697,3.9051,3.7769,3.6271,3.4902,7.1457,7.3373,7.442,7.4001,7.2475,6.9782,6.4904,5.9958,0.0,0.0,4.4328,4.1382,3.8971,4.0274,4.2788,4.6128,0.0,0.0,0.0,0.0,5.977,0.0,0.0,0.0,0.0,0.0,0.0,0.0,0.0,0.0,6.2496,6.2681,6.2581,6.2169,6.1617,6.0989,6.0337,6.0311,5.9745,5.8666,5.8152,5.7549,5.6809,5.5742,5.5189,5.5039,0.0,0.0,5.3532,5.3071,5.2895,5.2895,5.2895,5.2895,5.2895,5.2895,5.2895,5.2744,5.1774,5.1373,5.1197,5.0619,5.0042,4.959,4.959,5.0042,5.067,5.1147,5.1749,5.2352,5.277,5.2895,5.287,5.277,5.2427,5.2226,5.2644,5.2744,5.2644,5.2327,5.2628,5.2569,5.1599,5.1724,5.1624,5.0569,5.0343,5.0117,4.9665,4.9145,4.8592,4.7958,4.74,4.6873,4.6351,4.5799,4.5673,4.6125,4.4669,4.3966,4.4317,4.2864,4.1783,4.1177,4.0625,4.0149,3.9697,3.9697,3.9569,3.9259,3.7796,3.6972,7.3223,7.439,7.4753,7.4061,7.1098,6.6905,6.1374,0.0,0.0,0.0,3.9903,3.763,3.6955,3.886,0.0,4.3696,0.0,0.0,0.0,0.0,0.0,0.0,0.0,0.0,0.0,0.0,0.0,0.0,0.0,0.0,6.2781,6.2546,6.2144,6.1592,6.104,6.0462,5.991,5.9885,5.9633,5.9106,5.8303,5.775,5.7424,5.6018,5.5239,5.4949,0.0,0.0,5.3246,5.2995,5.2895,5.2895,5.2895,5.2895,5.2895,5.2895,5.2895,5.277,5.2,5.1523,5.1197,5.0619,5.0042,4.959,4.959,4.9967,5.0436,5.0745,5.1448,5.2176,5.2427,5.2669,5.2895,5.2895,5.2694,5.2569,5.2845,5.2895,5.282,5.2578,5.2719,5.2719,5.2226,5.2126,5.1825,5.0996,5.0619,5.0218,4.9665,4.9364,4.9019,4.841,4.7857,4.7299,4.6747,4.6225,4.6024,4.6301,4.4995,4.4313,4.4589,4.3065,4.206,4.1756,4.0953,4.0349,4.0124,3.9848,3.9697,3.9671,3.819,3.7079,7.296,7.4169,7.4458,7.2694,6.8998,6.404,5.7507,5.0474,0.0,0.0,3.5996,3.4363,3.502,0.0,3.9371,0.0,4.3812,4.7506,0.0,0.0,0.0,0.0,0.0,0.0,0.0,0.0,0.0,0.0,0.0,0.0,0.0,6.2119,6.1567,6.1014,6.0437,5.9935,5.9508,5.9483,5.9433,5.9307,5.8353,5.7826,5.765,5.6093,5.5175,5.4748,0.0,0.0,0.0,5.2945,5.2895,5.2895,5.2895,5.2895,5.2895,5.2895,5.2895,5.2795,5.2151,5.1649,5.1172,5.0469,4.9941,4.959,4.959,4.9967,5.0386,5.0386,5.1147,5.195,5.2076,5.2427,5.2744,5.287,5.2895,5.2895,5.2895,5.2895,5.2895,5.2895,5.2895,5.2895,5.2895,5.2578,5.2101,5.1548,5.0971,5.0393,4.9841,4.9665,4.9439,4.9019,4.8335,4.7676,4.7149,4.6597,4.6301,4.6301,4.5342,4.4715,4.4614,4.3291,4.2411,4.2185,4.1178,4.06,4.0499,3.9973,3.9697,3.9671,3.853,3.7183,6.9063,7.1708,7.3606,6.8237,6.6001,6.2706,5.3585,0.0,0.0,3.6345,3.372,3.2763,3.3852,3.5047,0.0,0.0,4.2833,4.5773,5.0795,0.0,0.0,0.0,0.0,0.0,0.0,0.0,0.0,0.0,0.0,0.0,0.0,6.1567,6.0989,6.0412,5.9859,5.9533,5.9483,5.9483,5.9257,5.878,5.8177,5.7625,5.7035,5.5917,5.5365,5.5265,0.0,0.0,0.0,5.3096,5.2895,5.2895,5.2895,5.2895,5.2895,5.2895,5.2895,5.2744,5.1724,5.1356,5.1096,5.0017,4.964,4.959,4.959,4.9967,5.0386,5.0386,5.087,5.1473,5.1975,5.2151,5.2302,5.277,5.2895,5.2895,5.2895,5.2895,5.2895,5.2895,5.2895,5.2895,5.2895,5.2845,5.2619,5.2126,5.1548,5.0996,5.0419,4.9916,4.9565,4.9515,4.856,4.7676,4.7149,4.6597,4.6301,4.6301,4.5748,4.5171,4.4614,4.3991,4.319,4.2238,4.158,4.1001,4.0499,3.9973,3.9697,3.9697,3.9543,3.8713,6.6568,6.9112,7.046,6.7029,6.3223,5.8491,5.1447,0.0,3.8799,3.5042,3.2904,3.2265,3.4051,3.4981,3.6335,3.8893,3.9873,4.1932,4.6627,4.8987,0.0,0.0,0.0,0.0,0.0,0.0,0.0,0.0,0.0,0.0,0.0,0.0,6.0563,6.0337,5.9784,5.9483,5.9483,5.9483,5.9382,5.9182,5.8303,5.76,5.696,5.5892,5.5013,0.0,0.0,0.0,0.0,5.297,5.2895,5.2895,5.2895,5.2895,5.2895,5.2895,5.2895,5.282,5.2427,5.2051,5.1649,5.087,5.0368,5.0017,4.969,4.9741,4.9916,4.9916,5.0569,5.1356,5.1548,5.2101,5.2619,5.2845,5.2895,5.2895,5.2895,5.2895,5.2895,5.2895,5.2895,5.2895,5.2895,5.2895,5.2594,5.1749,5.1423,5.0979,5.0042,4.9741,4.959,4.959,4.8887,4.8209,4.7626,4.7074,4.6622,4.6326,4.5799,4.5372,4.5146,4.4292,4.3589,4.319,4.2283,4.1555,4.0976,4.0424,4.0023,3.9697,3.9697,3.8425,6.2481,6.5601,6.746,6.448,6.0306,5.5325,0.0,0.0,3.6845,3.4204,3.2462,3.1964,3.3897,3.4803,3.5757,3.7287,3.7939,3.9747,4.3987,4.5719,4.8586,0.0,0.0,0.0,0.0,0.0,0.0,0.0,0.0,0.0,0.0,0.0,6.006,6.006,5.9709,5.9483,5.9483,5.9332,5.9182,5.9006,5.8077,5.7273,5.652,5.5566,5.4612,0.0,0.0,0.0,0.0,5.2895,5.2895,5.2895,5.2895,5.2895,5.2895,5.2895,5.2895,5.287,5.2694,5.2327,5.1774,5.1197,5.0645,5.0092,4.9715,4.959,4.959,4.959,5.0419,5.1356,5.1507,5.2226,5.2895,5.2895,5.2895,5.2895,5.2895,5.2895,5.2895,5.2895,5.2895,5.2895,5.2895,5.2895,5.2619,5.1875,5.1498,5.0996,5.0193,4.9816,4.959,4.959,4.9238,4.8818,4.8209,4.75,4.6948,4.6547,4.6024,4.5673,4.5497,4.4719,4.4141,4.3815,4.2914,4.216,4.1553,4.0852,4.0325,3.9923,3.9772,3.8111,5.5928,6.0861,6.5054,5.9381,5.7153,5.4145,0.0,0.0,3.674,3.3719,3.221,3.1758,3.2914,3.3997,3.5079,3.6232,3.7813,4.025,4.4062,4.6045,0.0,0.0,0.0,0.0,0.0,0.0,0.0,0.0,0.0,0.0,0.0,0.0,5.9508,5.9508,5.9483,5.9483,5.9483,5.8981,5.8453,5.7901,5.7286,5.647,5.539,5.4873,0.0,0.0,0.0,0.0,0.0,5.2895,5.2895,5.2895,5.2895,5.2895,5.2895,5.2895,5.2895,5.282,5.2302,5.1749,5.1197,5.0619,5.0067,4.9615,4.959,4.959,4.959,4.959,5.0419,5.1398,5.195,5.2468,5.2895,5.2895,5.2895,5.2895,5.2895,5.2895,5.2895,5.2895,5.2895,5.2895,5.2895,5.2895,5.2895,5.287,5.1975,5.1306,5.1272,5.0293,4.959,4.959,4.959,4.9364,4.8843,4.7757,4.7099,4.7099,4.6572,4.605,4.5522,4.5472,4.4945,4.3815,4.3291,4.2738,4.2213,4.1053,4.0499,4.0474,3.9948,3.8111,4.933,5.2547,5.4759,5.1807,4.9413,4.6567,4.2027,0.0,3.4696,3.3352,3.2185,3.1838,3.337,3.3922,3.5027,3.7688,3.8542,3.9848,0.0,0.0,0.0,0.0,0.0,0.0,0.0,0.0,0.0,0.0,0.0,0.0,0.0,0.0,0.0,5.9483,5.9156,5.8956,5.8956,5.8428,5.8077,5.7901,5.6922,5.6093,5.5365,0.0,0.0,0.0,0.0,0.0,0.0,5.2895,5.2895,5.2895,5.2895,5.2895,5.2895,5.2895,5.2895,5.282,5.2302,5.2,5.1699,5.072,5.0293,5.0092,4.9715,4.959,4.9766,5.0519,5.1272,5.1975,5.2528,5.277,5.2895,5.2895,5.2895,5.2895,5.2895,5.2895,5.2895,5.2895,5.2895,5.2895,5.2895,5.2895,5.277,5.2427,5.1749,5.1147,5.0745,5.0042,4.959,4.959,4.959,4.9364,4.8843,4.8083,4.7475,4.7124,4.6597,4.6225,4.605,4.5673,4.5121,4.4338,4.3815,4.3115,4.2213,4.1833,4.1254,4.0448,3.8906,3.769,0.0,4.7179,4.8855,4.7631,4.5221,0.0,0.0,3.6232,3.3442,3.2889,3.2014,3.1838,3.3319,3.3746,3.4726,3.7211,3.7989,0.0,0.0,0.0,0.0,0.0,0.0,0.0,0.0,0.0,0.0,0.0,0.0,0.0,0.0,0.0,0.0,5.9207,5.8842,5.8491,5.8039,5.7549,5.7148,5.6947,5.6018,5.529,5.4737,0.0,0.0,0.0,0.0,0.0,0.0,5.2895,5.2895,5.2895,5.2895,5.2895,5.287,5.2669,5.2719,5.2795,5.2051,5.18,5.1649,5.072,5.0268,5.0042,4.969,4.959,4.9841,5.1004,5.1523,5.1975,5.2694,5.2895,5.2895,5.2895,5.2895,5.2895,5.2895,5.2895,5.2895,5.2895,5.2895,5.2895,5.2895,5.2895,5.277,5.2477,5.195,5.1473,5.1096,5.0569,5.0218,5.0218,5.0042,4.9766,4.9414,4.8485,4.7782,4.74,4.6697,4.6301,4.6301,4.5974,4.5422,4.4614,4.4263,4.3564,4.2487,4.2085,4.1379,4.0448,3.9011,3.8031,0.0,4.3765,0.0,0.0,0.0,0.0,0.0,3.5203,0.0,3.2265,3.1738,3.1758,3.2939,3.352,3.4274,0.0,0.0,0.0,0.0,0.0,0.0,0.0,0.0,0.0,0.0,0.0,0.0,0.0,0.0,0.0,0.0,0.0,0.0,0.0,5.8541,5.7989,5.6935,5.6358,5.5842,5.5315,5.4798,5.4245,5.3708,0.0,0.0,0.0,0.0,0.0,0.0,5.2895,5.2895,5.2895,5.2895,5.287,5.277,5.2302,5.2427,5.2669,5.1599,5.1247,5.1172,5.0569,5.0017,4.959,4.959,4.9665,4.9941,5.0996,5.1348,5.1624,5.2619,5.2895,5.2895,5.2895,5.2895,5.2895,5.2895,5.2895,5.2895,5.2895,5.2895,5.2895,5.2895,5.2895,5.2895,5.2895,5.2452,5.2101,5.2101,5.1624,5.1272,5.1255,5.0745,5.0361,5.0368,4.8862,4.7908,4.7908,4.6903,4.6301,4.6301,4.6276,4.5719,4.4614,4.4514,4.3991,4.3014,4.1907,4.1102,4.0626,4.0074,3.9072,3.4048,0.0,3.6885,3.6356,3.5728,3.4949,0.0,3.2641,3.1738,3.1612,0.0,3.1863,3.342,3.3492,3.4346,0.0,0.0,0.0,0.0,0.0,0.0,0.0,0.0,0.0,0.0,0.0,0.0,0.0,0.0,0.0,0.0,0.0,0.0,0.0,5.7248,5.6671,5.642,5.544,5.4924,5.4798,5.4185,5.3833,0.0,0.0,0.0,0.0,0.0,0.0,0.0,5.2895,5.2895,5.2895,5.2895,5.2644,5.2277,5.2151,5.2176,5.2126,5.1021,5.0921,5.1155,5.0117,4.969,4.959,4.959,5.0193,5.0946,5.1197,5.19,5.2569,5.282,5.2895,5.2895,5.2895,5.2895,5.2895,5.2895,5.2895,5.2895,5.2895,5.2895,5.2895,5.2895,5.2895,5.2895,5.2895,5.2452,5.2101,5.2101,5.1624,5.1096,5.067,5.0494,5.0243,4.9816,4.8636,4.7908,4.7908,4.6903,4.6301,4.6301,4.5899,4.5347,4.4614,4.379,4.3266,4.3014,4.2311,4.1934,4.1783,4.1204,4.0516,3.1009,3.2667,3.4198,3.3897,3.3646,3.3316,3.2742,3.1788,3.1035,3.1035,0.0,3.1859,3.3269,3.3517,0.0,0.0,0.0,0.0,0.0,0.0,0.0,0.0,0.0,0.0,0.0,0.0,0.0,0.0,0.0,0.0,0.0,0.0,0.0,0.0,0.0,5.5465,5.5465,5.4612,5.4059,5.3808,5.3507,5.3356,0.0,0.0,0.0,0.0,0.0,0.0,5.287,5.2619,5.2669,5.2845,5.2377,5.2151,5.2051,5.1523,5.1498,5.1574,5.0444,5.0243,5.0419,4.9791,4.959,4.964,4.9891,5.0594,5.1306,5.1306,5.19,5.2569,5.282,5.2895,5.2895,5.2895,5.2895,5.2895,5.2895,5.2895,5.2895,5.2895,5.2895,5.2895,5.2895,5.2895,5.2895,5.2895,5.2644,5.2477,5.2477,5.2226,5.1825,5.1247,5.0971,5.0594,5.0017,4.8937,4.8184,4.7933,4.7099,4.6547,4.6326,4.6024,4.5472,4.4614,4.3539,4.3014,4.3014,4.2462,4.2213,4.2213,4.1605,4.1152,3.0005,3.2265,3.4477,3.4051,3.3649,3.3244,3.2713,3.1486,3.0462,3.0462,0.0,3.1783,3.3014,3.3721,0.0,0.0,0.0,0.0,0.0,0.0,0.0,0.0,0.0,0.0,0.0,0.0,0.0,0.0,0.0,0.0,0.0,0.0,0.0,0.0,5.5064,0.0,5.4471,5.3858,5.3356,5.2895,5.2895,5.2895,5.2895,0.0,0.0,0.0,0.0,0.0,5.2845,5.2327,5.2377,5.2669,5.1674,5.1498,5.1724,5.077,5.072,5.0996,5.0067,4.9665,4.9615,4.969,4.9665,4.9715,5.0368,5.0896,5.1331,5.1406,5.18,5.2327,5.277,5.2895,5.2895,5.2895,5.2895,5.2895,5.2895,5.2895,5.2895,5.2895,5.2895,5.2895,5.2895,5.2895,5.2895,5.2895,5.2895,5.2895,5.2895,5.2895,5.2644,5.2051,5.1548,5.1021,5.0343,4.9439,4.8642,4.7958,4.74,4.6823,4.62,4.61,4.5573,4.4489,4.3489,4.3014,4.3014,4.2537,4.2338,4.2286,4.1806,4.1528,3.0909,3.2541,3.347,3.1135,3.0834,3.0984,3.0432,3.0105,2.9905,2.9905,0.0,0.0,0.0,3.4577,0.0,0.0,0.0,0.0,0.0,0.0,0.0,0.0,0.0,0.0,0.0,0.0,0.0,0.0,0.0,0.0,0.0,0.0,0.0,0.0,0.0,5.3833,5.3833,5.3306,5.297,5.2895,5.2895,5.2895,5.2895,5.2895,0.0,0.0,0.0,0.0,5.2845,5.2327,5.2151,5.2176,5.1523,5.1046,5.0645,5.0461,5.0436,5.0519,5.0343,4.9992,4.9665,5.0142,4.9967,4.9791,5.082,5.1222,5.1373,5.185,5.2377,5.2795,5.287,5.2895,5.2895,5.2895,5.2895,5.2895,5.2895,5.2895,5.2895,5.2895,5.2895,5.2895,5.2895,5.2895,5.2895,5.2895,5.2895,5.2895,5.2895,5.2895,5.2494,5.1523,5.1356,5.0845,4.9816,4.9565,4.9012,4.7983,4.74,4.6647,4.5648,4.5146,4.4593,4.394,4.3341,4.3014,4.3014,4.2914,4.2889,4.2864,4.2788,4.2512,3.0382,3.1311,3.1943,3.126,3.2169,3.3047,3.2215,3.1788,3.1582,3.1582,0.0,0.0,0.0,0.0,0.0,0.0,0.0,0.0,0.0,0.0,0.0,0.0,0.0,0.0,0.0,0.0,0.0,0.0,0.0,0.0,0.0,0.0,0.0,0.0,0.0,0.0,5.3246,5.302,5.2895,5.2895,5.2895,5.2895,5.2895,5.2895,5.2895,0.0,0.0,5.2895,5.2845,5.2327,5.2101,5.2026,5.1147,5.0645,5.0361,5.0067,4.9967,4.9967,4.9967,4.9816,4.964,4.9891,5.0017,5.0193,5.1021,5.1498,5.185,5.2402,5.2694,5.2895,5.2895,5.2895,5.2895,5.2895,5.2895,5.2895,5.2895,5.2895,5.2895,5.2895,5.2895,5.2895,5.2895,5.2895,5.2895,5.2895,5.2895,5.2895,5.2895,5.2895,5.2468,5.1398,5.1306,5.082,4.969,4.959,4.9113,4.7983,4.7099,4.6451,4.5949,4.5397,4.497,4.4719,4.3865,4.3413,4.3413,4.314,4.3014,4.3014,4.3014,4.2864,3.0125,3.0557,3.1165,3.1993,3.3373,3.4527,3.45,3.4048,3.3771,0.0,0.0,0.0,0.0,0.0,0.0,0.0,0.0,0.0,0.0,0.0,0.0,0.0,0.0,0.0,0.0,0.0,0.0,0.0,0.0,0.0,0.0,0.0,0.0,0.0,0.0,0.0,5.2895,5.2895,5.2895,5.2895,5.2895,5.2895,5.2895,5.2895,5.2895,5.2895,5.2895,5.2895,5.2845,5.2327,5.2026,5.1825,5.082,5.0343,5.0167,4.9741,4.959,4.959,4.959,4.959,4.964,4.9916,5.0193,5.0544,5.1247,5.1774,5.2201,5.2628,5.2795,5.2895,5.2895,5.2895,5.2895,5.2895,5.2895,5.2895,5.2895,5.2895,5.2895,5.2895,5.2895,5.2895,5.2895,5.2895,5.2895,5.2895,5.2895,5.2895,5.2895,5.2895,5.2468,5.1398,5.1306,5.082,4.969,4.9464,4.9038,4.8159,4.7104,4.6502,4.6502,4.5849,4.5497,4.5497,4.4493,4.394,4.379,4.3514,4.3288,4.319,4.319,4.319,3.1009,3.1687,3.2093,3.2169,3.1964,3.2491,3.5527,3.5755,0.0,3.7337,0.0,0.0,0.0,0.0,0.0,0.0,0.0,0.0,0.0,0.0,0.0,0.0,0.0,0.0,0.0,0.0,0.0,0.0,0.0,0.0,0.0,0.0,0.0,0.0,0.0,0.0,5.2895,5.2895,5.2895,5.2895,5.2895,5.2895,5.2895,5.2895,5.2895,5.2895,5.2895,5.2895,5.2845,5.2327,5.18,5.1272,5.067,5.0117,4.964,4.9615,4.959,4.959,4.959,4.959,4.9766,5.082,5.082,5.0619,5.1724,5.2076,5.2126,5.2151,5.2528,5.2895,5.2895,5.2895,5.2895,5.2895,5.2895,5.2895,5.2895,5.2895,5.2895,5.2895,5.2895,5.2895,5.2895,5.2895,5.2895,5.2895,5.2895,5.2895,5.2895,5.2895,5.2468,5.1398,5.1306,5.082,4.969,4.9145,4.8818,4.8743,4.7682,4.7048,4.7048,4.605,4.5497,4.5497,4.4869,4.4317,4.379,4.4238,4.4242,4.374,4.374,4.374,3.0281,3.1286,3.2369,3.3093,3.3599,3.4552,3.686,3.804,3.9069,4.0752,4.2108,0.0,0.0,0.0,0.0,0.0,0.0,0.0,0.0,0.0,0.0,0.0,0.0,0.0,0.0,0.0,0.0,0.0,0.0,0.0,0.0,0.0,0.0,0.0,0.0,0.0,0.0,5.2895,5.2719,5.2427,5.2719,5.2895,5.2895,5.2895,5.2895,5.2895,5.2895,5.2694,5.2427,5.2519,5.1841,5.0695,5.0117,4.9766,4.959,4.959,4.959,4.964,4.9992,4.9891,4.9791,5.0954,5.1147,5.1046,5.1448,5.2076,5.2553,5.2201,5.2503,5.2895,5.2895,5.2895,5.2895,5.2895,5.2895,5.2895,5.2895,5.2895,5.2895,5.2895,5.2895,5.2895,5.2895,5.2895,5.2895,5.2895,5.2895,5.2895,5.2895,5.2895,5.2594,5.1875,5.1172,5.0419,4.9665,4.9414,4.9321,4.9321,4.7902,4.7099,4.7099,4.6401,4.5999,4.5999,4.5447,4.507,4.4844,4.4665,4.4489,4.4292,4.3966,4.3991,2.9804,3.0733,3.1943,3.3093,3.4452,3.626,3.917,4.0727,4.2233,4.4568,4.5422,0.0,0.0,0.0,0.0,0.0,0.0,0.0,0.0,0.0,0.0,0.0,0.0,0.0,0.0,0.0,0.0,0.0,0.0,0.0,0.0,0.0,0.0,0.0,0.0,0.0,0.0,5.2719,5.2477,5.2101,5.2302,5.2468,5.2644,5.282,5.2895,5.2895,5.2719,5.2452,5.2126,5.2327,5.1624,5.0368,4.9816,4.959,4.959,4.959,4.959,4.964,5.0017,4.9916,4.9766,5.0695,5.0996,5.0996,5.0996,5.1674,5.2327,5.195,5.2251,5.2669,5.2845,5.2895,5.2895,5.2895,5.2895,5.2895,5.2895,5.2895,5.2895,5.2895,5.2895,5.2895,5.2895,5.2895,5.2895,5.2895,5.2895,5.2895,5.2895,5.2895,5.2669,5.2176,5.1096,5.0268,4.9891,4.969,4.959,4.959,4.8209,4.735,4.735,4.6672,4.6301,4.6301,4.5949,4.5673,4.5497,4.5271,4.5041,4.4895,4.4518,4.4443,2.9804,3.0206,3.0864,3.1943,0.0,0.0,4.2559,4.3815,4.492,4.8812,4.7883,4.6853,0.0,0.0,0.0,0.0,0.0,0.0,0.0,0.0,0.0,0.0,0.0,0.0,0.0,0.0,0.0,0.0,0.0,0.0,0.0,0.0,0.0,0.0,0.0,0.0,0.0,5.2377,5.2101,5.2076,5.1548,5.1574,5.2126,5.2619,5.287,5.2845,5.2327,5.2101,5.2051,5.1498,5.0921,5.0368,4.9816,4.959,4.959,4.959,4.959,4.959,4.9615,4.959,4.969,5.0243,5.0386,5.0386,5.0386,5.082,5.1306,5.1306,5.1674,5.2226,5.2744,5.2895,5.2895,5.2895,5.2895,5.2895,5.2895,5.2895,5.2895,5.2895,5.2895,5.2895,5.2895,5.2895,5.2895,5.2895,5.2895,5.2895,5.2895,5.2895,5.2669,5.2176,5.1096,5.0386,5.0386,4.9916,4.959,4.959,4.8535,4.7908,4.7908,4.6878,4.6301,4.6301,4.6301,4.605,4.5497,4.605,4.6024,4.5497,4.5497,4.5171,2.9804,3.0733,0.0,3.3574,0.0,0.0,0.0,4.4669,0.0,0.0,5.0218,4.9464,0.0,0.0,0.0,0.0,0.0,0.0,0.0,0.0,0.0,0.0,0.0,0.0,0.0,0.0,0.0,0.0,0.0,0.0,0.0,0.0,0.0,0.0,0.0,0.0,0.0,0.0,5.1322,5.0921,5.1172,5.1373,5.1523,5.1699,5.1774,5.1749,5.1599,5.1297,5.087,5.0318,5.0218,5.0368,4.9816,4.959,4.959,4.959,4.959,4.964,5.0042,4.9916,4.9766,5.072,5.0745,5.0386,5.0386,5.082,5.1306,5.1306,5.1674,5.2226,5.2744,5.2895,5.2895,5.2895,5.2895,5.2895,5.2895,5.2895,5.2895,5.2895,5.2895,5.2895,5.2895,5.2895,5.2895,5.2895,5.2895,5.2895,5.2895,5.2895,5.2669,5.2176,5.1448,5.087,5.0444,4.9916,4.959,4.959,4.8944,4.8335,4.7933,4.6878,4.6301,4.6301,4.6301,4.6225,4.6075,4.6225,4.6225,4.605,4.5673,4.5397,3.0055,3.1311,0.0,3.5431,3.8617,4.2158,4.5954,0.0,0.0,0.0,0.0,0.0,0.0,0.0,0.0,0.0,0.0,0.0,0.0,0.0,0.0,0.0,0.0,0.0,0.0,0.0,0.0,0.0,0.0,0.0,0.0,0.0,0.0,0.0,0.0,0.0,0.0,0.0,0.0,5.0092,5.0444,5.0619,5.0619,5.1071,5.1306,5.1306,5.1046,5.0619,5.0067,4.9741,4.9791,5.0067,4.9715,4.959,4.959,4.959,4.959,4.964,4.9967,4.9866,4.9715,5.0393,5.0368,5.0092,5.0092,5.0343,5.0695,5.1147,5.1523,5.195,5.2694,5.2895,5.2895,5.2895,5.2895,5.2895,5.2895,5.2895,5.2895,5.2895,5.2895,5.2895,5.2895,5.2895,5.2895,5.2895,5.2895,5.2895,5.2895,5.2895,5.277,5.2477,5.195,5.1473,5.1122,5.0368,4.9916,4.9916,4.9188,4.8642,4.8259,4.7205,4.6527,4.6296,4.6301,4.6301,4.6301,4.6301,4.6301,4.6301,4.5974,4.5573,3.0563,3.1888,3.3919,3.7362,4.0577,0.0,4.8215,0.0,0.0,0.0,0.0,0.0,0.0,0.0,0.0,0.0,0.0,0.0,0.0,0.0,0.0,0.0,0.0,0.0,0.0,0.0,0.0,0.0,0.0,0.0,0.0,0.0,0.0,0.0,0.0,0.0,0.0,0.0,0.0,0.0,4.9439,4.9439,4.9464,5.0619,5.1155,5.1096,5.0519,4.9992,4.9515,4.9515,4.9515,4.9515,4.9565,4.959,4.959,4.959,4.959,4.959,4.959,4.959,4.959,4.959,4.959,4.959,4.959,4.959,4.9841,5.1004,5.1306,5.1548,5.2594,5.2895,5.2895,5.2895,5.2895,5.2895,5.2895,5.2895,5.2895,5.2895,5.2895,5.2895,5.2895,5.2895,5.2895,5.2895,5.2895,5.2895,5.2895,5.2895,5.2895,5.2895,5.2427,5.2101,5.2101,5.1071,5.0386,5.0386,4.9439,4.8843,4.8793,4.7732,4.6873,4.6401,4.6326,4.6301,4.6301,4.6301,4.6301,4.6301,4.6301,4.5723,3.1466,3.2466,0.0,3.8818,4.4016,4.8711,5.1423,5.2468,0.0,0.0,0.0,0.0,0.0,0.0,0.0,0.0,0.0,0.0,0.0,0.0,0.0,0.0,0.0,0.0,0.0,0.0,0.0,0.0,0.0,0.0,0.0,0.0,0.0,0.0,0.0,0.0,4.846,4.846,4.8385,0.0,4.8284,4.8284,4.8309,4.9439,4.9967,4.9916,4.9364,4.9095,4.8994,4.8994,4.8994,4.9019,4.9414,4.959,4.959,4.959,4.959,4.959,4.959,4.959,4.959,4.959,4.959,4.959,4.959,4.959,4.9841,5.1004,5.1306,5.1548,5.2594,5.2895,5.2895,5.2895,5.2895,5.2895,5.2895,5.2895,5.2895,5.2895,5.2895,5.2895,5.2895,5.2895,5.2895,5.2895,5.2895,5.2895,5.2895,5.2895,5.2895,5.2895,5.2427,5.2101,5.2101,5.1071,5.0386,5.0386,4.9791,4.9213,4.8818,4.7732,4.7048,4.6923,4.6496,4.6301,4.6301,4.6301,4.6301,4.6301,4.6301,4.5949,3.1817,0.0,0.0,4.2206,0.0,5.0444,5.2151,5.2694,0.0,0.0,0.0,0.0,0.0,0.0,0.0,0.0,0.0,0.0,0.0,0.0,0.0,0.0,0.0,0.0,0.0,0.0,0.0,0.0,0.0,0.0,0.0,0.0,0.0,0.0,0.0,0.0,4.7525,4.7782,4.7782,4.75,4.7782,4.7908,4.7933,4.851,4.8786,4.8761,4.8485,4.836,4.836,4.836,4.836,4.841,4.8987,4.9245,4.927,4.949,4.959,4.959,4.959,4.959,4.959,4.959,4.959,4.959,4.959,4.9766,5.0167,5.1046,5.1473,5.1875,5.2669,5.2895,5.2895,5.2895,5.2895,5.2895,5.2895,5.2895,5.2895,5.2895,5.2895,5.2895,5.2895,5.2895,5.2895,5.2895,5.2895,5.2895,5.2895,5.2895,5.2895,5.2895,5.2644,5.2468,5.2468,5.1473,5.082,5.082,5.0067,4.9464,4.9163,4.836,4.7682,4.7124,4.6823,4.6547,4.6301,4.6301,4.6301,4.6301,4.6301,4.6024,3.1867,3.5002,3.9371,4.5443,4.8604,0.0,5.1699,5.2402,0.0,0.0,0.0,0.0,0.0,0.0,0.0,0.0,0.0,0.0,0.0,0.0,0.0,0.0,0.0,0.0,0.0,0.0,0.0,0.0,0.0,0.0,0.0,0.0,0.0,0.0,0.0,4.733,4.6672,4.723,4.723,4.6672,4.7099,4.733,4.733,4.7456,4.7631,4.7908,4.7807,4.7782,4.7782,4.7782,4.7782,4.7832,4.841,4.8642,4.8718,4.9238,4.9464,4.9464,4.9565,4.959,4.959,4.959,4.959,4.959,4.959,4.9916,5.0419,5.1096,5.1599,5.2126,5.2719,5.2895,5.2895,5.2895,5.2895,5.2895,5.2895,5.2895,5.2895,5.2895,5.2895,5.2895,5.2895,5.2895,5.2895,5.2895,5.2895,5.2895,5.2895,5.2895,5.2895,5.2895,5.2895,5.2895,5.2895,5.1925,5.1306,5.1306,5.0218,4.959,4.959,4.9163,4.8435,4.74,4.7199,4.6923,4.6577,4.6401,4.6351,4.6451,4.6351,4.6075,3.1767,3.6384,4.1654,0.0,4.8083,4.9992,0.0,0.0,0.0,0.0,0.0,0.0,0.0,0.0,0.0,0.0,0.0,0.0,0.0,0.0,0.0,0.0,0.0,0.0,0.0,0.0,0.0,0.0,0.0,0.0,0.0,0.0,4.6973,4.6527,4.6527,0.0,4.4941,4.5522,4.5522,4.4916,4.4991,4.5041,4.5041,4.5573,4.6577,4.7883,4.74,4.7199,4.7199,4.7199,4.7199,4.7249,4.7807,4.8033,4.8083,4.8693,4.8919,4.8994,4.9439,4.959,4.959,4.959,4.959,4.959,4.959,4.964,4.9916,5.0996,5.1356,5.1624,5.2619,5.2895,5.2895,5.2895,5.2895,5.2895,5.2895,5.2895,5.2895,5.2895,5.2895,5.2895,5.2895,5.2895,5.2895,5.2895,5.2895,5.2895,5.2895,5.2895,5.2895,5.2895,5.2895,5.2895,5.2895,5.1925,5.1306,5.1306,5.0218,4.959,4.959,4.9515,4.9188,4.8592,4.7575,4.7274,4.7682,4.6753,4.6522,4.6973,4.6527,4.6276,3.4148,3.7186,4.0474,4.4769,4.6803,4.8209,4.9941,0.0,0.0,0.0,0.0,0.0,0.0,0.0,0.0,0.0,0.0,0.0,0.0,0.0,0.0,0.0,0.0,0.0,0.0,0.0,0.0,0.0,0.0,0.0,0.0,4.6677,4.61,4.5849,4.5518,0.0,4.4589,4.4869,4.4869,4.4589,4.4589,4.4589,4.4614,4.4865,4.5397,4.607,4.6471,4.6471,4.6225,4.6552,4.6647,4.6697,4.7224,4.745,4.75,4.8083,4.8284,4.8309,4.856,4.8862,4.917,4.917,4.9371,4.959,4.959,5.0042,5.0677,5.118,5.1724,5.2327,5.277,5.2895,5.2895,5.2895,5.2895,5.2895,5.2895,5.2895,5.2895,5.2895,5.2895,5.2895,5.2895,5.2895,5.2895,5.2895,5.2895,5.2895,5.2895,5.2895,5.2895,5.2895,5.2895,5.2895,5.2895,5.1925,5.1306,5.1306,5.0218,4.959,4.959,4.959,4.949,4.9238,4.846,4.8008,4.7908,4.7431,4.733,4.7525,4.6998,4.6747,3.4926,3.6634,3.8442,4.2911,4.4844,4.6225,0.0,0.0,0.0,0.0,0.0,0.0,0.0,0.0,0.0,0.0,0.0,0.0,0.0,0.0,0.0,0.0,0.0,0.0,0.0,0.0,0.0,0.0,0.0,0.0,4.6672,4.5673,4.507,4.507,4.4644,4.4292,4.3991,4.3991,4.4066,4.4192,4.4192,4.4192,4.4217,4.4313,4.4313,4.4267,4.5397,4.5723,4.5522,4.5924,4.6175,4.6351,4.6722,4.6898,4.6948,4.7475,4.7707,4.7757,4.8033,4.841,4.8818,4.8969,4.9264,4.959,4.959,5.0293,5.1096,5.128,5.1975,5.2719,5.2845,5.2895,5.2895,5.2895,5.2895,5.2895,5.2895,5.2895,5.2895,5.2895,5.2895,5.2895,5.2895,5.2895,5.2895,5.2895,5.2895,5.2895,5.2895,5.2895,5.2895,5.2895,5.2895,5.2895,5.2895,5.2051,5.1498,5.1498,5.0569,5.0017,5.0017,5.0017,4.9967,4.9816,4.9389,4.8912,4.8335,4.8058,4.7983,4.8109,4.755,4.7224,3.1989,3.4025,3.631,3.927,4.1982,4.4392,0.0,0.0,0.0,0.0,0.0,0.0,0.0,0.0,0.0,0.0,0.0,0.0,0.0,0.0,0.0,0.0,0.0,0.0,0.0,0.0,0.0,0.0,0.0,0.0,4.5573,4.4493,4.389,4.389,4.3865,4.3338,4.2311,4.2311,4.2587,4.309,4.309,4.309,4.3115,4.3614,4.3564,4.314,4.4242,4.4995,4.5497,4.5522,4.5849,4.6301,4.6351,4.6351,4.6426,4.6948,4.7149,4.7299,4.836,4.8768,4.8894,4.9389,4.9565,4.959,4.959,4.9992,5.0569,5.1122,5.1699,5.2277,5.2744,5.2895,5.2895,5.2895,5.2895,5.2895,5.2895,5.2895,5.2895,5.2895,5.2895,5.2895,5.2895,5.2895,5.2895,5.2895,5.2895,5.2895,5.2895,5.2895,5.2895,5.2895,5.2895,5.2895,5.2895,5.2402,5.2076,5.2076,5.1523,5.1197,5.1197,5.1197,5.0946,5.0393,5.0343,5.0067,4.9515,4.8435,4.8184,4.8743,4.8134,4.7575,0.0,3.2771,3.4401,3.8683,4.0843,4.271,4.5789,0.0,0.0,0.0,0.0,0.0,0.0,0.0,0.0,0.0,0.0,0.0,0.0,0.0,0.0,0.0,0.0,0.0,0.0,0.0,0.0,0.0,0.0,0.0,4.4945,4.389,4.3291,4.3291,4.2585,4.2005,4.163,4.163,4.1731,4.1904,4.2311,4.2487,4.2487,4.3039,4.319,4.3039,4.3388,4.389,4.4443,4.4794,4.5271,4.5773,4.5773,4.5999,4.6326,4.6527,4.6572,4.6672,4.7456,4.7933,4.8309,4.8919,4.9314,4.959,4.959,5.0243,5.1021,5.1255,5.1925,5.2644,5.2845,5.2895,5.2895,5.2895,5.2895,5.2895,5.2895,5.2895,5.2895,5.2895,5.2895,5.2895,5.2895,5.2895,5.2895,5.2895,5.2895,5.2895,5.2895,5.2895,5.2895,5.2895,5.2895,5.2895,5.2895,5.2427,5.2101,5.2101,5.1599,5.1306,5.1306,5.1306,5.1197,5.0971,5.0619,5.0142,4.959,4.9188,4.9088,4.9289,4.8743,4.836,3.111,0.0,0.0,0.0,3.9137,4.0665,4.4841,0.0,0.0,0.0,0.0,0.0,0.0,0.0,0.0,0.0,0.0,0.0,0.0,0.0,0.0,0.0,0.0,0.0,0.0,0.0,0.0,0.0,0.0,0.0,4.4091,4.324,4.2637,4.2434,4.1503,4.1127,4.1302,4.1127,4.1227,4.163,4.2009,4.2286,4.2462,4.2838,4.3014,4.3014,4.3014,4.3288,4.384,4.4192,4.4794,4.5497,4.5497,4.5824,4.6301,4.6301,4.6301,4.6401,4.6923,4.745,4.8008,4.8617,4.917,4.9615,4.9816,5.0519,5.1356,5.1498,5.2226,5.2895,5.2895,5.2895,5.2895,5.2895,5.2895,5.2895,5.2895,5.2895,5.2895,5.2895,5.2895,5.2895,5.2895,5.2895,5.2895,5.2895,5.2895,5.2895,5.2895,5.2895,5.2895,5.2895,5.2895,5.2895,5.2895,5.2544,5.2377,5.2377,5.2026,5.1825,5.1825,5.1825,5.1749,5.1548,5.1172,5.0619,4.9866,4.969,4.959,4.959,4.9213,4.8994,0.0,0.0,0.0,0.0,0.0,0.0,0.0,0.0,0.0,0.0,0.0,0.0,0.0,0.0,0.0,0.0,0.0,0.0,0.0,0.0,0.0,0.0,0.0,0.0,0.0,0.0,0.0,0.0,0.0,4.3489,4.2989,4.2436,4.1884,4.1277,4.075,4.0725,4.1252,4.0725,4.1028,4.2137,4.2162,4.2436,4.2964,4.2989,4.3014,4.3014,4.3014,4.3316,4.379,4.379,4.4443,4.5472,4.5472,4.5799,4.6301,4.6301,4.6301,4.6401,4.6923,4.745,4.8008,4.8642,4.9195,4.969,5.0243,5.082,5.1398,5.195,5.2503,5.2895,5.2895,5.2895,5.2895,5.2895,5.2895,5.2895,5.2895,5.2895,5.2895,5.2895,5.2895,5.2895,5.2895,5.2895,5.2895,5.2895,5.2895,5.2895,5.2895,5.2895,5.2895,5.2895,5.2895,5.2895,5.2895,5.2895,5.2895,5.2895,5.2895,5.2895,5.2895,5.2895,5.2678,5.2126,5.2076,5.1523,5.0386,4.9891,4.9615,4.959,4.959,4.9314,2.9804,0.0,0.0,0.0,0.0,0.0,0.0,0.0,0.0,0.0,0.0,0.0,0.0,0.0,0.0,0.0,0.0,0.0,0.0,0.0,0.0,0.0,0.0,0.0,0.0,0.0,0.0,0.0,0.0,4.193,4.1779,4.1279,4.0727,4.0174,3.9998,3.9998,4.0149,3.9998,4.0074,4.0401,4.1178,4.1628,4.1804,4.261,4.3014,4.3014,4.3014,4.309,4.3212,4.3212,4.3865,4.484,4.484,4.5447,4.6301,4.6301,4.6301,4.6451,4.738,4.7782,4.8058,4.9063,4.9464,4.969,5.0243,5.082,5.1398,5.195,5.2503,5.2895,5.2895,5.2895,5.2895,5.2895,5.2895,5.2895,5.2895,5.2895,5.2895,5.2895,5.2895,5.2895,5.2895,5.2895,5.2895,5.2895,5.2895,5.2895,5.2895,5.2895,5.2895,5.2895,5.2895,5.2895,5.2895,5.2895,5.2895,5.2895,5.2895,5.2895,5.2895,5.2895,5.2678,5.2126,5.1699,5.1147,5.0386,5.0268,4.9992,4.959,4.959,4.9515,0.0,0.0,0.0,0.0,0.0,0.0,0.0,4.1343,0.0,0.0,0.0,0.0,0.0,0.0,0.0,0.0,0.0,0.0,0.0,0.0,0.0,0.0,0.0,0.0,0.0,0.0,0.0,0.0,4.1503,4.1202,4.0976,4.0449,4.0023,3.9697,3.9697,3.9697,3.9697,3.9697,3.9798,4.0049,4.0675,4.1202,4.1681,4.2108,4.2409,4.2663,4.2663,4.2663,4.2688,4.2914,4.3639,4.4589,4.4589,4.5292,4.6301,4.6301,4.6301,4.6426,4.7249,4.7732,4.8058,4.8962,4.9414,4.9741,5.0544,5.1021,5.1448,5.2226,5.2644,5.2895,5.2895,5.2895,5.2895,5.2895,5.2895,5.2895,5.2895,5.2895,5.2895,5.2895,5.2895,5.2895,5.2895,5.2895,5.2895,5.2895,5.2895,5.2895,5.2895,5.2895,5.2895,5.2895,5.2895,5.2895,5.2895,5.2895,5.2895,5.2895,5.2895,5.2895,5.2895,5.2895,5.2744,5.2452,5.19,5.1222,5.0386,5.0193,4.9916,4.959,4.959,4.959,0.0,0.0,0.0,0.0,0.0,0.0,3.9365,3.975,3.9948,0.0,0.0,0.0,0.0,0.0,0.0,0.0,0.0,0.0,0.0,0.0,0.0,0.0,0.0,0.0,0.0,0.0,0.0,4.1309,4.1177,4.0926,4.045,3.9948,3.9697,3.9697,3.9697,3.9697,3.9697,3.9697,3.9948,4.0399,4.0449,4.1028,4.2011,4.1503,4.1605,4.2085,4.2187,4.2213,4.2263,4.2788,4.3589,4.4514,4.4564,4.5242,4.6225,4.6276,4.6301,4.6401,4.6973,4.75,4.8008,4.8693,4.922,4.9791,5.0845,5.1255,5.1498,5.2628,5.2895,5.2895,5.2895,5.2895,5.2895,5.2895,5.2895,5.2895,5.2895,5.2895,5.2895,5.2895,5.2895,5.2895,5.2895,5.2895,5.2895,5.2895,5.2895,5.2895,5.2895,5.2895,5.2895,5.2895,5.2895,5.2895,5.2895,5.2895,5.2895,5.2895,5.2895,5.2895,5.2895,5.2895,5.287,5.2795,5.2302,5.1498,5.0386,4.9866,4.959,4.959,4.959,4.959,0.0,0.0,0.0,0.0,0.0,0.0,3.8698,3.911,3.9828,0.0,0.0,0.0,0.0,0.0,0.0,0.0,0.0,0.0,0.0,0.0,0.0,0.0,0.0,0.0,0.0,0.0,4.2008,4.0756,4.0275,3.9973,3.9848,3.9747,3.9697,3.9697,3.9697,3.9697,3.9697,3.9697,3.9747,3.9848,4.03,4.0626,4.0852,4.1152,4.1378,4.1503,4.1984,4.2213,4.2263,4.2788,4.3363,4.4016,4.4414,4.5045,4.5698,4.615,4.6301,4.6451,4.7431,4.7832,4.8083,4.9113,4.9515,4.9715,5.0393,5.0921,5.1498,5.2628,5.2895,5.2895,5.2895,5.2895,5.2895,5.2895,5.2895,5.2895,5.2895,5.2895,5.2895,5.2895,5.2895,5.2895,5.2895,5.2895,5.2895,5.2895,5.2895,5.2895,5.2895,5.2895,5.2895,5.2895,5.2895,5.2895,5.2895,5.2895,5.2895,5.2895,5.2895,5.2895,5.2895,5.2895,5.2694,5.2277,5.1724,5.1096,5.0386,4.9866,4.959,4.959,4.959,4.959,0.0,0.0,0.0,3.5665,0.0,0.0,0.0,3.7943,3.8332,0.0,0.0,0.0,0.0,0.0,0.0,0.0,0.0,0.0,0.0,0.0,0.0,0.0,0.0,0.0,0.0,0.0,4.1174,4.0178,3.9848,3.9697,3.9697,3.9697,3.9697,3.9697,3.9697,3.9697,3.9697,3.9697,3.9697,3.9697,3.9973,4.0249,4.0499,4.0499,4.065,4.0926,4.1505,4.1756,4.1806,4.2663,4.3165,4.3463,4.4292,4.497,4.5547,4.61,4.6301,4.6517,4.8068,4.8802,4.9219,5.0032,5.0527,5.0893,5.1428,5.22,5.2902,5.2918,5.2895,5.2895,5.2895,5.2895,5.2895,5.2895,5.2895,5.2895,5.2895,5.2895,5.2895,5.2895,5.2895,5.2895,5.2895,5.2895,5.2895,5.2895,5.2895,5.2895,5.2895,5.2895,5.2895,5.2895,5.2895,5.2895,5.2895,5.2895,5.2895,5.2895,5.2895,5.2895,5.2895,5.2895,5.2678,5.2126,5.1825,5.1272,5.0386,5.0142,4.9866,4.959,4.959,4.959,0.0,0.0,0.0,0.0,0.0,3.7981,0.0,0.0,0.0,3.8093,0.0,0.0,0.0,0.0,0.0,0.0,0.0,0.0,0.0,0.0,0.0,0.0,0.0,0.0,0.0,0.0,4.0132,3.9423,3.9449,3.9525,3.9547,3.9546,3.9597,3.9697,3.9697,3.9697,3.9697,3.9697,3.9697,3.9697,3.9697,3.9923,4.035,3.9898,3.9948,4.0374,4.1026,4.1463,4.1807,4.2924,4.3381,4.348,4.4494,4.5229,4.5871,4.667,4.6862,4.6985,4.9048,4.9982,5.0442,5.1209,5.1701,5.2059,5.2423,5.3384,5.4177,5.3181,5.3145,5.3291,5.2973,5.2895,5.2895,5.2895,5.2895,5.2895,5.2895,5.2895,5.2895,5.2895,5.2895,5.2895,5.2895,5.2895,5.2895,5.2895,5.2895,5.2895,5.2895,5.2895,5.2895,5.2895,5.2895,5.2895,5.2895,5.2895,5.2895,5.2895,5.2895,5.2895,5.2895,5.2895,5.2694,5.2277,5.2251,5.1699,5.0569,5.0569,5.0243,4.959,4.959,4.959,0.0,0.0,0.0,0.0,4.0187,0.0,0.0,0.0,4.0206,3.7973,0.0,0.0,0.0,0.0,0.0,0.0,0.0,0.0,0.0,0.0,0.0,0.0,0.0,0.0,0.0,0.0,0.0,3.8239,3.8635,3.8934,3.8995,3.8994,3.922,3.9672,3.9697,3.9697,3.9697,3.9697,3.9697,3.9697,3.9697,3.9722,3.9798,3.9722,3.9722,3.9848,4.0851,4.1999,4.3231,4.4334,4.4752,4.4858,4.5486,4.6171,4.6947,4.8705,4.8853,4.8524,5.0611,5.0889,5.0622,5.2493,5.2614,5.1951,5.1576,5.262,5.3757,5.3055,5.3954,5.4775,5.3316,5.2895,5.2895,5.2895,5.2895,5.2895,5.2895,5.2895,5.2895,5.2895,5.2895,5.2895,5.2895,5.2895,5.2895,5.2895,5.2895,5.2895,5.2895,5.2895,5.2895,5.2895,5.2895,5.2895,5.2895,5.2895,5.2895,5.2895,5.2895,5.2895,5.2895,5.2895,5.287,5.2795,5.2795,5.2302,5.1197,5.1197,5.0645,4.959,4.959,4.959,0.0,0.0,0.0,0.0,0.0,0.0,0.0,0.0,3.9439,0.0,0.0,0.0,0.0,0.0,0.0,0.0,0.0,0.0,0.0,0.0,0.0,0.0,0.0,0.0,0.0,0.0,0.0,0.0,0.0,3.7668,3.8227,3.803,3.8316,3.922,3.9245,3.9396,3.9697,4.044,4.044,3.9723,4.0465,4.0794,4.0794,4.0032,4.0109,4.0871,4.2009,4.284,4.3567,4.544,4.6213,4.6373,4.7839,4.7782,4.7146,4.9446,5.0077,5.0097,5.2182,5.2939,5.3216,5.4798,5.5298,5.5142,5.4383,5.5531,5.6907,5.6063,5.5643,5.5221,5.4508,5.364,5.2895,5.2895,5.2895,5.2895,5.2895,5.2895,5.2895,5.2895,5.2895,5.2895,5.2895,5.2895,5.2895,5.2895,5.2895,5.2895,5.2895,5.2895,5.2895,5.2895,5.2895,5.2895,5.2895,5.2895,5.2895,5.2895,5.2895,5.2895,5.2895,5.2895,5.2895,5.2895,5.2895,5.2553,5.1749,5.1749,5.1348,5.0544,4.9891,4.959,3.7862,0.0,0.0,0.0,0.0,0.0,0.0,0.0,0.0,0.0,0.0,0.0,0.0,0.0,0.0,0.0,0.0,0.0,0.0,0.0,0.0,0.0,0.0,0.0,0.0,0.0,0.0,0.0,3.5699,0.0,3.6913,3.6809,3.7262,3.8391,3.8743,3.9095,3.9497,4.054,4.0617,3.9723,4.0969,4.1591,4.1566,4.0642,4.0718,4.167,4.2882,4.3615,4.418,4.6648,4.7681,4.7892,5.0158,4.9787,4.8328,5.0784,5.1504,5.162,5.3788,5.5053,5.5901,5.6474,5.7139,5.7512,5.6503,5.7785,5.9344,5.8282,5.7112,5.601,5.5518,5.4164,5.2895,5.2895,5.2895,5.2895,5.2895,5.2895,5.2895,5.2895,5.2895,5.2895,5.2895,5.2895,5.2895,5.2895,5.2895,5.2895,5.2895,5.2895,5.2895,5.2895,5.2895,5.2895,5.2895,5.2895,5.2895,5.2895,5.2895,5.2895,5.2895,5.2895,5.2895,5.2895,5.2895,5.2619,5.2101,5.2101,5.1825,5.1272,5.0444,4.9967,0.0,0.0,0.0,0.0,0.0,0.0,0.0,0.0,4.0954,0.0,0.0,0.0,0.0,0.0,0.0,0.0,0.0,0.0,0.0,0.0,0.0,0.0,0.0,0.0,0.0,0.0,0.0,0.0,3.4218,0.0,3.4765,3.528,3.6083,3.7235,3.8316,3.8894,3.8919,3.9472,3.9749,3.9723,4.0969,4.1591,4.1591,4.1541,4.1541,4.167,4.2882,4.4175,4.5604,4.8101,4.9137,4.9399,5.2043,5.2224,5.1222,5.3325,5.359,5.3208,5.5382,5.6952,5.7851,5.6984,5.7139,5.7512,5.6503,5.7843,5.9463,5.8342,5.7973,5.7528,5.5847,5.4164,5.2895,5.2895,5.2895,5.2895,5.2895,5.2895,5.2895,5.2895,5.2895,5.2895,5.2895,5.2895,5.2895,5.2895,5.2895,5.2895,5.2895,5.2895,5.2895,5.2895,5.2895,5.2895,5.2895,5.2895,5.2895,5.2895,5.2895,5.2895,5.2895,5.2895,5.2895,5.2895,5.2895,5.2619,5.2101,5.2101,5.1825,5.1306,5.1247,5.0921,0.0,0.0,4.3509,4.1553,0.0,0.0,0.0,0.0,0.0,0.0,0.0,0.0,0.0,0.0,0.0,0.0,0.0,0.0,0.0,0.0,0.0,0.0,0.0,0.0,0.0,0.0,0.0,3.24,3.2289,3.2562,0.0,3.4071,3.4929,3.6033,3.7538,3.8517,3.8894,4.1105,4.1789,4.0995,4.3098,4.4116,4.4093,4.3242,4.3557,4.4808,4.5697,4.6555,4.7518,4.9642,5.0768,5.1313,5.267,5.3198,5.3296,5.446,5.496,5.5334,5.6907,5.8052,5.8779,5.8912,5.9397,5.9962,6.0063,6.0969,6.188,6.1496,6.0539,5.9259,5.7565,5.5847,5.4265,5.3145,5.2895,5.2895,5.2895,5.2895,5.2895,5.2895,5.2895,5.2895,5.2895,5.2895,5.2895,5.2895,5.2895,5.2895,5.2895,5.2895,5.2895,5.2895,5.2895,5.2895,5.2895,5.2895,5.2895,5.2895,5.2895,5.2895,5.2895,5.2895,5.2895,5.2895,5.2895,5.2795,5.2619,5.2619,5.2519,5.2377,5.2377,5.1875,4.1053,4.2661,0.0,0.0,4.2372,0.0,0.0,0.0,0.0,0.0,0.0,0.0,0.0,0.0,0.0,0.0,0.0,0.0,0.0,0.0,0.0,0.0,0.0,0.0,0.0,0.0,3.1721,3.1306,3.1312,3.1535,0.0,0.0,3.4022,3.4904,3.6735,3.8211,3.9263,4.1445,4.2448,4.2277,4.4396,4.5389,4.5366,4.4535,4.4991,4.6437,4.7095,4.773,4.8437,5.0407,5.1618,5.2276,5.2959,5.3593,5.4311,5.5209,5.6132,5.6974,5.7816,5.8534,5.9219,5.9877,6.0565,6.1253,6.1912,6.2569,6.3108,6.3108,6.1851,6.0116,5.8446,5.6699,5.4982,5.3316,5.2895,5.2895,5.2895,5.2895,5.2895,5.2895,5.2895,5.2895,5.2895,5.2895,5.2895,5.2895,5.2895,5.2895,5.2895,5.2895,5.2895,5.2895,5.2895,5.2895,5.2895,5.2895,5.2895,5.2895,5.2895,5.2895,5.2895,5.2895,5.3171,5.3783,5.3196,5.3171,5.3808,5.3171,5.2895,5.2895,5.2895,5.2519]}]]